<?xml version="1.0" encoding="utf-8"?>
<gpx xmlns:xsi="http://www.w3.org/2001/XMLSchema-instance" xmlns:xsd="http://www.w3.org/2001/XMLSchema" version="1.1" creator="Shapelink.com" xmlns="http://www.topografix.com/GPX/1/1" xmlns:gpxtpx="http://www.garmin.com/xmlschemas/TrackPointExtension/v1">
  <metadata>
    <name>Löpning 8.16 km, 2018-03-03</name>
    <desc></desc>
    <author><name>Bengt-Åke Forslund</name></author> 
    <time>2018-03-03T17:09:29Z</time>
  </metadata>
  <trk>
    <name>Löpning 8.16 km, 2018-03-03</name>
    <trkseg>
      <trkpt lat="62.635909525829" lon="17.967796819293">
        <ele>58.8</ele>
        <time>2018-03-03T17:09:29Z</time>
      </trkpt>
      <trkpt lat="62.635990159707" lon="17.968172663689">
        <ele>58.8</ele>
        <time>2018-03-03T17:09:39Z</time>
      </trkpt>
      <trkpt lat="62.636001978186" lon="17.968211807162">
        <ele>58.8</ele>
        <time>2018-03-03T17:09:40Z</time>
      </trkpt>
      <trkpt lat="62.636019831633" lon="17.968257320879">
        <ele>59</ele>
        <time>2018-03-03T17:09:41Z</time>
      </trkpt>
      <trkpt lat="62.636035254329" lon="17.968290680841">
        <ele>59</ele>
        <time>2018-03-03T17:09:42Z</time>
      </trkpt>
      <trkpt lat="62.636051599034" lon="17.96832848321">
        <ele>59</ele>
        <time>2018-03-03T17:09:43Z</time>
      </trkpt>
      <trkpt lat="62.636076325639" lon="17.968373661651">
        <ele>59.2</ele>
        <time>2018-03-03T17:09:44Z</time>
      </trkpt>
      <trkpt lat="62.636098956769" lon="17.968399645541">
        <ele>59</ele>
        <time>2018-03-03T17:09:45Z</time>
      </trkpt>
      <trkpt lat="62.636122174632" lon="17.968427641087">
        <ele>59</ele>
        <time>2018-03-03T17:09:46Z</time>
      </trkpt>
      <trkpt lat="62.636148745255" lon="17.968462928886">
        <ele>59</ele>
        <time>2018-03-03T17:09:47Z</time>
      </trkpt>
      <trkpt lat="62.63617263367" lon="17.96848438655">
        <ele>59.2</ele>
        <time>2018-03-03T17:09:48Z</time>
      </trkpt>
      <trkpt lat="62.63619945575" lon="17.968506263309">
        <ele>59.4</ele>
        <time>2018-03-03T17:09:49Z</time>
      </trkpt>
      <trkpt lat="62.6362287924" lon="17.968530151724">
        <ele>59.4</ele>
        <time>2018-03-03T17:09:50Z</time>
      </trkpt>
      <trkpt lat="62.636254273376" lon="17.968532582475">
        <ele>59.6</ele>
        <time>2018-03-03T17:09:51Z</time>
      </trkpt>
      <trkpt lat="62.636280173447" lon="17.968553369587">
        <ele>59.8</ele>
        <time>2018-03-03T17:09:52Z</time>
      </trkpt>
      <trkpt lat="62.636314120142" lon="17.968585639902">
        <ele>60</ele>
        <time>2018-03-03T17:09:53Z</time>
      </trkpt>
      <trkpt lat="62.636346139" lon="17.968623106995">
        <ele>60</ele>
        <time>2018-03-03T17:09:54Z</time>
      </trkpt>
      <trkpt lat="62.636369273044" lon="17.968657221328">
        <ele>59.8</ele>
        <time>2018-03-03T17:09:55Z</time>
      </trkpt>
      <trkpt lat="62.63639140126" lon="17.968697957362">
        <ele>59.8</ele>
        <time>2018-03-03T17:09:56Z</time>
      </trkpt>
      <trkpt lat="62.636409673802" lon="17.968734837722">
        <ele>59.8</ele>
        <time>2018-03-03T17:09:57Z</time>
      </trkpt>
      <trkpt lat="62.636427862525" lon="17.968778004507">
        <ele>59.8</ele>
        <time>2018-03-03T17:09:58Z</time>
      </trkpt>
      <trkpt lat="62.636452337673" lon="17.968833408866">
        <ele>59.4</ele>
        <time>2018-03-03T17:09:59Z</time>
      </trkpt>
      <trkpt lat="62.636470694034" lon="17.968878754945">
        <ele>59.4</ele>
        <time>2018-03-03T17:10:00Z</time>
      </trkpt>
      <trkpt lat="62.636488966576" lon="17.968931225639">
        <ele>59.6</ele>
        <time>2018-03-03T17:10:01Z</time>
      </trkpt>
      <trkpt lat="62.636505311281" lon="17.968971207302">
        <ele>59.6</ele>
        <time>2018-03-03T17:10:02Z</time>
      </trkpt>
      <trkpt lat="62.636522745633" lon="17.969021917797">
        <ele>59.6</ele>
        <time>2018-03-03T17:10:03Z</time>
      </trkpt>
      <trkpt lat="62.636540012347" lon="17.969067599152">
        <ele>59.6</ele>
        <time>2018-03-03T17:10:04Z</time>
      </trkpt>
      <trkpt lat="62.636560296545" lon="17.969128200289">
        <ele>59.6</ele>
        <time>2018-03-03T17:10:05Z</time>
      </trkpt>
      <trkpt lat="62.636580245467" lon="17.969200284629">
        <ele>59.8</ele>
        <time>2018-03-03T17:10:06Z</time>
      </trkpt>
      <trkpt lat="62.636594829973" lon="17.969243283776">
        <ele>59.8</ele>
        <time>2018-03-03T17:10:07Z</time>
      </trkpt>
      <trkpt lat="62.636608827746" lon="17.969304052551">
        <ele>59.8</ele>
        <time>2018-03-03T17:10:08Z</time>
      </trkpt>
      <trkpt lat="62.636625423908" lon="17.96935358958">
        <ele>59.8</ele>
        <time>2018-03-03T17:10:09Z</time>
      </trkpt>
      <trkpt lat="62.636641517156" lon="17.969412681975">
        <ele>59.6</ele>
        <time>2018-03-03T17:10:10Z</time>
      </trkpt>
      <trkpt lat="62.636659119146" lon="17.969478312252">
        <ele>59.8</ele>
        <time>2018-03-03T17:10:11Z</time>
      </trkpt>
      <trkpt lat="62.636672446367" lon="17.969526927272">
        <ele>59.8</ele>
        <time>2018-03-03T17:10:12Z</time>
      </trkpt>
      <trkpt lat="62.636682504647" lon="17.969582750726">
        <ele>59.6</ele>
        <time>2018-03-03T17:10:13Z</time>
      </trkpt>
      <trkpt lat="62.636696167144" lon="17.969641172569">
        <ele>59.6</ele>
        <time>2018-03-03T17:10:14Z</time>
      </trkpt>
      <trkpt lat="62.636707566528" lon="17.96969138015">
        <ele>59.8</ele>
        <time>2018-03-03T17:10:15Z</time>
      </trkpt>
      <trkpt lat="62.63671745717" lon="17.969738989342">
        <ele>59.8</ele>
        <time>2018-03-03T17:10:16Z</time>
      </trkpt>
      <trkpt lat="62.636729359468" lon="17.969784335421">
        <ele>60</ele>
        <time>2018-03-03T17:10:17Z</time>
      </trkpt>
      <trkpt lat="62.636743943974" lon="17.969835129735">
        <ele>60.2</ele>
        <time>2018-03-03T17:10:18Z</time>
      </trkpt>
      <trkpt lat="62.636764479629" lon="17.969885672592">
        <ele>60.2</ele>
        <time>2018-03-03T17:10:19Z</time>
      </trkpt>
      <trkpt lat="62.636782249257" lon="17.969932108318">
        <ele>60.2</ele>
        <time>2018-03-03T17:10:20Z</time>
      </trkpt>
      <trkpt lat="62.636798593962" lon="17.969973766361">
        <ele>60.2</ele>
        <time>2018-03-03T17:10:21Z</time>
      </trkpt>
      <trkpt lat="62.636814016658" lon="17.970012323101">
        <ele>60.2</ele>
        <time>2018-03-03T17:10:22Z</time>
      </trkpt>
      <trkpt lat="62.63683983291" lon="17.970044006683">
        <ele>60.2</ele>
        <time>2018-03-03T17:10:23Z</time>
      </trkpt>
      <trkpt lat="62.63686414042" lon="17.97007527117">
        <ele>60.2</ele>
        <time>2018-03-03T17:10:24Z</time>
      </trkpt>
      <trkpt lat="62.636887190645" lon="17.970106032743">
        <ele>60.2</ele>
        <time>2018-03-03T17:10:25Z</time>
      </trkpt>
      <trkpt lat="62.636914348001" lon="17.970132687185">
        <ele>60.4</ele>
        <time>2018-03-03T17:10:26Z</time>
      </trkpt>
      <trkpt lat="62.636939493701" lon="17.970147606967">
        <ele>60.4</ele>
        <time>2018-03-03T17:10:27Z</time>
      </trkpt>
      <trkpt lat="62.636967824523" lon="17.970161688559">
        <ele>60.6</ele>
        <time>2018-03-03T17:10:28Z</time>
      </trkpt>
      <trkpt lat="62.637005878349" lon="17.970174009952">
        <ele>60.6</ele>
        <time>2018-03-03T17:10:29Z</time>
      </trkpt>
      <trkpt lat="62.637046279107" lon="17.970178787635">
        <ele>60.6</ele>
        <time>2018-03-03T17:10:30Z</time>
      </trkpt>
      <trkpt lat="62.63707871706" lon="17.970169064631">
        <ele>60.6</ele>
        <time>2018-03-03T17:10:31Z</time>
      </trkpt>
      <trkpt lat="62.637119201637" lon="17.970157162333">
        <ele>60.6</ele>
        <time>2018-03-03T17:10:32Z</time>
      </trkpt>
      <trkpt lat="62.637155914359" lon="17.970143918931">
        <ele>60.4</ele>
        <time>2018-03-03T17:10:33Z</time>
      </trkpt>
      <trkpt lat="62.637196818031" lon="17.970126903674">
        <ele>60.4</ele>
        <time>2018-03-03T17:10:34Z</time>
      </trkpt>
      <trkpt lat="62.637242247929" lon="17.97010293144">
        <ele>60.2</ele>
        <time>2018-03-03T17:10:35Z</time>
      </trkpt>
      <trkpt lat="62.63728155904" lon="17.970077115188">
        <ele>60</ele>
        <time>2018-03-03T17:10:36Z</time>
      </trkpt>
      <trkpt lat="62.637318104124" lon="17.970056998628">
        <ele>59.6</ele>
        <time>2018-03-03T17:10:37Z</time>
      </trkpt>
      <trkpt lat="62.637360013624" lon="17.970036462973">
        <ele>59.2</ele>
        <time>2018-03-03T17:10:38Z</time>
      </trkpt>
      <trkpt lat="62.637402426038" lon="17.970024225399">
        <ele>59</ele>
        <time>2018-03-03T17:10:39Z</time>
      </trkpt>
      <trkpt lat="62.637441569511" lon="17.970018609526">
        <ele>58.6</ele>
        <time>2018-03-03T17:10:40Z</time>
      </trkpt>
      <trkpt lat="62.637485071572" lon="17.970026237055">
        <ele>58.6</ele>
        <time>2018-03-03T17:10:41Z</time>
      </trkpt>
      <trkpt lat="62.63752211957" lon="17.970048029995">
        <ele>58.4</ele>
        <time>2018-03-03T17:10:42Z</time>
      </trkpt>
      <trkpt lat="62.637550115116" lon="17.970079965034">
        <ele>58.2</ele>
        <time>2018-03-03T17:10:43Z</time>
      </trkpt>
      <trkpt lat="62.637581547241" lon="17.97012388619">
        <ele>58.4</ele>
        <time>2018-03-03T17:10:44Z</time>
      </trkpt>
      <trkpt lat="62.637609123692" lon="17.970176775979">
        <ele>58.2</ele>
        <time>2018-03-03T17:10:45Z</time>
      </trkpt>
      <trkpt lat="62.637630665175" lon="17.97022530718">
        <ele>58.2</ele>
        <time>2018-03-03T17:10:46Z</time>
      </trkpt>
      <trkpt lat="62.637657571074" lon="17.970285740679">
        <ele>58.2</ele>
        <time>2018-03-03T17:10:47Z</time>
      </trkpt>
      <trkpt lat="62.637679196376" lon="17.970340809762">
        <ele>58</ele>
        <time>2018-03-03T17:10:48Z</time>
      </trkpt>
      <trkpt lat="62.637695541081" lon="17.970411301541">
        <ele>58.2</ele>
        <time>2018-03-03T17:10:49Z</time>
      </trkpt>
      <trkpt lat="62.637711969605" lon="17.970479697845">
        <ele>58</ele>
        <time>2018-03-03T17:10:50Z</time>
      </trkpt>
      <trkpt lat="62.637725715921" lon="17.9705253792">
        <ele>58</ele>
        <time>2018-03-03T17:10:51Z</time>
      </trkpt>
      <trkpt lat="62.637737869676" lon="17.970571060555">
        <ele>58</ele>
        <time>2018-03-03T17:10:52Z</time>
      </trkpt>
      <trkpt lat="62.637754465838" lon="17.970616071358">
        <ele>58</ele>
        <time>2018-03-03T17:10:53Z</time>
      </trkpt>
      <trkpt lat="62.637766116679" lon="17.970671056622">
        <ele>57.8</ele>
        <time>2018-03-03T17:10:54Z</time>
      </trkpt>
      <trkpt lat="62.63777776752" lon="17.970723611135">
        <ele>57.8</ele>
        <time>2018-03-03T17:10:55Z</time>
      </trkpt>
      <trkpt lat="62.637786819972" lon="17.970766107368">
        <ele>58</ele>
        <time>2018-03-03T17:10:56Z</time>
      </trkpt>
      <trkpt lat="62.637796040062" lon="17.970824026297">
        <ele>57.8</ele>
        <time>2018-03-03T17:10:57Z</time>
      </trkpt>
      <trkpt lat="62.637804254324" lon="17.970861912485">
        <ele>58</ele>
        <time>2018-03-03T17:10:58Z</time>
      </trkpt>
      <trkpt lat="62.63781716245" lon="17.970928129495">
        <ele>58</ele>
        <time>2018-03-03T17:10:59Z</time>
      </trkpt>
      <trkpt lat="62.637828226558" lon="17.97098554551">
        <ele>58</ele>
        <time>2018-03-03T17:11:00Z</time>
      </trkpt>
      <trkpt lat="62.637837614286" lon="17.971037345652">
        <ele>58.2</ele>
        <time>2018-03-03T17:11:01Z</time>
      </trkpt>
      <trkpt lat="62.637846918195" lon="17.971093252925">
        <ele>58.2</ele>
        <time>2018-03-03T17:11:02Z</time>
      </trkpt>
      <trkpt lat="62.637857814665" lon="17.97113641971">
        <ele>58.2</ele>
        <time>2018-03-03T17:11:03Z</time>
      </trkpt>
      <trkpt lat="62.637869633144" lon="17.971195847381">
        <ele>58.2</ele>
        <time>2018-03-03T17:11:04Z</time>
      </trkpt>
      <trkpt lat="62.6378800267" lon="17.971245552048">
        <ele>58.2</ele>
        <time>2018-03-03T17:11:05Z</time>
      </trkpt>
      <trkpt lat="62.637894695025" lon="17.971290395213">
        <ele>58.2</ele>
        <time>2018-03-03T17:11:06Z</time>
      </trkpt>
      <trkpt lat="62.637907184056" lon="17.971334651645">
        <ele>58.2</ele>
        <time>2018-03-03T17:11:07Z</time>
      </trkpt>
      <trkpt lat="62.637915063042" lon="17.971389385452">
        <ele>58.2</ele>
        <time>2018-03-03T17:11:08Z</time>
      </trkpt>
      <trkpt lat="62.637925875693" lon="17.971446382372">
        <ele>58.2</ele>
        <time>2018-03-03T17:11:09Z</time>
      </trkpt>
      <trkpt lat="62.637933587041" lon="17.971498266333">
        <ele>58.4</ele>
        <time>2018-03-03T17:11:10Z</time>
      </trkpt>
      <trkpt lat="62.63794121457" lon="17.971560292393">
        <ele>58.4</ele>
        <time>2018-03-03T17:11:11Z</time>
      </trkpt>
      <trkpt lat="62.637949177375" lon="17.971612595449">
        <ele>58.6</ele>
        <time>2018-03-03T17:11:12Z</time>
      </trkpt>
      <trkpt lat="62.637953955058" lon="17.97167537588">
        <ele>59</ele>
        <time>2018-03-03T17:11:13Z</time>
      </trkpt>
      <trkpt lat="62.637963929519" lon="17.971736312293">
        <ele>59</ele>
        <time>2018-03-03T17:11:14Z</time>
      </trkpt>
      <trkpt lat="62.637965941175" lon="17.971802026389">
        <ele>59.2</ele>
        <time>2018-03-03T17:11:15Z</time>
      </trkpt>
      <trkpt lat="62.637971137953" lon="17.971854413264">
        <ele>59.2</ele>
        <time>2018-03-03T17:11:16Z</time>
      </trkpt>
      <trkpt lat="62.637970886496" lon="17.971917026057">
        <ele>59.2</ele>
        <time>2018-03-03T17:11:17Z</time>
      </trkpt>
      <trkpt lat="62.63797474217" lon="17.971973184787">
        <ele>59</ele>
        <time>2018-03-03T17:11:18Z</time>
      </trkpt>
      <trkpt lat="62.637976334731" lon="17.972036971046">
        <ele>59.2</ele>
        <time>2018-03-03T17:11:19Z</time>
      </trkpt>
      <trkpt lat="62.637973987799" lon="17.972104612979">
        <ele>59.2</ele>
        <time>2018-03-03T17:11:20Z</time>
      </trkpt>
      <trkpt lat="62.637977927292" lon="17.972163370098">
        <ele>59.2</ele>
        <time>2018-03-03T17:11:21Z</time>
      </trkpt>
      <trkpt lat="62.637979016939" lon="17.972219864104">
        <ele>59.4</ele>
        <time>2018-03-03T17:11:22Z</time>
      </trkpt>
      <trkpt lat="62.637979938948" lon="17.972287506037">
        <ele>59.4</ele>
        <time>2018-03-03T17:11:23Z</time>
      </trkpt>
      <trkpt lat="62.637986644468" lon="17.972342156025">
        <ele>59.6</ele>
        <time>2018-03-03T17:11:24Z</time>
      </trkpt>
      <trkpt lat="62.637987650296" lon="17.972396470737">
        <ele>59.6</ele>
        <time>2018-03-03T17:11:25Z</time>
      </trkpt>
      <trkpt lat="62.637992679436" lon="17.972449611983">
        <ele>59.6</ele>
        <time>2018-03-03T17:11:26Z</time>
      </trkpt>
      <trkpt lat="62.637997624757" lon="17.972495377157">
        <ele>59.6</ele>
        <time>2018-03-03T17:11:27Z</time>
      </trkpt>
      <trkpt lat="62.637998714404" lon="17.972542399616">
        <ele>59.6</ele>
        <time>2018-03-03T17:11:28Z</time>
      </trkpt>
      <trkpt lat="62.638004414096" lon="17.972605682961">
        <ele>59.6</ele>
        <time>2018-03-03T17:11:29Z</time>
      </trkpt>
      <trkpt lat="62.638007012485" lon="17.972661254958">
        <ele>59.8</ele>
        <time>2018-03-03T17:11:30Z</time>
      </trkpt>
      <trkpt lat="62.638010113788" lon="17.972715737308">
        <ele>59.8</ele>
        <time>2018-03-03T17:11:31Z</time>
      </trkpt>
      <trkpt lat="62.638014388557" lon="17.972759490826">
        <ele>60</ele>
        <time>2018-03-03T17:11:32Z</time>
      </trkpt>
      <trkpt lat="62.638013969462" lon="17.972805591276">
        <ele>60.2</ele>
        <time>2018-03-03T17:11:33Z</time>
      </trkpt>
      <trkpt lat="62.638017238403" lon="17.972855212124">
        <ele>60.4</ele>
        <time>2018-03-03T17:11:34Z</time>
      </trkpt>
      <trkpt lat="62.63801832805" lon="17.972910532664">
        <ele>60.6</ele>
        <time>2018-03-03T17:11:35Z</time>
      </trkpt>
      <trkpt lat="62.638018160412" lon="17.972967445765">
        <ele>60.8</ele>
        <time>2018-03-03T17:11:36Z</time>
      </trkpt>
      <trkpt lat="62.638020674982" lon="17.973013630034">
        <ele>61</ele>
        <time>2018-03-03T17:11:37Z</time>
      </trkpt>
      <trkpt lat="62.638021177896" lon="17.973069453488">
        <ele>61</ele>
        <time>2018-03-03T17:11:38Z</time>
      </trkpt>
      <trkpt lat="62.638025201208" lon="17.973126953322">
        <ele>61.2</ele>
        <time>2018-03-03T17:11:39Z</time>
      </trkpt>
      <trkpt lat="62.638027883416" lon="17.973172969953">
        <ele>61.2</ele>
        <time>2018-03-03T17:11:40Z</time>
      </trkpt>
      <trkpt lat="62.638026458493" lon="17.973228122855">
        <ele>61.2</ele>
        <time>2018-03-03T17:11:41Z</time>
      </trkpt>
      <trkpt lat="62.638031487633" lon="17.97327548059">
        <ele>61.4</ele>
        <time>2018-03-03T17:11:42Z</time>
      </trkpt>
      <trkpt lat="62.638029392158" lon="17.973326777818">
        <ele>61.4</ele>
        <time>2018-03-03T17:11:43Z</time>
      </trkpt>
      <trkpt lat="62.638023524828" lon="17.973381595444">
        <ele>61.4</ele>
        <time>2018-03-03T17:11:44Z</time>
      </trkpt>
      <trkpt lat="62.638019752973" lon="17.973435407242">
        <ele>61.6</ele>
        <time>2018-03-03T17:11:45Z</time>
      </trkpt>
      <trkpt lat="62.638019501516" lon="17.973481004778">
        <ele>61.8</ele>
        <time>2018-03-03T17:11:46Z</time>
      </trkpt>
      <trkpt lat="62.638018914783" lon="17.973549987815">
        <ele>61.8</ele>
        <time>2018-03-03T17:11:47Z</time>
      </trkpt>
      <trkpt lat="62.638019501516" lon="17.973597932283">
        <ele>62</ele>
        <time>2018-03-03T17:11:48Z</time>
      </trkpt>
      <trkpt lat="62.638019920611" lon="17.973661299447">
        <ele>62</ele>
        <time>2018-03-03T17:11:49Z</time>
      </trkpt>
      <trkpt lat="62.638022854276" lon="17.973719134557">
        <ele>62</ele>
        <time>2018-03-03T17:11:50Z</time>
      </trkpt>
      <trkpt lat="62.638024446837" lon="17.973772191984">
        <ele>62.2</ele>
        <time>2018-03-03T17:11:51Z</time>
      </trkpt>
      <trkpt lat="62.638025955579" lon="17.973823237755">
        <ele>62.2</ele>
        <time>2018-03-03T17:11:52Z</time>
      </trkpt>
      <trkpt lat="62.638028637787" lon="17.973871014585">
        <ele>62.4</ele>
        <time>2018-03-03T17:11:53Z</time>
      </trkpt>
      <trkpt lat="62.638031906728" lon="17.973943350382">
        <ele>62.4</ele>
        <time>2018-03-03T17:11:54Z</time>
      </trkpt>
      <trkpt lat="62.638037857877" lon="17.973996491628">
        <ele>62.4</ele>
        <time>2018-03-03T17:11:55Z</time>
      </trkpt>
      <trkpt lat="62.638041462094" lon="17.974063295371">
        <ele>62.4</ele>
        <time>2018-03-03T17:11:56Z</time>
      </trkpt>
      <trkpt lat="62.638049843994" lon="17.974124734698">
        <ele>62.4</ele>
        <time>2018-03-03T17:11:57Z</time>
      </trkpt>
      <trkpt lat="62.638053448211" lon="17.974176367202">
        <ele>62.4</ele>
        <time>2018-03-03T17:11:58Z</time>
      </trkpt>
      <trkpt lat="62.638058142075" lon="17.974246020791">
        <ele>62.4</ele>
        <time>2018-03-03T17:11:59Z</time>
      </trkpt>
      <trkpt lat="62.638063674129" lon="17.974302179521">
        <ele>62.4</ele>
        <time>2018-03-03T17:12:00Z</time>
      </trkpt>
      <trkpt lat="62.638060656645" lon="17.974380047372">
        <ele>62.4</ele>
        <time>2018-03-03T17:12:01Z</time>
      </trkpt>
      <trkpt lat="62.638063925586" lon="17.974439475043">
        <ele>62.2</ele>
        <time>2018-03-03T17:12:02Z</time>
      </trkpt>
      <trkpt lat="62.638060405188" lon="17.974502339293">
        <ele>62.2</ele>
        <time>2018-03-03T17:12:03Z</time>
      </trkpt>
      <trkpt lat="62.638057136247" lon="17.974567718113">
        <ele>62.2</ele>
        <time>2018-03-03T17:12:04Z</time>
      </trkpt>
      <trkpt lat="62.638051268917" lon="17.974622284282">
        <ele>62.2</ele>
        <time>2018-03-03T17:12:05Z</time>
      </trkpt>
      <trkpt lat="62.638039701895" lon="17.974684310342">
        <ele>62.2</ele>
        <time>2018-03-03T17:12:06Z</time>
      </trkpt>
      <trkpt lat="62.638029895072" lon="17.974734685561">
        <ele>62.2</ele>
        <time>2018-03-03T17:12:07Z</time>
      </trkpt>
      <trkpt lat="62.638016735489" lon="17.974778271441">
        <ele>62.2</ele>
        <time>2018-03-03T17:12:08Z</time>
      </trkpt>
      <trkpt lat="62.638002318621" lon="17.974825629176">
        <ele>62.2</ele>
        <time>2018-03-03T17:12:09Z</time>
      </trkpt>
      <trkpt lat="62.637991254513" lon="17.974856055473">
        <ele>62.2</ele>
        <time>2018-03-03T17:12:10Z</time>
      </trkpt>
      <trkpt lat="62.637974825989" lon="17.974895953317">
        <ele>62.2</ele>
        <time>2018-03-03T17:12:11Z</time>
      </trkpt>
      <trkpt lat="62.637966947003" lon="17.974931324935">
        <ele>62.4</ele>
        <time>2018-03-03T17:12:12Z</time>
      </trkpt>
      <trkpt lat="62.637956050533" lon="17.97496610982">
        <ele>62.4</ele>
        <time>2018-03-03T17:12:13Z</time>
      </trkpt>
      <trkpt lat="62.637939370552" lon="17.974998631592">
        <ele>62.6</ele>
        <time>2018-03-03T17:12:14Z</time>
      </trkpt>
      <trkpt lat="62.637927049159" lon="17.975035344314">
        <ele>62.6</ele>
        <time>2018-03-03T17:12:15Z</time>
      </trkpt>
      <trkpt lat="62.637911626463" lon="17.975060741471">
        <ele>62.8</ele>
        <time>2018-03-03T17:12:16Z</time>
      </trkpt>
      <trkpt lat="62.637898885975" lon="17.975094688166">
        <ele>63.2</ele>
        <time>2018-03-03T17:12:17Z</time>
      </trkpt>
      <trkpt lat="62.637885977849" lon="17.975125617377">
        <ele>63.4</ele>
        <time>2018-03-03T17:12:18Z</time>
      </trkpt>
      <trkpt lat="62.637868375859" lon="17.975157384778">
        <ele>63.6</ele>
        <time>2018-03-03T17:12:19Z</time>
      </trkpt>
      <trkpt lat="62.637853958991" lon="17.975188397808">
        <ele>64</ele>
        <time>2018-03-03T17:12:20Z</time>
      </trkpt>
      <trkpt lat="62.637836608458" lon="17.975215974259">
        <ele>64</ele>
        <time>2018-03-03T17:12:21Z</time>
      </trkpt>
      <trkpt lat="62.637821018124" lon="17.975245310909">
        <ele>64</ele>
        <time>2018-03-03T17:12:22Z</time>
      </trkpt>
      <trkpt lat="62.63780626598" lon="17.97527959288">
        <ele>64.2</ele>
        <time>2018-03-03T17:12:23Z</time>
      </trkpt>
      <trkpt lat="62.637786233239" lon="17.975318317258">
        <ele>64.2</ele>
        <time>2018-03-03T17:12:24Z</time>
      </trkpt>
      <trkpt lat="62.637766116679" lon="17.975353688876">
        <ele>64.4</ele>
        <time>2018-03-03T17:12:25Z</time>
      </trkpt>
      <trkpt lat="62.637749352879" lon="17.975386545924">
        <ele>64.4</ele>
        <time>2018-03-03T17:12:26Z</time>
      </trkpt>
      <trkpt lat="62.637730158328" lon="17.975407584493">
        <ele>64.6</ele>
        <time>2018-03-03T17:12:27Z</time>
      </trkpt>
      <trkpt lat="62.637712807795" lon="17.975429880347">
        <ele>64.6</ele>
        <time>2018-03-03T17:12:28Z</time>
      </trkpt>
      <trkpt lat="62.637693864701" lon="17.975452595296">
        <ele>64.8</ele>
        <time>2018-03-03T17:12:29Z</time>
      </trkpt>
      <trkpt lat="62.637672490856" lon="17.975464162318">
        <ele>64.8</ele>
        <time>2018-03-03T17:12:30Z</time>
      </trkpt>
      <trkpt lat="62.637652290477" lon="17.975483105412">
        <ele>65</ele>
        <time>2018-03-03T17:12:31Z</time>
      </trkpt>
      <trkpt lat="62.637627899148" lon="17.975503724886">
        <ele>65.4</ele>
        <time>2018-03-03T17:12:32Z</time>
      </trkpt>
      <trkpt lat="62.637603843095" lon="17.975514621356">
        <ele>65.6</ele>
        <time>2018-03-03T17:12:33Z</time>
      </trkpt>
      <trkpt lat="62.637580960508" lon="17.975536665753">
        <ele>65.8</ele>
        <time>2018-03-03T17:12:34Z</time>
      </trkpt>
      <trkpt lat="62.637555144256" lon="17.975554183924">
        <ele>66</ele>
        <time>2018-03-03T17:12:35Z</time>
      </trkpt>
      <trkpt lat="62.63753301604" lon="17.975567846421">
        <ele>66.2</ele>
        <time>2018-03-03T17:12:36Z</time>
      </trkpt>
      <trkpt lat="62.637513821489" lon="17.975580251633">
        <ele>66.4</ele>
        <time>2018-03-03T17:12:37Z</time>
      </trkpt>
      <trkpt lat="62.637493118196" lon="17.97558888499">
        <ele>66.8</ele>
        <time>2018-03-03T17:12:38Z</time>
      </trkpt>
      <trkpt lat="62.637475097111" lon="17.975608498636">
        <ele>67</ele>
        <time>2018-03-03T17:12:39Z</time>
      </trkpt>
      <trkpt lat="62.637456321655" lon="17.975626352083">
        <ele>67.2</ele>
        <time>2018-03-03T17:12:40Z</time>
      </trkpt>
      <trkpt lat="62.637433690525" lon="17.975639679304">
        <ele>67.6</ele>
        <time>2018-03-03T17:12:41Z</time>
      </trkpt>
      <trkpt lat="62.637417932553" lon="17.975658035665">
        <ele>67.8</ele>
        <time>2018-03-03T17:12:42Z</time>
      </trkpt>
      <trkpt lat="62.637397983631" lon="17.975673458361">
        <ele>68</ele>
        <time>2018-03-03T17:12:43Z</time>
      </trkpt>
      <trkpt lat="62.637375520139" lon="17.975696843862">
        <ele>68.2</ele>
        <time>2018-03-03T17:12:44Z</time>
      </trkpt>
      <trkpt lat="62.63735364338" lon="17.975725677598">
        <ele>68.2</ele>
        <time>2018-03-03T17:12:45Z</time>
      </trkpt>
      <trkpt lat="62.637333610639" lon="17.975746632348">
        <ele>68.4</ele>
        <time>2018-03-03T17:12:46Z</time>
      </trkpt>
      <trkpt lat="62.637310979509" lon="17.975776388093">
        <ele>68.6</ele>
        <time>2018-03-03T17:12:47Z</time>
      </trkpt>
      <trkpt lat="62.637297233193" lon="17.975801114698">
        <ele>68.6</ele>
        <time>2018-03-03T17:12:48Z</time>
      </trkpt>
      <trkpt lat="62.637277954823" lon="17.975828020597">
        <ele>68.6</ele>
        <time>2018-03-03T17:12:49Z</time>
      </trkpt>
      <trkpt lat="62.637261358661" lon="17.975851070822">
        <ele>68.8</ele>
        <time>2018-03-03T17:12:50Z</time>
      </trkpt>
      <trkpt lat="62.637248199078" lon="17.975882586766">
        <ele>69</ele>
        <time>2018-03-03T17:12:51Z</time>
      </trkpt>
      <trkpt lat="62.637237218789" lon="17.975913683615">
        <ele>69</ele>
        <time>2018-03-03T17:12:52Z</time>
      </trkpt>
      <trkpt lat="62.63722456212" lon="17.975950815432">
        <ele>69.2</ele>
        <time>2018-03-03T17:12:53Z</time>
      </trkpt>
      <trkpt lat="62.637208971786" lon="17.975997251158">
        <ele>69.4</ele>
        <time>2018-03-03T17:12:54Z</time>
      </trkpt>
      <trkpt lat="62.637202182447" lon="17.976043770703">
        <ele>69.6</ele>
        <time>2018-03-03T17:12:55Z</time>
      </trkpt>
      <trkpt lat="62.637192375624" lon="17.976092888637">
        <ele>69.8</ele>
        <time>2018-03-03T17:12:56Z</time>
      </trkpt>
      <trkpt lat="62.637178294032" lon="17.976142341847">
        <ele>70</ele>
        <time>2018-03-03T17:12:57Z</time>
      </trkpt>
      <trkpt lat="62.637172761978" lon="17.97618567627">
        <ele>70.4</ele>
        <time>2018-03-03T17:12:58Z</time>
      </trkpt>
      <trkpt lat="62.637161446413" lon="17.976239068973">
        <ele>70.6</ele>
        <time>2018-03-03T17:12:59Z</time>
      </trkpt>
      <trkpt lat="62.637150549943" lon="17.976293551323">
        <ele>70.8</ele>
        <time>2018-03-03T17:13:00Z</time>
      </trkpt>
      <trkpt lat="62.637144179699" lon="17.976340406144">
        <ele>71</ele>
        <time>2018-03-03T17:13:01Z</time>
      </trkpt>
      <trkpt lat="62.637133283229" lon="17.976393379752">
        <ele>71</ele>
        <time>2018-03-03T17:13:02Z</time>
      </trkpt>
      <trkpt lat="62.637123811682" lon="17.976449203206">
        <ele>71.2</ele>
        <time>2018-03-03T17:13:03Z</time>
      </trkpt>
      <trkpt lat="62.63711308285" lon="17.976500081339">
        <ele>71.2</ele>
        <time>2018-03-03T17:13:04Z</time>
      </trkpt>
      <trkpt lat="62.637103192208" lon="17.976557078259">
        <ele>71.4</ele>
        <time>2018-03-03T17:13:05Z</time>
      </trkpt>
      <trkpt lat="62.637100426181" lon="17.97661566774">
        <ele>71.4</ele>
        <time>2018-03-03T17:13:06Z</time>
      </trkpt>
      <trkpt lat="62.637097073421" lon="17.976668054615">
        <ele>71.6</ele>
        <time>2018-03-03T17:13:07Z</time>
      </trkpt>
      <trkpt lat="62.637094223575" lon="17.976719016567">
        <ele>71.4</ele>
        <time>2018-03-03T17:13:08Z</time>
      </trkpt>
      <trkpt lat="62.637095145584" lon="17.976769475605">
        <ele>71.6</ele>
        <time>2018-03-03T17:13:09Z</time>
      </trkpt>
      <trkpt lat="62.63709464267" lon="17.976827478353">
        <ele>71.6</ele>
        <time>2018-03-03T17:13:10Z</time>
      </trkpt>
      <trkpt lat="62.637099587991" lon="17.976899981788">
        <ele>71.6</ele>
        <time>2018-03-03T17:13:11Z</time>
      </trkpt>
      <trkpt lat="62.637101432009" lon="17.97695010555">
        <ele>71.6</ele>
        <time>2018-03-03T17:13:12Z</time>
      </trkpt>
      <trkpt lat="62.637099587991" lon="17.977016154922">
        <ele>71.8</ele>
        <time>2018-03-03T17:13:13Z</time>
      </trkpt>
      <trkpt lat="62.63710134819" lon="17.977073235661">
        <ele>71.6</ele>
        <time>2018-03-03T17:13:14Z</time>
      </trkpt>
      <trkpt lat="62.637101180552" lon="17.97713702192">
        <ele>71.8</ele>
        <time>2018-03-03T17:13:15Z</time>
      </trkpt>
      <trkpt lat="62.637097408697" lon="17.97719904798">
        <ele>71.8</ele>
        <time>2018-03-03T17:13:16Z</time>
      </trkpt>
      <trkpt lat="62.637095397041" lon="17.977252524502">
        <ele>71.8</ele>
        <time>2018-03-03T17:13:17Z</time>
      </trkpt>
      <trkpt lat="62.637087769512" lon="17.9773147182">
        <ele>71.8</ele>
        <time>2018-03-03T17:13:18Z</time>
      </trkpt>
      <trkpt lat="62.637078465603" lon="17.977379761744">
        <ele>71.8</ele>
        <time>2018-03-03T17:13:19Z</time>
      </trkpt>
      <trkpt lat="62.637065641296" lon="17.97742955023">
        <ele>71.8</ele>
        <time>2018-03-03T17:13:20Z</time>
      </trkpt>
      <trkpt lat="62.637055499197" lon="17.977479673992">
        <ele>71.8</ele>
        <time>2018-03-03T17:13:21Z</time>
      </trkpt>
      <trkpt lat="62.637045273279" lon="17.977525606804">
        <ele>72</ele>
        <time>2018-03-03T17:13:22Z</time>
      </trkpt>
      <trkpt lat="62.637032029877" lon="17.977571036702">
        <ele>72</ele>
        <time>2018-03-03T17:13:23Z</time>
      </trkpt>
      <trkpt lat="62.637013589697" lon="17.9776416123">
        <ele>72</ele>
        <time>2018-03-03T17:13:24Z</time>
      </trkpt>
      <trkpt lat="62.637002944684" lon="17.977682348334">
        <ele>72</ele>
        <time>2018-03-03T17:13:25Z</time>
      </trkpt>
      <trkpt lat="62.63699070711" lon="17.977736076313">
        <ele>72.2</ele>
        <time>2018-03-03T17:13:26Z</time>
      </trkpt>
      <trkpt lat="62.636986432341" lon="17.977791145396">
        <ele>72.2</ele>
        <time>2018-03-03T17:13:27Z</time>
      </trkpt>
      <trkpt lat="62.636981906115" lon="17.977828612489">
        <ele>72.2</ele>
        <time>2018-03-03T17:13:28Z</time>
      </trkpt>
      <trkpt lat="62.636973608034" lon="17.97789474568">
        <ele>72.2</ele>
        <time>2018-03-03T17:13:29Z</time>
      </trkpt>
      <trkpt lat="62.636968243618" lon="17.977950820591">
        <ele>72.2</ele>
        <time>2018-03-03T17:13:30Z</time>
      </trkpt>
      <trkpt lat="62.636960616089" lon="17.978009493891">
        <ele>72.2</ele>
        <time>2018-03-03T17:13:31Z</time>
      </trkpt>
      <trkpt lat="62.636951395999" lon="17.978071100856">
        <ele>72.2</ele>
        <time>2018-03-03T17:13:32Z</time>
      </trkpt>
      <trkpt lat="62.636945277212" lon="17.978112926537">
        <ele>72.4</ele>
        <time>2018-03-03T17:13:33Z</time>
      </trkpt>
      <trkpt lat="62.636934716018" lon="17.978163469394">
        <ele>72.4</ele>
        <time>2018-03-03T17:13:34Z</time>
      </trkpt>
      <trkpt lat="62.636923148996" lon="17.978223986712">
        <ele>72.4</ele>
        <time>2018-03-03T17:13:35Z</time>
      </trkpt>
      <trkpt lat="62.636911162879" lon="17.978269751886">
        <ele>72.4</ele>
        <time>2018-03-03T17:13:36Z</time>
      </trkpt>
      <trkpt lat="62.636896075459" lon="17.978324653331">
        <ele>72.4</ele>
        <time>2018-03-03T17:13:37Z</time>
      </trkpt>
      <trkpt lat="62.636887777378" lon="17.978373268351">
        <ele>72.4</ele>
        <time>2018-03-03T17:13:38Z</time>
      </trkpt>
      <trkpt lat="62.636870426845" lon="17.978426828692">
        <ele>72.6</ele>
        <time>2018-03-03T17:13:39Z</time>
      </trkpt>
      <trkpt lat="62.636853076312" lon="17.978478461196">
        <ele>72.6</ele>
        <time>2018-03-03T17:13:40Z</time>
      </trkpt>
      <trkpt lat="62.63683815653" lon="17.978526154207">
        <ele>72.6</ele>
        <time>2018-03-03T17:13:41Z</time>
      </trkpt>
      <trkpt lat="62.636817453237" lon="17.978569907725">
        <ele>72.8</ele>
        <time>2018-03-03T17:13:42Z</time>
      </trkpt>
      <trkpt lat="62.636797252858" lon="17.978604022058">
        <ele>73</ele>
        <time>2018-03-03T17:13:43Z</time>
      </trkpt>
      <trkpt lat="62.636782500714" lon="17.978642075884">
        <ele>73</ele>
        <time>2018-03-03T17:13:44Z</time>
      </trkpt>
      <trkpt lat="62.636758863756" lon="17.978680548805">
        <ele>73.2</ele>
        <time>2018-03-03T17:13:45Z</time>
      </trkpt>
      <trkpt lat="62.636738747196" lon="17.978706197419">
        <ele>73.2</ele>
        <time>2018-03-03T17:13:46Z</time>
      </trkpt>
      <trkpt lat="62.636713517677" lon="17.978724386142">
        <ele>73.2</ele>
        <time>2018-03-03T17:13:47Z</time>
      </trkpt>
      <trkpt lat="62.636688539615" lon="17.978733522413">
        <ele>73.4</ele>
        <time>2018-03-03T17:13:48Z</time>
      </trkpt>
      <trkpt lat="62.636662555725" lon="17.978755650629">
        <ele>73.4</ele>
        <time>2018-03-03T17:13:49Z</time>
      </trkpt>
      <trkpt lat="62.636635985102" lon="17.978761098864">
        <ele>73.6</ele>
        <time>2018-03-03T17:13:50Z</time>
      </trkpt>
      <trkpt lat="62.636608324832" lon="17.978761015045">
        <ele>73.6</ele>
        <time>2018-03-03T17:13:51Z</time>
      </trkpt>
      <trkpt lat="62.636585526064" lon="17.978761601778">
        <ele>73.8</ele>
        <time>2018-03-03T17:13:52Z</time>
      </trkpt>
      <trkpt lat="62.636557111423" lon="17.978757494647">
        <ele>74</ele>
        <time>2018-03-03T17:13:53Z</time>
      </trkpt>
      <trkpt lat="62.636525344022" lon="17.978756153543">
        <ele>74.2</ele>
        <time>2018-03-03T17:13:54Z</time>
      </trkpt>
      <trkpt lat="62.636501371788" lon="17.978760344493">
        <ele>74.2</ele>
        <time>2018-03-03T17:13:55Z</time>
      </trkpt>
      <trkpt lat="62.636471532224" lon="17.978762104692">
        <ele>74.4</ele>
        <time>2018-03-03T17:13:56Z</time>
      </trkpt>
      <trkpt lat="62.636443452859" lon="17.978769313126">
        <ele>74.4</ele>
        <time>2018-03-03T17:13:57Z</time>
      </trkpt>
      <trkpt lat="62.63642409067" lon="17.978779455225">
        <ele>74.6</ele>
        <time>2018-03-03T17:13:58Z</time>
      </trkpt>
      <trkpt lat="62.636399364065" lon="17.978789513505">
        <ele>74.8</ele>
        <time>2018-03-03T17:13:59Z</time>
      </trkpt>
      <trkpt lat="62.636376649116" lon="17.978800912889">
        <ele>74.8</ele>
        <time>2018-03-03T17:14:00Z</time>
      </trkpt>
      <trkpt lat="62.63635619728" lon="17.978817257594">
        <ele>75</ele>
        <time>2018-03-03T17:14:01Z</time>
      </trkpt>
      <trkpt lat="62.636340187851" lon="17.978831590643">
        <ele>75.2</ele>
        <time>2018-03-03T17:14:02Z</time>
      </trkpt>
      <trkpt lat="62.636325603345" lon="17.978846594244">
        <ele>75.2</ele>
        <time>2018-03-03T17:14:03Z</time>
      </trkpt>
      <trkpt lat="62.636302134025" lon="17.978855059963">
        <ele>75.6</ele>
        <time>2018-03-03T17:14:04Z</time>
      </trkpt>
      <trkpt lat="62.636284448216" lon="17.978874086876">
        <ele>76</ele>
        <time>2018-03-03T17:14:05Z</time>
      </trkpt>
      <trkpt lat="62.636261817086" lon="17.97889470635">
        <ele>76.4</ele>
        <time>2018-03-03T17:14:06Z</time>
      </trkpt>
      <trkpt lat="62.636240610879" lon="17.978918259489">
        <ele>77</ele>
        <time>2018-03-03T17:14:07Z</time>
      </trkpt>
      <trkpt lat="62.636226613106" lon="17.978938627506">
        <ele>77.4</ele>
        <time>2018-03-03T17:14:08Z</time>
      </trkpt>
      <trkpt lat="62.636210519858" lon="17.978960504265">
        <ele>77.6</ele>
        <time>2018-03-03T17:14:09Z</time>
      </trkpt>
      <trkpt lat="62.636197276456" lon="17.978981123739">
        <ele>77.8</ele>
        <time>2018-03-03T17:14:10Z</time>
      </trkpt>
      <trkpt lat="62.636182775769" lon="17.978998474272">
        <ele>78</ele>
        <time>2018-03-03T17:14:11Z</time>
      </trkpt>
      <trkpt lat="62.636173136584" lon="17.97901372933">
        <ele>78.2</ele>
        <time>2018-03-03T17:14:12Z</time>
      </trkpt>
      <trkpt lat="62.636162743028" lon="17.979033594433">
        <ele>78.4</ele>
        <time>2018-03-03T17:14:13Z</time>
      </trkpt>
      <trkpt lat="62.63614748797" lon="17.979055303554">
        <ele>78.6</ele>
        <time>2018-03-03T17:14:14Z</time>
      </trkpt>
      <trkpt lat="62.636132568188" lon="17.979079611064">
        <ele>78.8</ele>
        <time>2018-03-03T17:14:15Z</time>
      </trkpt>
      <trkpt lat="62.636119157148" lon="17.979099895262">
        <ele>79</ele>
        <time>2018-03-03T17:14:16Z</time>
      </trkpt>
      <trkpt lat="62.636103399176" lon="17.979123280763">
        <ele>79.2</ele>
        <time>2018-03-03T17:14:17Z</time>
      </trkpt>
      <trkpt lat="62.636093676172" lon="17.979146833902">
        <ele>79.6</ele>
        <time>2018-03-03T17:14:18Z</time>
      </trkpt>
      <trkpt lat="62.636079175485" lon="17.979181870244">
        <ele>79.8</ele>
        <time>2018-03-03T17:14:19Z</time>
      </trkpt>
      <trkpt lat="62.63606618354" lon="17.979221013717">
        <ele>80</ele>
        <time>2018-03-03T17:14:20Z</time>
      </trkpt>
      <trkpt lat="62.636054867975" lon="17.979261582113">
        <ele>80.2</ele>
        <time>2018-03-03T17:14:21Z</time>
      </trkpt>
      <trkpt lat="62.636046486075" lon="17.979306173821">
        <ele>80.8</ele>
        <time>2018-03-03T17:14:22Z</time>
      </trkpt>
      <trkpt lat="62.636035924881" lon="17.979357638687">
        <ele>81</ele>
        <time>2018-03-03T17:14:23Z</time>
      </trkpt>
      <trkpt lat="62.636021424194" lon="17.979416395806">
        <ele>81.2</ele>
        <time>2018-03-03T17:14:24Z</time>
      </trkpt>
      <trkpt lat="62.636009018982" lon="17.97947138107">
        <ele>81.4</ele>
        <time>2018-03-03T17:14:25Z</time>
      </trkpt>
      <trkpt lat="62.636004241299" lon="17.979531646931">
        <ele>81.4</ele>
        <time>2018-03-03T17:14:26Z</time>
      </trkpt>
      <trkpt lat="62.635992758096" lon="17.979624853659">
        <ele>81.6</ele>
        <time>2018-03-03T17:14:27Z</time>
      </trkpt>
      <trkpt lat="62.635981861626" lon="17.979721329328">
        <ele>81.6</ele>
        <time>2018-03-03T17:14:28Z</time>
      </trkpt>
      <trkpt lat="62.635983789463" lon="17.979764831389">
        <ele>81.4</ele>
        <time>2018-03-03T17:14:29Z</time>
      </trkpt>
      <trkpt lat="62.635995105028" lon="17.980282665171">
        <ele>80.8</ele>
        <time>2018-03-03T17:14:31Z</time>
      </trkpt>
      <trkpt lat="62.636009605715" lon="17.980402274884">
        <ele>80</ele>
        <time>2018-03-03T17:14:32Z</time>
      </trkpt>
      <trkpt lat="62.636028045895" lon="17.980535714732">
        <ele>78.8</ele>
        <time>2018-03-03T17:14:33Z</time>
      </trkpt>
      <trkpt lat="62.636042965677" lon="17.980644260337">
        <ele>77.2</ele>
        <time>2018-03-03T17:14:34Z</time>
      </trkpt>
      <trkpt lat="62.636062411685" lon="17.980765965525">
        <ele>76</ele>
        <time>2018-03-03T17:14:35Z</time>
      </trkpt>
      <trkpt lat="62.636081606236" lon="17.980877947709">
        <ele>75</ele>
        <time>2018-03-03T17:14:36Z</time>
      </trkpt>
      <trkpt lat="62.636098202398" lon="17.980978195233">
        <ele>74.6</ele>
        <time>2018-03-03T17:14:37Z</time>
      </trkpt>
      <trkpt lat="62.636117899863" lon="17.981090261236">
        <ele>74.4</ele>
        <time>2018-03-03T17:14:38Z</time>
      </trkpt>
      <trkpt lat="62.636135669491" lon="17.981196459909">
        <ele>74.2</ele>
        <time>2018-03-03T17:14:39Z</time>
      </trkpt>
      <trkpt lat="62.636147739427" lon="17.981301317478">
        <ele>74</ele>
        <time>2018-03-03T17:14:40Z</time>
      </trkpt>
      <trkpt lat="62.636165509055" lon="17.98141849644">
        <ele>73.8</ele>
        <time>2018-03-03T17:14:41Z</time>
      </trkpt>
      <trkpt lat="62.636175567335" lon="17.981513044272">
        <ele>73.8</ele>
        <time>2018-03-03T17:14:42Z</time>
      </trkpt>
      <trkpt lat="62.636195348619" lon="17.981598623471">
        <ele>73.8</ele>
        <time>2018-03-03T17:14:43Z</time>
      </trkpt>
      <trkpt lat="62.636210855134" lon="17.981682358652">
        <ele>73.8</ele>
        <time>2018-03-03T17:14:44Z</time>
      </trkpt>
      <trkpt lat="62.6362204105" lon="17.981769865688">
        <ele>74</ele>
        <time>2018-03-03T17:14:45Z</time>
      </trkpt>
      <trkpt lat="62.636230133504" lon="17.981832729938">
        <ele>74</ele>
        <time>2018-03-03T17:14:46Z</time>
      </trkpt>
      <trkpt lat="62.636239102137" lon="17.981912274169">
        <ele>74.2</ele>
        <time>2018-03-03T17:14:47Z</time>
      </trkpt>
      <trkpt lat="62.636255027747" lon="17.981983771776">
        <ele>74.4</ele>
        <time>2018-03-03T17:14:48Z</time>
      </trkpt>
      <trkpt lat="62.63626734914" lon="17.982064238016">
        <ele>74.6</ele>
        <time>2018-03-03T17:14:49Z</time>
      </trkpt>
      <trkpt lat="62.636277155963" lon="17.982136238537">
        <ele>74.6</ele>
        <time>2018-03-03T17:14:50Z</time>
      </trkpt>
      <trkpt lat="62.636284448216" lon="17.982206478859">
        <ele>74.4</ele>
        <time>2018-03-03T17:14:51Z</time>
      </trkpt>
      <trkpt lat="62.636285705501" lon="17.98226339196">
        <ele>74.4</ele>
        <time>2018-03-03T17:14:52Z</time>
      </trkpt>
      <trkpt lat="62.636287884795" lon="17.982347713874">
        <ele>74.4</ele>
        <time>2018-03-03T17:14:53Z</time>
      </trkpt>
      <trkpt lat="62.63628578932" lon="17.982414852893">
        <ele>74.4</ele>
        <time>2018-03-03T17:14:54Z</time>
      </trkpt>
      <trkpt lat="62.636282855655" lon="17.9824863505">
        <ele>74.4</ele>
        <time>2018-03-03T17:14:55Z</time>
      </trkpt>
      <trkpt lat="62.636285705501" lon="17.982543095963">
        <ele>74.4</ele>
        <time>2018-03-03T17:14:56Z</time>
      </trkpt>
      <trkpt lat="62.636283442388" lon="17.98260956443">
        <ele>74.4</ele>
        <time>2018-03-03T17:14:57Z</time>
      </trkpt>
      <trkpt lat="62.636282520379" lon="17.982682570779">
        <ele>74.4</ele>
        <time>2018-03-03T17:14:58Z</time>
      </trkpt>
      <trkpt lat="62.636283693845" lon="17.982748284875">
        <ele>74.6</ele>
        <time>2018-03-03T17:14:59Z</time>
      </trkpt>
      <trkpt lat="62.63628159837" lon="17.98281827374">
        <ele>74.6</ele>
        <time>2018-03-03T17:15:00Z</time>
      </trkpt>
      <trkpt lat="62.636291489012" lon="17.982874851565">
        <ele>74.6</ele>
        <time>2018-03-03T17:15:01Z</time>
      </trkpt>
      <trkpt lat="62.636295260867" lon="17.982932938132">
        <ele>74.6</ele>
        <time>2018-03-03T17:15:02Z</time>
      </trkpt>
      <trkpt lat="62.636298781265" lon="17.983001166798">
        <ele>74.6</ele>
        <time>2018-03-03T17:15:03Z</time>
      </trkpt>
      <trkpt lat="62.636301212016" lon="17.98305045237">
        <ele>74.6</ele>
        <time>2018-03-03T17:15:04Z</time>
      </trkpt>
      <trkpt lat="62.636299954731" lon="17.983116585561">
        <ele>74.6</ele>
        <time>2018-03-03T17:15:05Z</time>
      </trkpt>
      <trkpt lat="62.636302888396" lon="17.983181545286">
        <ele>74.6</ele>
        <time>2018-03-03T17:15:06Z</time>
      </trkpt>
      <trkpt lat="62.636300457645" lon="17.983240553862">
        <ele>74.6</ele>
        <time>2018-03-03T17:15:07Z</time>
      </trkpt>
      <trkpt lat="62.636297104885" lon="17.983307944338">
        <ele>74.6</ele>
        <time>2018-03-03T17:15:08Z</time>
      </trkpt>
      <trkpt lat="62.636302301663" lon="17.983357984281">
        <ele>74.8</ele>
        <time>2018-03-03T17:15:09Z</time>
      </trkpt>
      <trkpt lat="62.636302972215" lon="17.98341087407">
        <ele>74.8</ele>
        <time>2018-03-03T17:15:10Z</time>
      </trkpt>
      <trkpt lat="62.636297943075" lon="17.98346870918">
        <ele>74.8</ele>
        <time>2018-03-03T17:15:11Z</time>
      </trkpt>
      <trkpt lat="62.636289561175" lon="17.983513049431">
        <ele>74.8</ele>
        <time>2018-03-03T17:15:12Z</time>
      </trkpt>
      <trkpt lat="62.636280592542" lon="17.983563089374">
        <ele>75</ele>
        <time>2018-03-03T17:15:13Z</time>
      </trkpt>
      <trkpt lat="62.636272965013" lon="17.983615811525">
        <ele>75.2</ele>
        <time>2018-03-03T17:15:14Z</time>
      </trkpt>
      <trkpt lat="62.636260727439" lon="17.983663755993">
        <ele>75.4</ele>
        <time>2018-03-03T17:15:15Z</time>
      </trkpt>
      <trkpt lat="62.636249495693" lon="17.983711868099">
        <ele>75.4</ele>
        <time>2018-03-03T17:15:16Z</time>
      </trkpt>
      <trkpt lat="62.63623968887" lon="17.983766434268">
        <ele>75.6</ele>
        <time>2018-03-03T17:15:17Z</time>
      </trkpt>
      <trkpt lat="62.636233570083" lon="17.983818066772">
        <ele>75.6</ele>
        <time>2018-03-03T17:15:18Z</time>
      </trkpt>
      <trkpt lat="62.636225691097" lon="17.983873219674">
        <ele>75.8</ele>
        <time>2018-03-03T17:15:19Z</time>
      </trkpt>
      <trkpt lat="62.636219069396" lon="17.983928959309">
        <ele>75.8</ele>
        <time>2018-03-03T17:15:20Z</time>
      </trkpt>
      <trkpt lat="62.636213453523" lon="17.983988303161">
        <ele>76.2</ele>
        <time>2018-03-03T17:15:21Z</time>
      </trkpt>
      <trkpt lat="62.636206915641" lon="17.984033733059">
        <ele>76.2</ele>
        <time>2018-03-03T17:15:22Z</time>
      </trkpt>
      <trkpt lat="62.636207250917" lon="17.984099111879">
        <ele>76.2</ele>
        <time>2018-03-03T17:15:23Z</time>
      </trkpt>
      <trkpt lat="62.636201718863" lon="17.984151666392">
        <ele>76.2</ele>
        <time>2018-03-03T17:15:24Z</time>
      </trkpt>
      <trkpt lat="62.636195935352" lon="17.984209752959">
        <ele>76.4</ele>
        <time>2018-03-03T17:15:25Z</time>
      </trkpt>
      <trkpt lat="62.636191660583" lon="17.984258200341">
        <ele>76.4</ele>
        <time>2018-03-03T17:15:26Z</time>
      </trkpt>
      <trkpt lat="62.636183027226" lon="17.98430941375">
        <ele>76.4</ele>
        <time>2018-03-03T17:15:27Z</time>
      </trkpt>
      <trkpt lat="62.636179506828" lon="17.984371942724">
        <ele>76.6</ele>
        <time>2018-03-03T17:15:28Z</time>
      </trkpt>
      <trkpt lat="62.636170370557" lon="17.984422820857">
        <ele>76.6</ele>
        <time>2018-03-03T17:15:29Z</time>
      </trkpt>
      <trkpt lat="62.636160396096" lon="17.984474788637">
        <ele>76.6</ele>
        <time>2018-03-03T17:15:30Z</time>
      </trkpt>
      <trkpt lat="62.636153020024" lon="17.984525415313">
        <ele>76.6</ele>
        <time>2018-03-03T17:15:31Z</time>
      </trkpt>
      <trkpt lat="62.636148996712" lon="17.984573108324">
        <ele>76.8</ele>
        <time>2018-03-03T17:15:32Z</time>
      </trkpt>
      <trkpt lat="62.636140279536" lon="17.984626752484">
        <ele>76.8</ele>
        <time>2018-03-03T17:15:33Z</time>
      </trkpt>
      <trkpt lat="62.636140279536" lon="17.984671847106">
        <ele>76.8</ele>
        <time>2018-03-03T17:15:34Z</time>
      </trkpt>
      <trkpt lat="62.636139860441" lon="17.984725239809">
        <ele>77</ele>
        <time>2018-03-03T17:15:35Z</time>
      </trkpt>
      <trkpt lat="62.636136759138" lon="17.98478215291">
        <ele>77</ele>
        <time>2018-03-03T17:15:36Z</time>
      </trkpt>
      <trkpt lat="62.63613407693" lon="17.984824146229">
        <ele>77.2</ele>
        <time>2018-03-03T17:15:37Z</time>
      </trkpt>
      <trkpt lat="62.636127455229" lon="17.984883154805">
        <ele>77.4</ele>
        <time>2018-03-03T17:15:38Z</time>
      </trkpt>
      <trkpt lat="62.636122006994" lon="17.984939564992">
        <ele>77.6</ele>
        <time>2018-03-03T17:15:39Z</time>
      </trkpt>
      <trkpt lat="62.636118821872" lon="17.984991365134">
        <ele>77.6</ele>
        <time>2018-03-03T17:15:40Z</time>
      </trkpt>
      <trkpt lat="62.636115720569" lon="17.985047356226">
        <ele>77.8</ele>
        <time>2018-03-03T17:15:41Z</time>
      </trkpt>
      <trkpt lat="62.636114547103" lon="17.985092450848">
        <ele>77.8</ele>
        <time>2018-03-03T17:15:42Z</time>
      </trkpt>
      <trkpt lat="62.636114714741" lon="17.985150872691">
        <ele>78</ele>
        <time>2018-03-03T17:15:43Z</time>
      </trkpt>
      <trkpt lat="62.636110439972" lon="17.985210970914">
        <ele>78</ele>
        <time>2018-03-03T17:15:44Z</time>
      </trkpt>
      <trkpt lat="62.636109853239" lon="17.985260005029">
        <ele>78</ele>
        <time>2018-03-03T17:15:45Z</time>
      </trkpt>
      <trkpt lat="62.636105410832" lon="17.985313649189">
        <ele>78.2</ele>
        <time>2018-03-03T17:15:46Z</time>
      </trkpt>
      <trkpt lat="62.63610054933" lon="17.985375256154">
        <ele>78.2</ele>
        <time>2018-03-03T17:15:47Z</time>
      </trkpt>
      <trkpt lat="62.636097531846" lon="17.985427475391">
        <ele>78.2</ele>
        <time>2018-03-03T17:15:48Z</time>
      </trkpt>
      <trkpt lat="62.636096106923" lon="17.985486400148">
        <ele>78.2</ele>
        <time>2018-03-03T17:15:49Z</time>
      </trkpt>
      <trkpt lat="62.636093759991" lon="17.985543648525">
        <ele>78.2</ele>
        <time>2018-03-03T17:15:50Z</time>
      </trkpt>
      <trkpt lat="62.636089988136" lon="17.985599220522">
        <ele>78.4</ele>
        <time>2018-03-03T17:15:51Z</time>
      </trkpt>
      <trkpt lat="62.636085294272" lon="17.985643896049">
        <ele>78.4</ele>
        <time>2018-03-03T17:15:52Z</time>
      </trkpt>
      <trkpt lat="62.636072218508" lon="17.985710615973">
        <ele>78.6</ele>
        <time>2018-03-03T17:15:53Z</time>
      </trkpt>
      <trkpt lat="62.636056711993" lon="17.985758225165">
        <ele>78.6</ele>
        <time>2018-03-03T17:15:54Z</time>
      </trkpt>
      <trkpt lat="62.636041540754" lon="17.985804996167">
        <ele>78.6</ele>
        <time>2018-03-03T17:15:55Z</time>
      </trkpt>
      <trkpt lat="62.636021088918" lon="17.985845564563">
        <ele>78.8</ele>
        <time>2018-03-03T17:15:56Z</time>
      </trkpt>
      <trkpt lat="62.636004744213" lon="17.985879762715">
        <ele>79</ele>
        <time>2018-03-03T17:15:57Z</time>
      </trkpt>
      <trkpt lat="62.63598487911" lon="17.985913457953">
        <ele>79.2</ele>
        <time>2018-03-03T17:15:58Z</time>
      </trkpt>
      <trkpt lat="62.635962750894" lon="17.98594472244">
        <ele>79.2</ele>
        <time>2018-03-03T17:15:59Z</time>
      </trkpt>
      <trkpt lat="62.635943891619" lon="17.985970035778">
        <ele>79.4</ele>
        <time>2018-03-03T17:16:00Z</time>
      </trkpt>
      <trkpt lat="62.635924110335" lon="17.985994343288">
        <ele>79.6</ele>
        <time>2018-03-03T17:16:01Z</time>
      </trkpt>
      <trkpt lat="62.635904999603" lon="17.986021919739">
        <ele>79.8</ele>
        <time>2018-03-03T17:16:02Z</time>
      </trkpt>
      <trkpt lat="62.635880189179" lon="17.986034324951">
        <ele>79.8</ele>
        <time>2018-03-03T17:16:03Z</time>
      </trkpt>
      <trkpt lat="62.635859737343" lon="17.986052765131">
        <ele>80</ele>
        <time>2018-03-03T17:16:04Z</time>
      </trkpt>
      <trkpt lat="62.635837273851" lon="17.986073887519">
        <ele>80</ele>
        <time>2018-03-03T17:16:05Z</time>
      </trkpt>
      <trkpt lat="62.635810200314" lon="17.986101296332">
        <ele>80.2</ele>
        <time>2018-03-03T17:16:06Z</time>
      </trkpt>
      <trkpt lat="62.635788491193" lon="17.986129794792">
        <ele>80.4</ele>
        <time>2018-03-03T17:16:07Z</time>
      </trkpt>
      <trkpt lat="62.635765357149" lon="17.986155611044">
        <ele>80.4</ele>
        <time>2018-03-03T17:16:08Z</time>
      </trkpt>
      <trkpt lat="62.635751610833" lon="17.986163322392">
        <ele>80.4</ele>
        <time>2018-03-03T17:16:09Z</time>
      </trkpt>
      <trkpt lat="62.635741049639" lon="17.986184612418">
        <ele>80.6</ele>
        <time>2018-03-03T17:16:10Z</time>
      </trkpt>
      <trkpt lat="62.635726129857" lon="17.986219229665">
        <ele>80.6</ele>
        <time>2018-03-03T17:16:11Z</time>
      </trkpt>
      <trkpt lat="62.635710874799" lon="17.986243788632">
        <ele>80.6</ele>
        <time>2018-03-03T17:16:12Z</time>
      </trkpt>
      <trkpt lat="62.63569737994" lon="17.986281255725">
        <ele>80.6</ele>
        <time>2018-03-03T17:16:13Z</time>
      </trkpt>
      <trkpt lat="62.635680699959" lon="17.986320399198">
        <ele>80.8</ele>
        <time>2018-03-03T17:16:14Z</time>
      </trkpt>
      <trkpt lat="62.635662930331" lon="17.98637219934">
        <ele>81</ele>
        <time>2018-03-03T17:16:15Z</time>
      </trkpt>
      <trkpt lat="62.635644071056" lon="17.986411678089">
        <ele>81.2</ele>
        <time>2018-03-03T17:16:16Z</time>
      </trkpt>
      <trkpt lat="62.635626552885" lon="17.98645769472">
        <ele>81.4</ele>
        <time>2018-03-03T17:16:17Z</time>
      </trkpt>
      <trkpt lat="62.635607358334" lon="17.986506225921">
        <ele>81.6</ele>
        <time>2018-03-03T17:16:18Z</time>
      </trkpt>
      <trkpt lat="62.63559344438" lon="17.986552913104">
        <ele>81.8</ele>
        <time>2018-03-03T17:16:19Z</time>
      </trkpt>
      <trkpt lat="62.635580368616" lon="17.986596498984">
        <ele>82</ele>
        <time>2018-03-03T17:16:20Z</time>
      </trkpt>
      <trkpt lat="62.635565700291" lon="17.986643689081">
        <ele>82</ele>
        <time>2018-03-03T17:16:21Z</time>
      </trkpt>
      <trkpt lat="62.63555321126" lon="17.98668484421">
        <ele>81.8</ele>
        <time>2018-03-03T17:16:22Z</time>
      </trkpt>
      <trkpt lat="62.635541141324" lon="17.986727927176">
        <ele>82</ele>
        <time>2018-03-03T17:16:23Z</time>
      </trkpt>
      <trkpt lat="62.63552555099" lon="17.986770423409">
        <ele>82</ele>
        <time>2018-03-03T17:16:24Z</time>
      </trkpt>
      <trkpt lat="62.635513732511" lon="17.98681308728">
        <ele>82.2</ele>
        <time>2018-03-03T17:16:25Z</time>
      </trkpt>
      <trkpt lat="62.635496046702" lon="17.986862037576">
        <ele>82.4</ele>
        <time>2018-03-03T17:16:26Z</time>
      </trkpt>
      <trkpt lat="62.635483054757" lon="17.986907048379">
        <ele>82.6</ele>
        <time>2018-03-03T17:16:27Z</time>
      </trkpt>
      <trkpt lat="62.635465285129" lon="17.986952478277">
        <ele>82.8</ele>
        <time>2018-03-03T17:16:28Z</time>
      </trkpt>
      <trkpt lat="62.635444414198" lon="17.986996231795">
        <ele>82.8</ele>
        <time>2018-03-03T17:16:29Z</time>
      </trkpt>
      <trkpt lat="62.635428404769" lon="17.987035794363">
        <ele>83</ele>
        <time>2018-03-03T17:16:30Z</time>
      </trkpt>
      <trkpt lat="62.635410467503" lon="17.987074937836">
        <ele>83</ele>
        <time>2018-03-03T17:16:31Z</time>
      </trkpt>
      <trkpt lat="62.635395715359" lon="17.987113075481">
        <ele>83</ele>
        <time>2018-03-03T17:16:32Z</time>
      </trkpt>
      <trkpt lat="62.635375263523" lon="17.987152721868">
        <ele>83.2</ele>
        <time>2018-03-03T17:16:33Z</time>
      </trkpt>
      <trkpt lat="62.635360846655" lon="17.987190775694">
        <ele>83.2</ele>
        <time>2018-03-03T17:16:34Z</time>
      </trkpt>
      <trkpt lat="62.635343328484" lon="17.987226398769">
        <ele>83.4</ele>
        <time>2018-03-03T17:16:35Z</time>
      </trkpt>
      <trkpt lat="62.635322541372" lon="17.987269146459">
        <ele>83.6</ele>
        <time>2018-03-03T17:16:36Z</time>
      </trkpt>
      <trkpt lat="62.635305442296" lon="17.98730259024">
        <ele>83.6</ele>
        <time>2018-03-03T17:16:37Z</time>
      </trkpt>
      <trkpt lat="62.635284739003" lon="17.987346511396">
        <ele>83.6</ele>
        <time>2018-03-03T17:16:38Z</time>
      </trkpt>
      <trkpt lat="62.635268981031" lon="17.987387834163">
        <ele>83.6</ele>
        <time>2018-03-03T17:16:39Z</time>
      </trkpt>
      <trkpt lat="62.635250708489" lon="17.987423960152">
        <ele>83.8</ele>
        <time>2018-03-03T17:16:40Z</time>
      </trkpt>
      <trkpt lat="62.635230424291" lon="17.987466959299">
        <ele>83.8</ele>
        <time>2018-03-03T17:16:41Z</time>
      </trkpt>
      <trkpt lat="62.635210140093" lon="17.987501828003">
        <ele>84</ele>
        <time>2018-03-03T17:16:42Z</time>
      </trkpt>
      <trkpt lat="62.635185497307" lon="17.98753644525">
        <ele>84.2</ele>
        <time>2018-03-03T17:16:43Z</time>
      </trkpt>
      <trkpt lat="62.635169990792" lon="17.987571313954">
        <ele>84.4</ele>
        <time>2018-03-03T17:16:44Z</time>
      </trkpt>
      <trkpt lat="62.635151215336" lon="17.98760936778">
        <ele>84.4</ele>
        <time>2018-03-03T17:16:45Z</time>
      </trkpt>
      <trkpt lat="62.635131434052" lon="17.987645912864">
        <ele>84.6</ele>
        <time>2018-03-03T17:16:46Z</time>
      </trkpt>
      <trkpt lat="62.635110563121" lon="17.987676842075">
        <ele>84.6</ele>
        <time>2018-03-03T17:16:47Z</time>
      </trkpt>
      <trkpt lat="62.635094553692" lon="17.987712548969">
        <ele>84.8</ele>
        <time>2018-03-03T17:16:48Z</time>
      </trkpt>
      <trkpt lat="62.63507711934" lon="17.987743394361">
        <ele>85</ele>
        <time>2018-03-03T17:16:49Z</time>
      </trkpt>
      <trkpt lat="62.63505784097" lon="17.987772060459">
        <ele>85</ele>
        <time>2018-03-03T17:16:50Z</time>
      </trkpt>
      <trkpt lat="62.635039149333" lon="17.987807515896">
        <ele>85.2</ele>
        <time>2018-03-03T17:16:51Z</time>
      </trkpt>
      <trkpt lat="62.635021463524" lon="17.987834421795">
        <ele>85.2</ele>
        <time>2018-03-03T17:16:52Z</time>
      </trkpt>
      <trkpt lat="62.635000341136" lon="17.987875493105">
        <ele>85.6</ele>
        <time>2018-03-03T17:16:53Z</time>
      </trkpt>
      <trkpt lat="62.634977039454" lon="17.98790021971">
        <ele>85.6</ele>
        <time>2018-03-03T17:16:54Z</time>
      </trkpt>
      <trkpt lat="62.634956587618" lon="17.987932490025">
        <ele>85.6</ele>
        <time>2018-03-03T17:16:55Z</time>
      </trkpt>
      <trkpt lat="62.634935800506" lon="17.987958557734">
        <ele>85.6</ele>
        <time>2018-03-03T17:16:56Z</time>
      </trkpt>
      <trkpt lat="62.634914175204" lon="17.987978590475">
        <ele>85.8</ele>
        <time>2018-03-03T17:16:57Z</time>
      </trkpt>
      <trkpt lat="62.634893891006" lon="17.988003149442">
        <ele>86</ele>
        <time>2018-03-03T17:16:58Z</time>
      </trkpt>
      <trkpt lat="62.634868158573" lon="17.988025277658">
        <ele>86</ele>
        <time>2018-03-03T17:16:59Z</time>
      </trkpt>
      <trkpt lat="62.634846868547" lon="17.988035335938">
        <ele>86.2</ele>
        <time>2018-03-03T17:17:00Z</time>
      </trkpt>
      <trkpt lat="62.634820214105" lon="17.98804690296">
        <ele>86.4</ele>
        <time>2018-03-03T17:17:01Z</time>
      </trkpt>
      <trkpt lat="62.634799007898" lon="17.988061236009">
        <ele>86.6</ele>
        <time>2018-03-03T17:17:02Z</time>
      </trkpt>
      <trkpt lat="62.634773443103" lon="17.988071629565">
        <ele>86.8</ele>
        <time>2018-03-03T17:17:03Z</time>
      </trkpt>
      <trkpt lat="62.634752404534" lon="17.988080682017">
        <ele>87</ele>
        <time>2018-03-03T17:17:04Z</time>
      </trkpt>
      <trkpt lat="62.634725833911" lon="17.988092332858">
        <ele>87</ele>
        <time>2018-03-03T17:17:05Z</time>
      </trkpt>
      <trkpt lat="62.634701107306" lon="17.988108509925">
        <ele>87.2</ele>
        <time>2018-03-03T17:17:06Z</time>
      </trkpt>
      <trkpt lat="62.634674704321" lon="17.988126028096">
        <ele>87.2</ele>
        <time>2018-03-03T17:17:07Z</time>
      </trkpt>
      <trkpt lat="62.634650061535" lon="17.988140612602">
        <ele>87.4</ele>
        <time>2018-03-03T17:17:08Z</time>
      </trkpt>
      <trkpt lat="62.634624329102" lon="17.988146228475">
        <ele>87.4</ele>
        <time>2018-03-03T17:17:09Z</time>
      </trkpt>
      <trkpt lat="62.634598596669" lon="17.988156286755">
        <ele>87.6</ele>
        <time>2018-03-03T17:17:10Z</time>
      </trkpt>
      <trkpt lat="62.634570517304" lon="17.988156538212">
        <ele>87.6</ele>
        <time>2018-03-03T17:17:11Z</time>
      </trkpt>
      <trkpt lat="62.634549730192" lon="17.988160980619">
        <ele>87.8</ele>
        <time>2018-03-03T17:17:12Z</time>
      </trkpt>
      <trkpt lat="62.634519806809" lon="17.988168608148">
        <ele>87.8</ele>
        <time>2018-03-03T17:17:13Z</time>
      </trkpt>
      <trkpt lat="62.634493487643" lon="17.988182773559">
        <ele>88</ele>
        <time>2018-03-03T17:17:14Z</time>
      </trkpt>
      <trkpt lat="62.634467587572" lon="17.988193334753">
        <ele>88</ele>
        <time>2018-03-03T17:17:15Z</time>
      </trkpt>
      <trkpt lat="62.63444093313" lon="17.988202638662">
        <ele>88</ele>
        <time>2018-03-03T17:17:16Z</time>
      </trkpt>
      <trkpt lat="62.634413691955" lon="17.988204817956">
        <ele>88.2</ele>
        <time>2018-03-03T17:17:17Z</time>
      </trkpt>
      <trkpt lat="62.634383433296" lon="17.98820783544">
        <ele>88.2</ele>
        <time>2018-03-03T17:17:18Z</time>
      </trkpt>
      <trkpt lat="62.634358371415" lon="17.98821286458">
        <ele>88.2</ele>
        <time>2018-03-03T17:17:19Z</time>
      </trkpt>
      <trkpt lat="62.634331465516" lon="17.988213032218">
        <ele>88.2</ele>
        <time>2018-03-03T17:17:20Z</time>
      </trkpt>
      <trkpt lat="62.634302296504" lon="17.98821537915">
        <ele>88.2</ele>
        <time>2018-03-03T17:17:21Z</time>
      </trkpt>
      <trkpt lat="62.634279833012" lon="17.988214708598">
        <ele>88.4</ele>
        <time>2018-03-03T17:17:22Z</time>
      </trkpt>
      <trkpt lat="62.634242365919" lon="17.988220575928">
        <ele>88.6</ele>
        <time>2018-03-03T17:17:23Z</time>
      </trkpt>
      <trkpt lat="62.634212023441" lon="17.98821873191">
        <ele>88.6</ele>
        <time>2018-03-03T17:17:24Z</time>
      </trkpt>
      <trkpt lat="62.634180758954" lon="17.988209260363">
        <ele>88.8</ele>
        <time>2018-03-03T17:17:25Z</time>
      </trkpt>
      <trkpt lat="62.634151841399" lon="17.988200794644">
        <ele>88.8</ele>
        <time>2018-03-03T17:17:26Z</time>
      </trkpt>
      <trkpt lat="62.63412577369" lon="17.988188724708">
        <ele>88.8</ele>
        <time>2018-03-03T17:17:27Z</time>
      </trkpt>
      <trkpt lat="62.634095934126" lon="17.988175648944">
        <ele>88.8</ele>
        <time>2018-03-03T17:17:28Z</time>
      </trkpt>
      <trkpt lat="62.634064669639" lon="17.988151760529">
        <ele>88.6</ele>
        <time>2018-03-03T17:17:29Z</time>
      </trkpt>
      <trkpt lat="62.63403608736" lon="17.988141283154">
        <ele>88.8</ele>
        <time>2018-03-03T17:17:30Z</time>
      </trkpt>
      <trkpt lat="62.634009349099" lon="17.988114712531">
        <ele>88.8</ele>
        <time>2018-03-03T17:17:31Z</time>
      </trkpt>
      <trkpt lat="62.633980180087" lon="17.988097948731">
        <ele>89</ele>
        <time>2018-03-03T17:17:32Z</time>
      </trkpt>
      <trkpt lat="62.633951178713" lon="17.988087806632">
        <ele>89.2</ele>
        <time>2018-03-03T17:17:33Z</time>
      </trkpt>
      <trkpt lat="62.633925781556" lon="17.98807372504">
        <ele>89.2</ele>
        <time>2018-03-03T17:17:34Z</time>
      </trkpt>
      <trkpt lat="62.633898456562" lon="17.988056290688">
        <ele>89.4</ele>
        <time>2018-03-03T17:17:35Z</time>
      </trkpt>
      <trkpt lat="62.633873059405" lon="17.988031480264">
        <ele>89.6</ele>
        <time>2018-03-03T17:17:36Z</time>
      </trkpt>
      <trkpt lat="62.633848165162" lon="17.988012453351">
        <ele>89.6</ele>
        <time>2018-03-03T17:17:37Z</time>
      </trkpt>
      <trkpt lat="62.633817655046" lon="17.987988984031">
        <ele>89.6</ele>
        <time>2018-03-03T17:17:38Z</time>
      </trkpt>
      <trkpt lat="62.633793682812" lon="17.987976327362">
        <ele>89.8</ele>
        <time>2018-03-03T17:17:39Z</time>
      </trkpt>
      <trkpt lat="62.633767950379" lon="17.987954031508">
        <ele>89.8</ele>
        <time>2018-03-03T17:17:40Z</time>
      </trkpt>
      <trkpt lat="62.633739116643" lon="17.987922096469">
        <ele>89.8</ele>
        <time>2018-03-03T17:17:41Z</time>
      </trkpt>
      <trkpt lat="62.633716150237" lon="17.987897872778">
        <ele>90</ele>
        <time>2018-03-03T17:17:42Z</time>
      </trkpt>
      <trkpt lat="62.633681281533" lon="17.987861746789">
        <ele>90</ele>
        <time>2018-03-03T17:17:43Z</time>
      </trkpt>
      <trkpt lat="62.63365219634" lon="17.987835595261">
        <ele>90.2</ele>
        <time>2018-03-03T17:17:44Z</time>
      </trkpt>
      <trkpt lat="62.633630068124" lon="17.987815143425">
        <ele>90.2</ele>
        <time>2018-03-03T17:17:45Z</time>
      </trkpt>
      <trkpt lat="62.633610203021" lon="17.987787315517">
        <ele>90.4</ele>
        <time>2018-03-03T17:17:46Z</time>
      </trkpt>
      <trkpt lat="62.6335884939" lon="17.987760661075">
        <ele>90.6</ele>
        <time>2018-03-03T17:17:47Z</time>
      </trkpt>
      <trkpt lat="62.633566449503" lon="17.987729899502">
        <ele>90.8</ele>
        <time>2018-03-03T17:17:48Z</time>
      </trkpt>
      <trkpt lat="62.633545578572" lon="17.987696204264">
        <ele>91</ele>
        <time>2018-03-03T17:17:49Z</time>
      </trkpt>
      <trkpt lat="62.633525210555" lon="17.987668543994">
        <ele>91.4</ele>
        <time>2018-03-03T17:17:50Z</time>
      </trkpt>
      <trkpt lat="62.633503249977" lon="17.987630154892">
        <ele>91.6</ele>
        <time>2018-03-03T17:17:51Z</time>
      </trkpt>
      <trkpt lat="62.633483049598" lon="17.987605009192">
        <ele>91.6</ele>
        <time>2018-03-03T17:17:52Z</time>
      </trkpt>
      <trkpt lat="62.633455054052" lon="17.987567961194">
        <ele>91.6</ele>
        <time>2018-03-03T17:17:53Z</time>
      </trkpt>
      <trkpt lat="62.633432842017" lon="17.987530242644">
        <ele>91.8</ele>
        <time>2018-03-03T17:17:54Z</time>
      </trkpt>
      <trkpt lat="62.633414318018" lon="17.987502833831">
        <ele>92</ele>
        <time>2018-03-03T17:17:55Z</time>
      </trkpt>
      <trkpt lat="62.633396464571" lon="17.987472910448">
        <ele>92</ele>
        <time>2018-03-03T17:17:56Z</time>
      </trkpt>
      <trkpt lat="62.633385232825" lon="17.987440137219">
        <ele>92.2</ele>
        <time>2018-03-03T17:17:57Z</time>
      </trkpt>
      <trkpt lat="62.633370229224" lon="17.987402167212">
        <ele>92.2</ele>
        <time>2018-03-03T17:17:58Z</time>
      </trkpt>
      <trkpt lat="62.63335463889" lon="17.987356737314">
        <ele>92.6</ele>
        <time>2018-03-03T17:17:59Z</time>
      </trkpt>
      <trkpt lat="62.633338378004" lon="17.987320778963">
        <ele>92.6</ele>
        <time>2018-03-03T17:18:00Z</time>
      </trkpt>
      <trkpt lat="62.633310047182" lon="17.987262943853">
        <ele>92.8</ele>
        <time>2018-03-03T17:18:01Z</time>
      </trkpt>
      <trkpt lat="62.63328423093" lon="17.987199325232">
        <ele>93</ele>
        <time>2018-03-03T17:18:02Z</time>
      </trkpt>
      <trkpt lat="62.633253972271" lon="17.987100921726">
        <ele>93</ele>
        <time>2018-03-03T17:18:03Z</time>
      </trkpt>
      <trkpt lat="62.633231508779" lon="17.986999081641">
        <ele>92.8</ele>
        <time>2018-03-03T17:18:04Z</time>
      </trkpt>
      <trkpt lat="62.633210805486" lon="17.986879723385">
        <ele>92.4</ele>
        <time>2018-03-03T17:18:05Z</time>
      </trkpt>
      <trkpt lat="62.633196723894" lon="17.986774614359">
        <ele>91.6</ele>
        <time>2018-03-03T17:18:06Z</time>
      </trkpt>
      <trkpt lat="62.633184989234" lon="17.986676210853">
        <ele>90.8</ele>
        <time>2018-03-03T17:18:07Z</time>
      </trkpt>
      <trkpt lat="62.63317694261" lon="17.986569425447">
        <ele>89.8</ele>
        <time>2018-03-03T17:18:08Z</time>
      </trkpt>
      <trkpt lat="62.633164788855" lon="17.986477895099">
        <ele>89.2</ele>
        <time>2018-03-03T17:18:09Z</time>
      </trkpt>
      <trkpt lat="62.63315514967" lon="17.986392651176">
        <ele>89.2</ele>
        <time>2018-03-03T17:18:10Z</time>
      </trkpt>
      <trkpt lat="62.633145426666" lon="17.986291397824">
        <ele>89.4</ele>
        <time>2018-03-03T17:18:11Z</time>
      </trkpt>
      <trkpt lat="62.633142660639" lon="17.986192910499">
        <ele>89.6</ele>
        <time>2018-03-03T17:18:12Z</time>
      </trkpt>
      <trkpt lat="62.633143331191" lon="17.986057207538">
        <ele>89.6</ele>
        <time>2018-03-03T17:18:13Z</time>
      </trkpt>
      <trkpt lat="62.633144588476" lon="17.985941118223">
        <ele>89.2</ele>
        <time>2018-03-03T17:18:14Z</time>
      </trkpt>
      <trkpt lat="62.633145426666" lon="17.985824525994">
        <ele>89</ele>
        <time>2018-03-03T17:18:15Z</time>
      </trkpt>
      <trkpt lat="62.633148527969" lon="17.985720758072">
        <ele>88.2</ele>
        <time>2018-03-03T17:18:16Z</time>
      </trkpt>
      <trkpt lat="62.633150539625" lon="17.985619588539">
        <ele>87.6</ele>
        <time>2018-03-03T17:18:17Z</time>
      </trkpt>
      <trkpt lat="62.633151461634" lon="17.9855205983">
        <ele>87.2</ele>
        <time>2018-03-03T17:18:18Z</time>
      </trkpt>
      <trkpt lat="62.633154143842" lon="17.985430492875">
        <ele>87</ele>
        <time>2018-03-03T17:18:19Z</time>
      </trkpt>
      <trkpt lat="62.633160849362" lon="17.985332257007">
        <ele>87</ele>
        <time>2018-03-03T17:18:20Z</time>
      </trkpt>
      <trkpt lat="62.633171494375" lon="17.985213066389">
        <ele>87</ele>
        <time>2018-03-03T17:18:21Z</time>
      </trkpt>
      <trkpt lat="62.633181385017" lon="17.985105526612">
        <ele>87</ele>
        <time>2018-03-03T17:18:22Z</time>
      </trkpt>
      <trkpt lat="62.633200579568" lon="17.984951383471">
        <ele>87.2</ele>
        <time>2018-03-03T17:18:23Z</time>
      </trkpt>
      <trkpt lat="62.633219103567" lon="17.984822805125">
        <ele>87.2</ele>
        <time>2018-03-03T17:18:24Z</time>
      </trkpt>
      <trkpt lat="62.63323980686" lon="17.984701099937">
        <ele>86.6</ele>
        <time>2018-03-03T17:18:25Z</time>
      </trkpt>
      <trkpt lat="62.633261348343" lon="17.984594230712">
        <ele>85.8</ele>
        <time>2018-03-03T17:18:26Z</time>
      </trkpt>
      <trkpt lat="62.633280794351" lon="17.984509489703">
        <ele>85.2</ele>
        <time>2018-03-03T17:18:27Z</time>
      </trkpt>
      <trkpt lat="62.633303844576" lon="17.984410667102">
        <ele>84.2</ele>
        <time>2018-03-03T17:18:28Z</time>
      </trkpt>
      <trkpt lat="62.633323709679" lon="17.984323998256">
        <ele>83.6</ele>
        <time>2018-03-03T17:18:29Z</time>
      </trkpt>
      <trkpt lat="62.633338042728" lon="17.9842465495">
        <ele>83.4</ele>
        <time>2018-03-03T17:18:30Z</time>
      </trkpt>
      <trkpt lat="62.633337623633" lon="17.984183349974">
        <ele>83.8</ele>
        <time>2018-03-03T17:18:31Z</time>
      </trkpt>
      <trkpt lat="62.633339970565" lon="17.98411160091">
        <ele>84.2</ele>
        <time>2018-03-03T17:18:32Z</time>
      </trkpt>
      <trkpt lat="62.633345754076" lon="17.984038175466">
        <ele>84.4</ele>
        <time>2018-03-03T17:18:33Z</time>
      </trkpt>
      <trkpt lat="62.633343993877" lon="17.983980507994">
        <ele>84.8</ele>
        <time>2018-03-03T17:18:34Z</time>
      </trkpt>
      <trkpt lat="62.633351537587" lon="17.983904232704">
        <ele>85</ele>
        <time>2018-03-03T17:18:35Z</time>
      </trkpt>
      <trkpt lat="62.633359248935" lon="17.983832064545">
        <ele>85</ele>
        <time>2018-03-03T17:18:36Z</time>
      </trkpt>
      <trkpt lat="62.633364110437" lon="17.983769535571">
        <ele>85</ele>
        <time>2018-03-03T17:18:37Z</time>
      </trkpt>
      <trkpt lat="62.633377353839" lon="17.983690997168">
        <ele>85</ele>
        <time>2018-03-03T17:18:38Z</time>
      </trkpt>
      <trkpt lat="62.633390010508" lon="17.983626791814">
        <ele>85</ele>
        <time>2018-03-03T17:18:39Z</time>
      </trkpt>
      <trkpt lat="62.63339990115" lon="17.983569962532">
        <ele>85</ele>
        <time>2018-03-03T17:18:40Z</time>
      </trkpt>
      <trkpt lat="62.633421107357" lon="17.983512127422">
        <ele>85.2</ele>
        <time>2018-03-03T17:18:41Z</time>
      </trkpt>
      <trkpt lat="62.633436949148" lon="17.9834670328">
        <ele>85.2</ele>
        <time>2018-03-03T17:18:42Z</time>
      </trkpt>
      <trkpt lat="62.633455305509" lon="17.983386147465">
        <ele>85.2</ele>
        <time>2018-03-03T17:18:43Z</time>
      </trkpt>
      <trkpt lat="62.633467040169" lon="17.983314063125">
        <ele>85.2</ele>
        <time>2018-03-03T17:18:44Z</time>
      </trkpt>
      <trkpt lat="62.63348372015" lon="17.983251450332">
        <ele>85.4</ele>
        <time>2018-03-03T17:18:45Z</time>
      </trkpt>
      <trkpt lat="62.633501908873" lon="17.983190346281">
        <ele>85.4</ele>
        <time>2018-03-03T17:18:46Z</time>
      </trkpt>
      <trkpt lat="62.633517750664" lon="17.983125805651">
        <ele>85.4</ele>
        <time>2018-03-03T17:18:47Z</time>
      </trkpt>
      <trkpt lat="62.633534933559" lon="17.983057660804">
        <ele>85.2</ele>
        <time>2018-03-03T17:18:48Z</time>
      </trkpt>
      <trkpt lat="62.63354826078" lon="17.982990521785">
        <ele>85.2</ele>
        <time>2018-03-03T17:18:49Z</time>
      </trkpt>
      <trkpt lat="62.633555133938" lon="17.982925142965">
        <ele>85.4</ele>
        <time>2018-03-03T17:18:50Z</time>
      </trkpt>
      <trkpt lat="62.633574663765" lon="17.982853812996">
        <ele>85.4</ele>
        <time>2018-03-03T17:18:51Z</time>
      </trkpt>
      <trkpt lat="62.63359100847" lon="17.982809556564">
        <ele>85.2</ele>
        <time>2018-03-03T17:18:52Z</time>
      </trkpt>
      <trkpt lat="62.633605425338" lon="17.98274283664">
        <ele>85.4</ele>
        <time>2018-03-03T17:18:53Z</time>
      </trkpt>
      <trkpt lat="62.633617914369" lon="17.98268081058">
        <ele>85.4</ele>
        <time>2018-03-03T17:18:54Z</time>
      </trkpt>
      <trkpt lat="62.633624787527" lon="17.982622472556">
        <ele>85.4</ele>
        <time>2018-03-03T17:18:55Z</time>
      </trkpt>
      <trkpt lat="62.633633504703" lon="17.982560614134">
        <ele>85.2</ele>
        <time>2018-03-03T17:18:56Z</time>
      </trkpt>
      <trkpt lat="62.633645909915" lon="17.982498588074">
        <ele>85.2</ele>
        <time>2018-03-03T17:18:57Z</time>
      </trkpt>
      <trkpt lat="62.633646999562" lon="17.982439160403">
        <ele>85.4</ele>
        <time>2018-03-03T17:18:58Z</time>
      </trkpt>
      <trkpt lat="62.633657560756" lon="17.982368836262">
        <ele>85.4</ele>
        <time>2018-03-03T17:18:59Z</time>
      </trkpt>
      <trkpt lat="62.633663595724" lon="17.982292225696">
        <ele>85.4</ele>
        <time>2018-03-03T17:19:00Z</time>
      </trkpt>
      <trkpt lat="62.633671223253" lon="17.982217040053">
        <ele>85.4</ele>
        <time>2018-03-03T17:19:01Z</time>
      </trkpt>
      <trkpt lat="62.633680443343" lon="17.982149817215">
        <ele>85.4</ele>
        <time>2018-03-03T17:19:02Z</time>
      </trkpt>
      <trkpt lat="62.633682119723" lon="17.982086030956">
        <ele>85.6</ele>
        <time>2018-03-03T17:19:03Z</time>
      </trkpt>
      <trkpt lat="62.633688657605" lon="17.98202031686">
        <ele>85.6</ele>
        <time>2018-03-03T17:19:04Z</time>
      </trkpt>
      <trkpt lat="62.633693435288" lon="17.981961308284">
        <ele>85.6</ele>
        <time>2018-03-03T17:19:05Z</time>
      </trkpt>
      <trkpt lat="62.633693770564" lon="17.981905149554">
        <ele>85.6</ele>
        <time>2018-03-03T17:19:06Z</time>
      </trkpt>
      <trkpt lat="62.633697877695" lon="17.981853265593">
        <ele>85.8</ele>
        <time>2018-03-03T17:19:07Z</time>
      </trkpt>
      <trkpt lat="62.633697374781" lon="17.981790568981">
        <ele>85.8</ele>
        <time>2018-03-03T17:19:08Z</time>
      </trkpt>
      <trkpt lat="62.633698464428" lon="17.981731308948">
        <ele>85.8</ele>
        <time>2018-03-03T17:19:09Z</time>
      </trkpt>
      <trkpt lat="62.63370667869" lon="17.981653944011">
        <ele>86</ele>
        <time>2018-03-03T17:19:10Z</time>
      </trkpt>
      <trkpt lat="62.633709528536" lon="17.981589403381">
        <ele>86</ele>
        <time>2018-03-03T17:19:11Z</time>
      </trkpt>
      <trkpt lat="62.633707935975" lon="17.9815308139">
        <ele>85.8</ele>
        <time>2018-03-03T17:19:12Z</time>
      </trkpt>
      <trkpt lat="62.633733668408" lon="17.981455041524">
        <ele>86</ele>
        <time>2018-03-03T17:19:13Z</time>
      </trkpt>
      <trkpt lat="62.633747414724" lon="17.981395194758">
        <ele>86</ele>
        <time>2018-03-03T17:19:14Z</time>
      </trkpt>
      <trkpt lat="62.633768118017" lon="17.981349261946">
        <ele>86.2</ele>
        <time>2018-03-03T17:19:15Z</time>
      </trkpt>
      <trkpt lat="62.633792760803" lon="17.981290923922">
        <ele>86</ele>
        <time>2018-03-03T17:19:16Z</time>
      </trkpt>
      <trkpt lat="62.633805668929" lon="17.98123996197">
        <ele>86</ele>
        <time>2018-03-03T17:19:17Z</time>
      </trkpt>
      <trkpt lat="62.633823438557" lon="17.981181623946">
        <ele>86</ele>
        <time>2018-03-03T17:19:18Z</time>
      </trkpt>
      <trkpt lat="62.633840202357" lon="17.981133595659">
        <ele>86</ele>
        <time>2018-03-03T17:19:19Z</time>
      </trkpt>
      <trkpt lat="62.633854367768" lon="17.981084729182">
        <ele>86</ele>
        <time>2018-03-03T17:19:20Z</time>
      </trkpt>
      <trkpt lat="62.633867946446" lon="17.981041646216">
        <ele>86</ele>
        <time>2018-03-03T17:19:21Z</time>
      </trkpt>
      <trkpt lat="62.633888230644" lon="17.980993198834">
        <ele>86</ele>
        <time>2018-03-03T17:19:22Z</time>
      </trkpt>
      <trkpt lat="62.633903737159" lon="17.980952630438">
        <ele>86.2</ele>
        <time>2018-03-03T17:19:23Z</time>
      </trkpt>
      <trkpt lat="62.63392125533" lon="17.980898064269">
        <ele>86.2</ele>
        <time>2018-03-03T17:19:24Z</time>
      </trkpt>
      <trkpt lat="62.633939527872" lon="17.98084433629">
        <ele>86.6</ele>
        <time>2018-03-03T17:19:25Z</time>
      </trkpt>
      <trkpt lat="62.633953190369" lon="17.980792033234">
        <ele>86.8</ele>
        <time>2018-03-03T17:19:26Z</time>
      </trkpt>
      <trkpt lat="62.633965092667" lon="17.98074878263">
        <ele>86.8</ele>
        <time>2018-03-03T17:19:27Z</time>
      </trkpt>
      <trkpt lat="62.633979006621" lon="17.980679883412">
        <ele>87</ele>
        <time>2018-03-03T17:19:28Z</time>
      </trkpt>
      <trkpt lat="62.63399836881" lon="17.980624814329">
        <ele>87</ele>
        <time>2018-03-03T17:19:29Z</time>
      </trkpt>
      <trkpt lat="62.634014964972" lon="17.980568236504">
        <ele>87</ele>
        <time>2018-03-03T17:19:30Z</time>
      </trkpt>
      <trkpt lat="62.634028795107" lon="17.980519453846">
        <ele>87</ele>
        <time>2018-03-03T17:19:31Z</time>
      </trkpt>
      <trkpt lat="62.634045475088" lon="17.98047217993">
        <ele>87</ele>
        <time>2018-03-03T17:19:32Z</time>
      </trkpt>
      <trkpt lat="62.634065507829" lon="17.980427001489">
        <ele>87.2</ele>
        <time>2018-03-03T17:19:33Z</time>
      </trkpt>
      <trkpt lat="62.634088306597" lon="17.980373524967">
        <ele>87.2</ele>
        <time>2018-03-03T17:19:34Z</time>
      </trkpt>
      <trkpt lat="62.634111273003" lon="17.980323568843">
        <ele>87.2</ele>
        <time>2018-03-03T17:19:35Z</time>
      </trkpt>
      <trkpt lat="62.634132395391" lon="17.980280150601">
        <ele>87.4</ele>
        <time>2018-03-03T17:19:36Z</time>
      </trkpt>
      <trkpt lat="62.634153014865" lon="17.980235977988">
        <ele>87.4</ele>
        <time>2018-03-03T17:19:37Z</time>
      </trkpt>
      <trkpt lat="62.63418193242" lon="17.980179735439">
        <ele>87.4</ele>
        <time>2018-03-03T17:19:38Z</time>
      </trkpt>
      <trkpt lat="62.634201713704" lon="17.980143022717">
        <ele>87.4</ele>
        <time>2018-03-03T17:19:39Z</time>
      </trkpt>
      <trkpt lat="62.6342255183" lon="17.980095497344">
        <ele>87.4</ele>
        <time>2018-03-03T17:19:40Z</time>
      </trkpt>
      <trkpt lat="62.634241360091" lon="17.98004973217">
        <ele>87.4</ele>
        <time>2018-03-03T17:19:41Z</time>
      </trkpt>
      <trkpt lat="62.634253010932" lon="17.980008828498">
        <ele>87.4</ele>
        <time>2018-03-03T17:19:42Z</time>
      </trkpt>
      <trkpt lat="62.634279581555" lon="17.979954346148">
        <ele>87.4</ele>
        <time>2018-03-03T17:19:43Z</time>
      </trkpt>
      <trkpt lat="62.634294501337" lon="17.979901791635">
        <ele>87.4</ele>
        <time>2018-03-03T17:19:44Z</time>
      </trkpt>
      <trkpt lat="62.634307158006" lon="17.979847896018">
        <ele>87.4</ele>
        <time>2018-03-03T17:19:45Z</time>
      </trkpt>
      <trkpt lat="62.634321574874" lon="17.979792994573">
        <ele>87.4</ele>
        <time>2018-03-03T17:19:46Z</time>
      </trkpt>
      <trkpt lat="62.63433196843" lon="17.979738093128">
        <ele>87.4</ele>
        <time>2018-03-03T17:19:47Z</time>
      </trkpt>
      <trkpt lat="62.634346972031" lon="17.979669948281">
        <ele>87.2</ele>
        <time>2018-03-03T17:19:48Z</time>
      </trkpt>
      <trkpt lat="62.634356695035" lon="17.97960632966">
        <ele>87.2</ele>
        <time>2018-03-03T17:19:49Z</time>
      </trkpt>
      <trkpt lat="62.634367340048" lon="17.979543800686">
        <ele>87.2</ele>
        <time>2018-03-03T17:19:50Z</time>
      </trkpt>
      <trkpt lat="62.634376560138" lon="17.979493425467">
        <ele>87.2</ele>
        <time>2018-03-03T17:19:51Z</time>
      </trkpt>
      <trkpt lat="62.63438728897" lon="17.979428465742">
        <ele>87</ele>
        <time>2018-03-03T17:19:52Z</time>
      </trkpt>
      <trkpt lat="62.634403298399" lon="17.979364008931">
        <ele>87</ele>
        <time>2018-03-03T17:19:53Z</time>
      </trkpt>
      <trkpt lat="62.634412518489" lon="17.979314723359">
        <ele>87.2</ele>
        <time>2018-03-03T17:19:54Z</time>
      </trkpt>
      <trkpt lat="62.634421403303" lon="17.979252864937">
        <ele>87.2</ele>
        <time>2018-03-03T17:19:55Z</time>
      </trkpt>
      <trkpt lat="62.634428192642" lon="17.979185055366">
        <ele>87.2</ele>
        <time>2018-03-03T17:19:56Z</time>
      </trkpt>
      <trkpt lat="62.634432048316" lon="17.979119676546">
        <ele>87.2</ele>
        <time>2018-03-03T17:19:57Z</time>
      </trkpt>
      <trkpt lat="62.634444453528" lon="17.979049520043">
        <ele>87.2</ele>
        <time>2018-03-03T17:19:58Z</time>
      </trkpt>
      <trkpt lat="62.634452583971" lon="17.978982381024">
        <ele>87.2</ele>
        <time>2018-03-03T17:19:59Z</time>
      </trkpt>
      <trkpt lat="62.634462139337" lon="17.978912056883">
        <ele>87.2</ele>
        <time>2018-03-03T17:20:00Z</time>
      </trkpt>
      <trkpt lat="62.634471694703" lon="17.978843660579">
        <ele>87.2</ele>
        <time>2018-03-03T17:20:01Z</time>
      </trkpt>
      <trkpt lat="62.634482507354" lon="17.978790435514">
        <ele>87.2</ele>
        <time>2018-03-03T17:20:02Z</time>
      </trkpt>
      <trkpt lat="62.63449876824" lon="17.978739976476">
        <ele>87.2</ele>
        <time>2018-03-03T17:20:03Z</time>
      </trkpt>
      <trkpt lat="62.634519220076" lon="17.978705443048">
        <ele>87.2</ele>
        <time>2018-03-03T17:20:04Z</time>
      </trkpt>
      <trkpt lat="62.634543946681" lon="17.978694462759">
        <ele>87.2</ele>
        <time>2018-03-03T17:20:05Z</time>
      </trkpt>
      <trkpt lat="62.634565488164" lon="17.978702425564">
        <ele>87.4</ele>
        <time>2018-03-03T17:20:06Z</time>
      </trkpt>
      <trkpt lat="62.634584598896" lon="17.978715668966">
        <ele>87.4</ele>
        <time>2018-03-03T17:20:07Z</time>
      </trkpt>
      <trkpt lat="62.634601697972" lon="17.978761517959">
        <ele>87.4</ele>
        <time>2018-03-03T17:20:08Z</time>
      </trkpt>
      <trkpt lat="62.634619886695" lon="17.978784232908">
        <ele>87.4</ele>
        <time>2018-03-03T17:20:09Z</time>
      </trkpt>
      <trkpt lat="62.634652492286" lon="17.978807869866">
        <ele>87.2</ele>
        <time>2018-03-03T17:20:10Z</time>
      </trkpt>
      <trkpt lat="62.6346865228" lon="17.978817173775">
        <ele>87.2</ele>
        <time>2018-03-03T17:20:11Z</time>
      </trkpt>
      <trkpt lat="62.634719966581" lon="17.978821700001">
        <ele>87.2</ele>
        <time>2018-03-03T17:20:12Z</time>
      </trkpt>
      <trkpt lat="62.634759696787" lon="17.978840224">
        <ele>87</ele>
        <time>2018-03-03T17:20:13Z</time>
      </trkpt>
      <trkpt lat="62.634794062577" lon="17.978846761882">
        <ele>86.8</ele>
        <time>2018-03-03T17:20:14Z</time>
      </trkpt>
      <trkpt lat="62.634825327064" lon="17.978854137954">
        <ele>86.8</ele>
        <time>2018-03-03T17:20:15Z</time>
      </trkpt>
      <trkpt lat="62.634863548528" lon="17.978862519854">
        <ele>86.6</ele>
        <time>2018-03-03T17:20:16Z</time>
      </trkpt>
      <trkpt lat="62.63489523211" lon="17.978872578134">
        <ele>86.4</ele>
        <time>2018-03-03T17:20:17Z</time>
      </trkpt>
      <trkpt lat="62.634931944832" lon="17.978883390785">
        <ele>86.4</ele>
        <time>2018-03-03T17:20:18Z</time>
      </trkpt>
      <trkpt lat="62.634954324505" lon="17.978890599219">
        <ele>86.4</ele>
        <time>2018-03-03T17:20:19Z</time>
      </trkpt>
      <trkpt lat="62.634984164069" lon="17.978902417698">
        <ele>86.2</ele>
        <time>2018-03-03T17:20:20Z</time>
      </trkpt>
      <trkpt lat="62.635008806855" lon="17.97891063196">
        <ele>86.2</ele>
        <time>2018-03-03T17:20:21Z</time>
      </trkpt>
      <trkpt lat="62.635040490437" lon="17.978922618077">
        <ele>86.2</ele>
        <time>2018-03-03T17:20:22Z</time>
      </trkpt>
      <trkpt lat="62.63507711934" lon="17.978932341081">
        <ele>86.2</ele>
        <time>2018-03-03T17:20:23Z</time>
      </trkpt>
      <trkpt lat="62.635110144026" lon="17.978942566999">
        <ele>86.2</ele>
        <time>2018-03-03T17:20:24Z</time>
      </trkpt>
      <trkpt lat="62.635143671626" lon="17.978954636935">
        <ele>86.2</ele>
        <time>2018-03-03T17:20:25Z</time>
      </trkpt>
      <trkpt lat="62.635178288873" lon="17.978965449586">
        <ele>86.2</ele>
        <time>2018-03-03T17:20:26Z</time>
      </trkpt>
      <trkpt lat="62.635210810645" lon="17.978975256409">
        <ele>86</ele>
        <time>2018-03-03T17:20:27Z</time>
      </trkpt>
      <trkpt lat="62.635245427892" lon="17.978981207558">
        <ele>85.6</ele>
        <time>2018-03-03T17:20:28Z</time>
      </trkpt>
      <trkpt lat="62.635277195293" lon="17.978986991069">
        <ele>85.2</ele>
        <time>2018-03-03T17:20:29Z</time>
      </trkpt>
      <trkpt lat="62.63530845978" lon="17.978990930562">
        <ele>84.8</ele>
        <time>2018-03-03T17:20:30Z</time>
      </trkpt>
      <trkpt lat="62.635343999036" lon="17.978989924734">
        <ele>84.2</ele>
        <time>2018-03-03T17:20:31Z</time>
      </trkpt>
      <trkpt lat="62.635375850256" lon="17.978987074888">
        <ele>84</ele>
        <time>2018-03-03T17:20:32Z</time>
      </trkpt>
      <trkpt lat="62.635412730616" lon="17.978984644137">
        <ele>84</ele>
        <time>2018-03-03T17:20:33Z</time>
      </trkpt>
      <trkpt lat="62.635448269872" lon="17.978981961929">
        <ele>83.8</ele>
        <time>2018-03-03T17:20:34Z</time>
      </trkpt>
      <trkpt lat="62.635489592639" lon="17.978978190074">
        <ele>83.8</ele>
        <time>2018-03-03T17:20:35Z</time>
      </trkpt>
      <trkpt lat="62.635525802447" lon="17.978972993296">
        <ele>83.6</ele>
        <time>2018-03-03T17:20:36Z</time>
      </trkpt>
      <trkpt lat="62.635561425522" lon="17.978966120138">
        <ele>83.4</ele>
        <time>2018-03-03T17:20:37Z</time>
      </trkpt>
      <trkpt lat="62.635601491004" lon="17.978954804573">
        <ele>83.4</ele>
        <time>2018-03-03T17:20:38Z</time>
      </trkpt>
      <trkpt lat="62.63562864836" lon="17.978948182872">
        <ele>83.4</ele>
        <time>2018-03-03T17:20:39Z</time>
      </trkpt>
      <trkpt lat="62.635668965299" lon="17.978945500664">
        <ele>83.4</ele>
        <time>2018-03-03T17:20:40Z</time>
      </trkpt>
      <trkpt lat="62.635703917822" lon="17.978940136248">
        <ele>83.2</ele>
        <time>2018-03-03T17:20:41Z</time>
      </trkpt>
      <trkpt lat="62.635732500101" lon="17.97893996861">
        <ele>83.2</ele>
        <time>2018-03-03T17:20:42Z</time>
      </trkpt>
      <trkpt lat="62.635772062669" lon="17.978940387705">
        <ele>83.2</ele>
        <time>2018-03-03T17:20:43Z</time>
      </trkpt>
      <trkpt lat="62.635802656604" lon="17.978936280574">
        <ele>83.2</ele>
        <time>2018-03-03T17:20:44Z</time>
      </trkpt>
      <trkpt lat="62.635828808132" lon="17.978938795144">
        <ele>83</ele>
        <time>2018-03-03T17:20:45Z</time>
      </trkpt>
      <trkpt lat="62.635860240257" lon="17.978945416845">
        <ele>82.8</ele>
        <time>2018-03-03T17:20:46Z</time>
      </trkpt>
      <trkpt lat="62.63587842898" lon="17.978948685786">
        <ele>82.6</ele>
        <time>2018-03-03T17:20:47Z</time>
      </trkpt>
      <trkpt lat="62.635902568852" lon="17.978953212012">
        <ele>82.6</ele>
        <time>2018-03-03T17:20:48Z</time>
      </trkpt>
      <trkpt lat="62.635922266317" lon="17.978955978039">
        <ele>82.6</ele>
        <time>2018-03-03T17:20:49Z</time>
      </trkpt>
      <trkpt lat="62.635940203583" lon="17.978963354111">
        <ele>82.8</ele>
        <time>2018-03-03T17:20:50Z</time>
      </trkpt>
      <trkpt lat="62.635953530804" lon="17.978979447359">
        <ele>82.8</ele>
        <time>2018-03-03T17:20:51Z</time>
      </trkpt>
      <trkpt lat="62.635968702043" lon="17.979004341602">
        <ele>83</ele>
        <time>2018-03-03T17:20:52Z</time>
      </trkpt>
      <trkpt lat="62.635981191074" lon="17.979036192822">
        <ele>83.2</ele>
        <time>2018-03-03T17:20:53Z</time>
      </trkpt>
      <trkpt lat="62.635987142223" lon="17.97905982978">
        <ele>83.4</ele>
        <time>2018-03-03T17:20:54Z</time>
      </trkpt>
      <trkpt lat="62.63598990825" lon="17.979083215281">
        <ele>83.4</ele>
        <time>2018-03-03T17:20:55Z</time>
      </trkpt>
      <trkpt lat="62.635990327345" lon="17.979108528619">
        <ele>83.6</ele>
        <time>2018-03-03T17:20:56Z</time>
      </trkpt>
      <trkpt lat="62.635989656793" lon="17.979132500853">
        <ele>83.6</ele>
        <time>2018-03-03T17:20:57Z</time>
      </trkpt>
      <trkpt lat="62.63598068816" lon="17.979156473087">
        <ele>83.6</ele>
        <time>2018-03-03T17:21:00Z</time>
      </trkpt>
      <trkpt lat="62.635986220214" lon="17.979143397323">
        <ele>83.6</ele>
        <time>2018-03-03T17:21:01Z</time>
      </trkpt>
      <trkpt lat="62.635985801119" lon="17.979153958517">
        <ele>83.6</ele>
        <time>2018-03-03T17:21:02Z</time>
      </trkpt>
      <trkpt lat="62.635975491382" lon="17.979220259346">
        <ele>83.6</ele>
        <time>2018-03-03T17:21:04Z</time>
      </trkpt>
      <trkpt lat="62.63597146807" lon="17.979261917389">
        <ele>83.6</ele>
        <time>2018-03-03T17:21:05Z</time>
      </trkpt>
      <trkpt lat="62.635971719527" lon="17.979315393911">
        <ele>83.4</ele>
        <time>2018-03-03T17:21:06Z</time>
      </trkpt>
      <trkpt lat="62.635971719527" lon="17.979378928713">
        <ele>83.4</ele>
        <time>2018-03-03T17:21:07Z</time>
      </trkpt>
      <trkpt lat="62.635972054803" lon="17.979454114356">
        <ele>83.4</ele>
        <time>2018-03-03T17:21:08Z</time>
      </trkpt>
      <trkpt lat="62.63596727712" lon="17.979594343543">
        <ele>83.4</ele>
        <time>2018-03-03T17:21:09Z</time>
      </trkpt>
      <trkpt lat="62.635963505265" lon="17.979704900804">
        <ele>83.4</ele>
        <time>2018-03-03T17:21:10Z</time>
      </trkpt>
      <trkpt lat="62.63596140979" lon="17.979887793862">
        <ele>82.8</ele>
        <time>2018-03-03T17:21:11Z</time>
      </trkpt>
      <trkpt lat="62.635967612396" lon="17.980035063845">
        <ele>81.6</ele>
        <time>2018-03-03T17:21:12Z</time>
      </trkpt>
      <trkpt lat="62.635980771979" lon="17.980161043802">
        <ele>80.6</ele>
        <time>2018-03-03T17:21:13Z</time>
      </trkpt>
      <trkpt lat="62.636000050349" lon="17.980305883034">
        <ele>79.2</ele>
        <time>2018-03-03T17:21:14Z</time>
      </trkpt>
      <trkpt lat="62.636016646511" lon="17.980434712837">
        <ele>77.8</ele>
        <time>2018-03-03T17:21:15Z</time>
      </trkpt>
      <trkpt lat="62.636034751415" lon="17.980549796324">
        <ele>77</ele>
        <time>2018-03-03T17:21:16Z</time>
      </trkpt>
      <trkpt lat="62.636056376717" lon="17.980675105729">
        <ele>76.6</ele>
        <time>2018-03-03T17:21:17Z</time>
      </trkpt>
      <trkpt lat="62.636074900716" lon="17.980782561687">
        <ele>76.4</ele>
        <time>2018-03-03T17:21:18Z</time>
      </trkpt>
      <trkpt lat="62.636095604009" lon="17.980898399545">
        <ele>76</ele>
        <time>2018-03-03T17:21:19Z</time>
      </trkpt>
      <trkpt lat="62.636112703085" lon="17.980997892698">
        <ele>75.8</ele>
        <time>2018-03-03T17:21:20Z</time>
      </trkpt>
      <trkpt lat="62.636129466885" lon="17.981118508239">
        <ele>75.8</ele>
        <time>2018-03-03T17:21:21Z</time>
      </trkpt>
      <trkpt lat="62.63614413521" lon="17.981213475166">
        <ele>75.6</ele>
        <time>2018-03-03T17:21:22Z</time>
      </trkpt>
      <trkpt lat="62.636152433291" lon="17.98131204631">
        <ele>75.4</ele>
        <time>2018-03-03T17:21:23Z</time>
      </trkpt>
      <trkpt lat="62.636163329761" lon="17.981409108712">
        <ele>75.4</ele>
        <time>2018-03-03T17:21:24Z</time>
      </trkpt>
      <trkpt lat="62.636176405525" lon="17.981508601865">
        <ele>75.2</ele>
        <time>2018-03-03T17:21:25Z</time>
      </trkpt>
      <trkpt lat="62.636194929524" lon="17.981596863272">
        <ele>75.2</ele>
        <time>2018-03-03T17:21:26Z</time>
      </trkpt>
      <trkpt lat="62.636210100763" lon="17.981682358652">
        <ele>75.4</ele>
        <time>2018-03-03T17:21:27Z</time>
      </trkpt>
      <trkpt lat="62.636221583966" lon="17.981748156567">
        <ele>75.6</ele>
        <time>2018-03-03T17:21:28Z</time>
      </trkpt>
      <trkpt lat="62.636235162644" lon="17.981823928943">
        <ele>75.6</ele>
        <time>2018-03-03T17:21:29Z</time>
      </trkpt>
      <trkpt lat="62.636261230353" lon="17.981917890042">
        <ele>75.8</ele>
        <time>2018-03-03T17:21:30Z</time>
      </trkpt>
      <trkpt lat="62.636261146534" lon="17.982006822001">
        <ele>75.8</ele>
        <time>2018-03-03T17:21:31Z</time>
      </trkpt>
      <trkpt lat="62.636276820687" lon="17.982076391771">
        <ele>75.8</ele>
        <time>2018-03-03T17:21:32Z</time>
      </trkpt>
      <trkpt lat="62.636282939474" lon="17.982144871894">
        <ele>75.6</ele>
        <time>2018-03-03T17:21:33Z</time>
      </trkpt>
      <trkpt lat="62.636292159564" lon="17.982208490515">
        <ele>75.4</ele>
        <time>2018-03-03T17:21:34Z</time>
      </trkpt>
      <trkpt lat="62.636289812632" lon="17.982284765805">
        <ele>75.4</ele>
        <time>2018-03-03T17:21:35Z</time>
      </trkpt>
      <trkpt lat="62.636289561175" lon="17.982361711647">
        <ele>75.6</ele>
        <time>2018-03-03T17:21:36Z</time>
      </trkpt>
      <trkpt lat="62.636295260867" lon="17.982421558413">
        <ele>75.6</ele>
        <time>2018-03-03T17:21:37Z</time>
      </trkpt>
      <trkpt lat="62.636291908107" lon="17.982486769595">
        <ele>75.4</ele>
        <time>2018-03-03T17:21:38Z</time>
      </trkpt>
      <trkpt lat="62.636288555347" lon="17.982579138133">
        <ele>75.6</ele>
        <time>2018-03-03T17:21:39Z</time>
      </trkpt>
      <trkpt lat="62.636286711329" lon="17.982643511125">
        <ele>75.8</ele>
        <time>2018-03-03T17:21:40Z</time>
      </trkpt>
      <trkpt lat="62.636282688017" lon="17.982723306813">
        <ele>75.8</ele>
        <time>2018-03-03T17:21:41Z</time>
      </trkpt>
      <trkpt lat="62.636286711329" lon="17.982783405036">
        <ele>76</ele>
        <time>2018-03-03T17:21:42Z</time>
      </trkpt>
      <trkpt lat="62.636284532035" lon="17.982854986462">
        <ele>76.2</ele>
        <time>2018-03-03T17:21:43Z</time>
      </trkpt>
      <trkpt lat="62.636282268922" lon="17.982928411906">
        <ele>76.2</ele>
        <time>2018-03-03T17:21:44Z</time>
      </trkpt>
      <trkpt lat="62.636294590315" lon="17.982995467106">
        <ele>76.2</ele>
        <time>2018-03-03T17:21:45Z</time>
      </trkpt>
      <trkpt lat="62.636296853428" lon="17.983073670233">
        <ele>76.2</ele>
        <time>2018-03-03T17:21:46Z</time>
      </trkpt>
      <trkpt lat="62.636298697446" lon="17.98316193164">
        <ele>76.2</ele>
        <time>2018-03-03T17:21:47Z</time>
      </trkpt>
      <trkpt lat="62.636298194532" lon="17.983230998496">
        <ele>76</ele>
        <time>2018-03-03T17:21:48Z</time>
      </trkpt>
      <trkpt lat="62.636288722985" lon="17.983313811668">
        <ele>76.2</ele>
        <time>2018-03-03T17:21:49Z</time>
      </trkpt>
      <trkpt lat="62.636284280578" lon="17.983386650379">
        <ele>76</ele>
        <time>2018-03-03T17:21:50Z</time>
      </trkpt>
      <trkpt lat="62.636273048832" lon="17.983464266773">
        <ele>76.2</ele>
        <time>2018-03-03T17:21:51Z</time>
      </trkpt>
      <trkpt lat="62.63626232" lon="17.983531657249">
        <ele>76.2</ele>
        <time>2018-03-03T17:21:52Z</time>
      </trkpt>
      <trkpt lat="62.636255782118" lon="17.983598544811">
        <ele>76.2</ele>
        <time>2018-03-03T17:21:53Z</time>
      </trkpt>
      <trkpt lat="62.636244969467" lon="17.983663253079">
        <ele>76.4</ele>
        <time>2018-03-03T17:21:54Z</time>
      </trkpt>
      <trkpt lat="62.63623298335" lon="17.983730811193">
        <ele>76.6</ele>
        <time>2018-03-03T17:21:55Z</time>
      </trkpt>
      <trkpt lat="62.636226445468" lon="17.983787556656">
        <ele>76.8</ele>
        <time>2018-03-03T17:21:56Z</time>
      </trkpt>
      <trkpt lat="62.636217309197" lon="17.983860646824">
        <ele>77</ele>
        <time>2018-03-03T17:21:57Z</time>
      </trkpt>
      <trkpt lat="62.636211944781" lon="17.98391211169">
        <ele>77.2</ele>
        <time>2018-03-03T17:21:58Z</time>
      </trkpt>
      <trkpt lat="62.636199288112" lon="17.983987297333">
        <ele>77.4</ele>
        <time>2018-03-03T17:21:59Z</time>
      </trkpt>
      <trkpt lat="62.636190906212" lon="17.984053011429">
        <ele>77.4</ele>
        <time>2018-03-03T17:22:00Z</time>
      </trkpt>
      <trkpt lat="62.636179506828" lon="17.984120904819">
        <ele>77.4</ele>
        <time>2018-03-03T17:22:01Z</time>
      </trkpt>
      <trkpt lat="62.636181267027" lon="17.984185110173">
        <ele>77.6</ele>
        <time>2018-03-03T17:22:02Z</time>
      </trkpt>
      <trkpt lat="62.636174729145" lon="17.984246046586">
        <ele>77.6</ele>
        <time>2018-03-03T17:22:03Z</time>
      </trkpt>
      <trkpt lat="62.636171963118" lon="17.984313688519">
        <ele>77.6</ele>
        <time>2018-03-03T17:22:04Z</time>
      </trkpt>
      <trkpt lat="62.636167101616" lon="17.984377642416">
        <ele>77.8</ele>
        <time>2018-03-03T17:22:05Z</time>
      </trkpt>
      <trkpt lat="62.636160731372" lon="17.984452241326">
        <ele>77.8</ele>
        <time>2018-03-03T17:22:06Z</time>
      </trkpt>
      <trkpt lat="62.636161821019" lon="17.984511585178">
        <ele>77.8</ele>
        <time>2018-03-03T17:22:07Z</time>
      </trkpt>
      <trkpt lat="62.636152768567" lon="17.984573024505">
        <ele>77.8</ele>
        <time>2018-03-03T17:22:08Z</time>
      </trkpt>
      <trkpt lat="62.636153606757" lon="17.984643181008">
        <ele>77.8</ele>
        <time>2018-03-03T17:22:09Z</time>
      </trkpt>
      <trkpt lat="62.63614748797" lon="17.984703111593">
        <ele>78</ele>
        <time>2018-03-03T17:22:10Z</time>
      </trkpt>
      <trkpt lat="62.636146063047" lon="17.984771926992">
        <ele>78</ele>
        <time>2018-03-03T17:22:11Z</time>
      </trkpt>
      <trkpt lat="62.636145476314" lon="17.98482909155">
        <ele>78.2</ele>
        <time>2018-03-03T17:22:12Z</time>
      </trkpt>
      <trkpt lat="62.636139189889" lon="17.9848919558">
        <ele>78.2</ele>
        <time>2018-03-03T17:22:13Z</time>
      </trkpt>
      <trkpt lat="62.636138351699" lon="17.984949958548">
        <ele>78.4</ele>
        <time>2018-03-03T17:22:14Z</time>
      </trkpt>
      <trkpt lat="62.636132149093" lon="17.985016929929">
        <ele>78.6</ele>
        <time>2018-03-03T17:22:15Z</time>
      </trkpt>
      <trkpt lat="62.636130556532" lon="17.985071747555">
        <ele>78.8</ele>
        <time>2018-03-03T17:22:16Z</time>
      </trkpt>
      <trkpt lat="62.636120414433" lon="17.985137796927">
        <ele>79.2</ele>
        <time>2018-03-03T17:22:17Z</time>
      </trkpt>
      <trkpt lat="62.636121839356" lon="17.985197727512">
        <ele>79.2</ele>
        <time>2018-03-03T17:22:18Z</time>
      </trkpt>
      <trkpt lat="62.636113876551" lon="17.985263022513">
        <ele>79.4</ele>
        <time>2018-03-03T17:22:19Z</time>
      </trkpt>
      <trkpt lat="62.636110942886" lon="17.985322701641">
        <ele>79.6</ele>
        <time>2018-03-03T17:22:20Z</time>
      </trkpt>
      <trkpt lat="62.636099794959" lon="17.985395037438">
        <ele>79.6</ele>
        <time>2018-03-03T17:22:21Z</time>
      </trkpt>
      <trkpt lat="62.636093508534" lon="17.985455303299">
        <ele>79.6</ele>
        <time>2018-03-03T17:22:22Z</time>
      </trkpt>
      <trkpt lat="62.636083617892" lon="17.985515820617">
        <ele>79.6</ele>
        <time>2018-03-03T17:22:23Z</time>
      </trkpt>
      <trkpt lat="62.636073559612" lon="17.985579439238">
        <ele>79.8</ele>
        <time>2018-03-03T17:22:24Z</time>
      </trkpt>
      <trkpt lat="62.636063333694" lon="17.985629143905">
        <ele>79.8</ele>
        <time>2018-03-03T17:22:25Z</time>
      </trkpt>
      <trkpt lat="62.636045815523" lon="17.985702317892">
        <ele>80</ele>
        <time>2018-03-03T17:22:26Z</time>
      </trkpt>
      <trkpt lat="62.636028381171" lon="17.985756381147">
        <ele>80</ele>
        <time>2018-03-03T17:22:27Z</time>
      </trkpt>
      <trkpt lat="62.636011449733" lon="17.985803738882">
        <ele>80.2</ele>
        <time>2018-03-03T17:22:28Z</time>
      </trkpt>
      <trkpt lat="62.635986639309" lon="17.985851096617">
        <ele>80.2</ele>
        <time>2018-03-03T17:22:29Z</time>
      </trkpt>
      <trkpt lat="62.635960990695" lon="17.985891329737">
        <ele>80.2</ele>
        <time>2018-03-03T17:22:30Z</time>
      </trkpt>
      <trkpt lat="62.635943137248" lon="17.985935167074">
        <ele>80.2</ele>
        <time>2018-03-03T17:22:31Z</time>
      </trkpt>
      <trkpt lat="62.635917656272" lon="17.985975567832">
        <ele>80.4</ele>
        <time>2018-03-03T17:22:32Z</time>
      </trkpt>
      <trkpt lat="62.635898461721" lon="17.986011442364">
        <ele>80.4</ele>
        <time>2018-03-03T17:22:33Z</time>
      </trkpt>
      <trkpt lat="62.635872058736" lon="17.986027870888">
        <ele>80.6</ele>
        <time>2018-03-03T17:22:34Z</time>
      </trkpt>
      <trkpt lat="62.635845320475" lon="17.986051256389">
        <ele>80.8</ele>
        <time>2018-03-03T17:22:35Z</time>
      </trkpt>
      <trkpt lat="62.63581640292" lon="17.986067768732">
        <ele>81</ele>
        <time>2018-03-03T17:22:36Z</time>
      </trkpt>
      <trkpt lat="62.635790586668" lon="17.986097189201">
        <ele>81.2</ele>
        <time>2018-03-03T17:22:37Z</time>
      </trkpt>
      <trkpt lat="62.63576694971" lon="17.986117473399">
        <ele>81.4</ele>
        <time>2018-03-03T17:22:38Z</time>
      </trkpt>
      <trkpt lat="62.635740546725" lon="17.986141194176">
        <ele>81.4</ele>
        <time>2018-03-03T17:22:39Z</time>
      </trkpt>
      <trkpt lat="62.6357258784" lon="17.986171369016">
        <ele>81.6</ele>
        <time>2018-03-03T17:22:40Z</time>
      </trkpt>
      <trkpt lat="62.635703582546" lon="17.986203639331">
        <ele>81.6</ele>
        <time>2018-03-03T17:22:41Z</time>
      </trkpt>
      <trkpt lat="62.635687573117" lon="17.986240352053">
        <ele>81.8</ele>
        <time>2018-03-03T17:22:42Z</time>
      </trkpt>
      <trkpt lat="62.63567642519" lon="17.986274298748">
        <ele>81.8</ele>
        <time>2018-03-03T17:22:43Z</time>
      </trkpt>
      <trkpt lat="62.635655218983" lon="17.98631771699">
        <ele>82</ele>
        <time>2018-03-03T17:22:44Z</time>
      </trkpt>
      <trkpt lat="62.63564625035" lon="17.986359291214">
        <ele>82.2</ele>
        <time>2018-03-03T17:22:45Z</time>
      </trkpt>
      <trkpt lat="62.635631749663" lon="17.986396423031">
        <ele>82.4</ele>
        <time>2018-03-03T17:22:46Z</time>
      </trkpt>
      <trkpt lat="62.635615069682" lon="17.98645266558">
        <ele>82.6</ele>
        <time>2018-03-03T17:22:47Z</time>
      </trkpt>
      <trkpt lat="62.635597719149" lon="17.986490970863">
        <ele>82.8</ele>
        <time>2018-03-03T17:22:48Z</time>
      </trkpt>
      <trkpt lat="62.63558254791" lon="17.986537658046">
        <ele>82.8</ele>
        <time>2018-03-03T17:22:49Z</time>
      </trkpt>
      <trkpt lat="62.635566119386" lon="17.986574119311">
        <ele>82.8</ele>
        <time>2018-03-03T17:22:50Z</time>
      </trkpt>
      <trkpt lat="62.635550445233" lon="17.986627428195">
        <ele>82.8</ele>
        <time>2018-03-03T17:22:51Z</time>
      </trkpt>
      <trkpt lat="62.635536531279" lon="17.986663302727">
        <ele>83</ele>
        <time>2018-03-03T17:22:52Z</time>
      </trkpt>
      <trkpt lat="62.635522449687" lon="17.986706134236">
        <ele>83</ele>
        <time>2018-03-03T17:22:53Z</time>
      </trkpt>
      <trkpt lat="62.635511637036" lon="17.986748211374">
        <ele>83</ele>
        <time>2018-03-03T17:22:54Z</time>
      </trkpt>
      <trkpt lat="62.635494202684" lon="17.986790959064">
        <ele>83.2</ele>
        <time>2018-03-03T17:22:55Z</time>
      </trkpt>
      <trkpt lat="62.635480204911" lon="17.986834293487">
        <ele>83.4</ele>
        <time>2018-03-03T17:22:56Z</time>
      </trkpt>
      <trkpt lat="62.635461764731" lon="17.986870419476">
        <ele>83.6</ele>
        <time>2018-03-03T17:22:57Z</time>
      </trkpt>
      <trkpt lat="62.635448018415" lon="17.986903444162">
        <ele>83.6</ele>
        <time>2018-03-03T17:22:58Z</time>
      </trkpt>
      <trkpt lat="62.635424549095" lon="17.986947030042">
        <ele>84</ele>
        <time>2018-03-03T17:22:59Z</time>
      </trkpt>
      <trkpt lat="62.635409294037" lon="17.986994303958">
        <ele>83.8</ele>
        <time>2018-03-03T17:23:00Z</time>
      </trkpt>
      <trkpt lat="62.635393871341" lon="17.987033279793">
        <ele>84</ele>
        <time>2018-03-03T17:23:01Z</time>
      </trkpt>
      <trkpt lat="62.635376269351" lon="17.987076949492">
        <ele>84</ele>
        <time>2018-03-03T17:23:02Z</time>
      </trkpt>
      <trkpt lat="62.635359840827" lon="17.987115254775">
        <ele>84.2</ele>
        <time>2018-03-03T17:23:03Z</time>
      </trkpt>
      <trkpt lat="62.635339556629" lon="17.987157415732">
        <ele>84.2</ele>
        <time>2018-03-03T17:23:04Z</time>
      </trkpt>
      <trkpt lat="62.635314913843" lon="17.987193457902">
        <ele>84.4</ele>
        <time>2018-03-03T17:23:05Z</time>
      </trkpt>
      <trkpt lat="62.635293875274" lon="17.987246934424">
        <ele>84.8</ele>
        <time>2018-03-03T17:23:06Z</time>
      </trkpt>
      <trkpt lat="62.635273674895" lon="17.987286413173">
        <ele>84.8</ele>
        <time>2018-03-03T17:23:07Z</time>
      </trkpt>
      <trkpt lat="62.635251630498" lon="17.98732605956">
        <ele>85</ele>
        <time>2018-03-03T17:23:08Z</time>
      </trkpt>
      <trkpt lat="62.63523386087" lon="17.987374339304">
        <ele>85</ele>
        <time>2018-03-03T17:23:09Z</time>
      </trkpt>
      <trkpt lat="62.635214666319" lon="17.987415242976">
        <ele>85</ele>
        <time>2018-03-03T17:23:10Z</time>
      </trkpt>
      <trkpt lat="62.635194801216" lon="17.987464528548">
        <ele>85</ele>
        <time>2018-03-03T17:23:11Z</time>
      </trkpt>
      <trkpt lat="62.635173678828" lon="17.987502750012">
        <ele>85.2</ele>
        <time>2018-03-03T17:23:12Z</time>
      </trkpt>
      <trkpt lat="62.63515339463" lon="17.987537786354">
        <ele>85.2</ele>
        <time>2018-03-03T17:23:13Z</time>
      </trkpt>
      <trkpt lat="62.635135205907" lon="17.987581539872">
        <ele>85.2</ele>
        <time>2018-03-03T17:23:14Z</time>
      </trkpt>
      <trkpt lat="62.635112993872" lon="17.98761942606">
        <ele>85.2</ele>
        <time>2018-03-03T17:23:15Z</time>
      </trkpt>
      <trkpt lat="62.635090698018" lon="17.987654127126">
        <ele>85.2</ele>
        <time>2018-03-03T17:23:16Z</time>
      </trkpt>
      <trkpt lat="62.635071838743" lon="17.987697126273">
        <ele>85.6</ele>
        <time>2018-03-03T17:23:17Z</time>
      </trkpt>
      <trkpt lat="62.635048537061" lon="17.987734174271">
        <ele>85.6</ele>
        <time>2018-03-03T17:23:18Z</time>
      </trkpt>
      <trkpt lat="62.635030599795" lon="17.987776754323">
        <ele>85.8</ele>
        <time>2018-03-03T17:23:19Z</time>
      </trkpt>
      <trkpt lat="62.63500838776" lon="17.987811623027">
        <ele>86</ele>
        <time>2018-03-03T17:23:20Z</time>
      </trkpt>
      <trkpt lat="62.63498575663" lon="17.987862249703">
        <ele>86.2</ele>
        <time>2018-03-03T17:23:21Z</time>
      </trkpt>
      <trkpt lat="62.634964215147" lon="17.987888820326">
        <ele>86.2</ele>
        <time>2018-03-03T17:23:22Z</time>
      </trkpt>
      <trkpt lat="62.634944433863" lon="17.987926455057">
        <ele>86.4</ele>
        <time>2018-03-03T17:23:23Z</time>
      </trkpt>
      <trkpt lat="62.634913756109" lon="17.987958138639">
        <ele>86.6</ele>
        <time>2018-03-03T17:23:24Z</time>
      </trkpt>
      <trkpt lat="62.634890873522" lon="17.987990073678">
        <ele>86.6</ele>
        <time>2018-03-03T17:23:25Z</time>
      </trkpt>
      <trkpt lat="62.63486673365" lon="17.988018069224">
        <ele>86.8</ele>
        <time>2018-03-03T17:23:26Z</time>
      </trkpt>
      <trkpt lat="62.634841336493" lon="17.988036341766">
        <ele>87</ele>
        <time>2018-03-03T17:23:27Z</time>
      </trkpt>
      <trkpt lat="62.634821387571" lon="17.988058805258">
        <ele>87.2</ele>
        <time>2018-03-03T17:23:28Z</time>
      </trkpt>
      <trkpt lat="62.634789955446" lon="17.988068863538">
        <ele>87.4</ele>
        <time>2018-03-03T17:23:29Z</time>
      </trkpt>
      <trkpt lat="62.634768330144" lon="17.98808629789">
        <ele>87.4</ele>
        <time>2018-03-03T17:23:30Z</time>
      </trkpt>
      <trkpt lat="62.634737736209" lon="17.988105157165">
        <ele>87.6</ele>
        <time>2018-03-03T17:23:31Z</time>
      </trkpt>
      <trkpt lat="62.634713512518" lon="17.988123513526">
        <ele>87.6</ele>
        <time>2018-03-03T17:23:32Z</time>
      </trkpt>
      <trkpt lat="62.634689959379" lon="17.988131979245">
        <ele>87.6</ele>
        <time>2018-03-03T17:23:33Z</time>
      </trkpt>
      <trkpt lat="62.634665400412" lon="17.988138768584">
        <ele>87.8</ele>
        <time>2018-03-03T17:23:34Z</time>
      </trkpt>
      <trkpt lat="62.634635728486" lon="17.988140612602">
        <ele>87.8</ele>
        <time>2018-03-03T17:23:35Z</time>
      </trkpt>
      <trkpt lat="62.634609157863" lon="17.988152598719">
        <ele>88</ele>
        <time>2018-03-03T17:23:36Z</time>
      </trkpt>
      <trkpt lat="62.634578228652" lon="17.988160393886">
        <ele>88.4</ele>
        <time>2018-03-03T17:23:37Z</time>
      </trkpt>
      <trkpt lat="62.634556100436" lon="17.988177995876">
        <ele>88.4</ele>
        <time>2018-03-03T17:23:38Z</time>
      </trkpt>
      <trkpt lat="62.63452559032" lon="17.988188305613">
        <ele>88.6</ele>
        <time>2018-03-03T17:23:39Z</time>
      </trkpt>
      <trkpt lat="62.634502456276" lon="17.988208422173">
        <ele>88.8</ele>
        <time>2018-03-03T17:23:40Z</time>
      </trkpt>
      <trkpt lat="62.634470856513" lon="17.988216887892">
        <ele>89</ele>
        <time>2018-03-03T17:23:41Z</time>
      </trkpt>
      <trkpt lat="62.634440514035" lon="17.988223509593">
        <ele>89</ele>
        <time>2018-03-03T17:23:42Z</time>
      </trkpt>
      <trkpt lat="62.634417715267" lon="17.988237423547">
        <ele>89.2</ele>
        <time>2018-03-03T17:23:43Z</time>
      </trkpt>
      <trkpt lat="62.634390138816" lon="17.988229544561">
        <ele>89.2</ele>
        <time>2018-03-03T17:23:44Z</time>
      </trkpt>
      <trkpt lat="62.634362394727" lon="17.988231640036">
        <ele>89.4</ele>
        <time>2018-03-03T17:23:45Z</time>
      </trkpt>
      <trkpt lat="62.634340015054" lon="17.988244631981">
        <ele>89.4</ele>
        <time>2018-03-03T17:23:46Z</time>
      </trkpt>
      <trkpt lat="62.634301290676" lon="17.98824890675">
        <ele>89.4</ele>
        <time>2018-03-03T17:23:47Z</time>
      </trkpt>
      <trkpt lat="62.634275222967" lon="17.988267514568">
        <ele>89.4</ele>
        <time>2018-03-03T17:23:48Z</time>
      </trkpt>
      <trkpt lat="62.634240773358" lon="17.988261395781">
        <ele>89.6</ele>
        <time>2018-03-03T17:23:49Z</time>
      </trkpt>
      <trkpt lat="62.634209173595" lon="17.988272962803">
        <ele>89.6</ele>
        <time>2018-03-03T17:23:50Z</time>
      </trkpt>
      <trkpt lat="62.634174221072" lon="17.988263910351">
        <ele>89.6</ele>
        <time>2018-03-03T17:23:51Z</time>
      </trkpt>
      <trkpt lat="62.634143962413" lon="17.988275896468">
        <ele>89.6</ele>
        <time>2018-03-03T17:23:52Z</time>
      </trkpt>
      <trkpt lat="62.634119990179" lon="17.988264497084">
        <ele>89.8</ele>
        <time>2018-03-03T17:23:53Z</time>
      </trkpt>
      <trkpt lat="62.634081601077" lon="17.988256701917">
        <ele>89.8</ele>
        <time>2018-03-03T17:23:54Z</time>
      </trkpt>
      <trkpt lat="62.634052515884" lon="17.988233986968">
        <ele>89.8</ele>
        <time>2018-03-03T17:23:55Z</time>
      </trkpt>
      <trkpt lat="62.634025274709" lon="17.988220743566">
        <ele>89.6</ele>
        <time>2018-03-03T17:23:56Z</time>
      </trkpt>
      <trkpt lat="62.634000380466" lon="17.988216636435">
        <ele>89.8</ele>
        <time>2018-03-03T17:23:57Z</time>
      </trkpt>
      <trkpt lat="62.633969702712" lon="17.988190652545">
        <ele>89.8</ele>
        <time>2018-03-03T17:23:58Z</time>
      </trkpt>
      <trkpt lat="62.633944892288" lon="17.988186126319">
        <ele>90</ele>
        <time>2018-03-03T17:23:59Z</time>
      </trkpt>
      <trkpt lat="62.633915639457" lon="17.988162237904">
        <ele>90</ele>
        <time>2018-03-03T17:24:00Z</time>
      </trkpt>
      <trkpt lat="62.633888733558" lon="17.988145138828">
        <ele>90.4</ele>
        <time>2018-03-03T17:24:01Z</time>
      </trkpt>
      <trkpt lat="62.633860989469" lon="17.988126698648">
        <ele>90.4</ele>
        <time>2018-03-03T17:24:02Z</time>
      </trkpt>
      <trkpt lat="62.633836933416" lon="17.988105827717">
        <ele>90.6</ele>
        <time>2018-03-03T17:24:03Z</time>
      </trkpt>
      <trkpt lat="62.633809273146" lon="17.988091829944">
        <ele>90.6</ele>
        <time>2018-03-03T17:24:04Z</time>
      </trkpt>
      <trkpt lat="62.633784043627" lon="17.988059978724">
        <ele>90.8</ele>
        <time>2018-03-03T17:24:05Z</time>
      </trkpt>
      <trkpt lat="62.633749342561" lon="17.988038353422">
        <ele>91</ele>
        <time>2018-03-03T17:24:06Z</time>
      </trkpt>
      <trkpt lat="62.63372344249" lon="17.988007843306">
        <ele>91.2</ele>
        <time>2018-03-03T17:24:07Z</time>
      </trkpt>
      <trkpt lat="62.633694189659" lon="17.987978339018">
        <ele>91.4</ele>
        <time>2018-03-03T17:24:08Z</time>
      </trkpt>
      <trkpt lat="62.633665691199" lon="17.987951433119">
        <ele>91.4</ele>
        <time>2018-03-03T17:24:09Z</time>
      </trkpt>
      <trkpt lat="62.63363710892" lon="17.987917570243">
        <ele>91.4</ele>
        <time>2018-03-03T17:24:10Z</time>
      </trkpt>
      <trkpt lat="62.633613304324" lon="17.987890245249">
        <ele>91.4</ele>
        <time>2018-03-03T17:24:11Z</time>
      </trkpt>
      <trkpt lat="62.633592517212" lon="17.987868536128">
        <ele>91.4</ele>
        <time>2018-03-03T17:24:12Z</time>
      </trkpt>
      <trkpt lat="62.633569383168" lon="17.987837606917">
        <ele>91.6</ele>
        <time>2018-03-03T17:24:13Z</time>
      </trkpt>
      <trkpt lat="62.633546500581" lon="17.987802319118">
        <ele>91.8</ele>
        <time>2018-03-03T17:24:14Z</time>
      </trkpt>
      <trkpt lat="62.633524707641" lon="17.987777927789">
        <ele>92</ele>
        <time>2018-03-03T17:24:15Z</time>
      </trkpt>
      <trkpt lat="62.633498639932" lon="17.987738365221">
        <ele>92</ele>
        <time>2018-03-03T17:24:16Z</time>
      </trkpt>
      <trkpt lat="62.633475254431" lon="17.987704753802">
        <ele>92.2</ele>
        <time>2018-03-03T17:24:17Z</time>
      </trkpt>
      <trkpt lat="62.63344851617" lon="17.987665275053">
        <ele>92.4</ele>
        <time>2018-03-03T17:24:18Z</time>
      </trkpt>
      <trkpt lat="62.633423454289" lon="17.987620683345">
        <ele>92.4</ele>
        <time>2018-03-03T17:24:19Z</time>
      </trkpt>
      <trkpt lat="62.633402583358" lon="17.987583300071">
        <ele>92.4</ele>
        <time>2018-03-03T17:24:20Z</time>
      </trkpt>
      <trkpt lat="62.633383388807" lon="17.987552957593">
        <ele>92.6</ele>
        <time>2018-03-03T17:24:21Z</time>
      </trkpt>
      <trkpt lat="62.633371067414" lon="17.987511215731">
        <ele>92.6</ele>
        <time>2018-03-03T17:24:22Z</time>
      </trkpt>
      <trkpt lat="62.63336050622" lon="17.987474503009">
        <ele>92.8</ele>
        <time>2018-03-03T17:24:23Z</time>
      </trkpt>
      <trkpt lat="62.633344496791" lon="17.987426223265">
        <ele>93</ele>
        <time>2018-03-03T17:24:24Z</time>
      </trkpt>
      <trkpt lat="62.633326056611" lon="17.987379200806">
        <ele>93.4</ele>
        <time>2018-03-03T17:24:25Z</time>
      </trkpt>
      <trkpt lat="62.633302838748" lon="17.98733863241">
        <ele>93.8</ele>
        <time>2018-03-03T17:24:26Z</time>
      </trkpt>
      <trkpt lat="62.633278866514" lon="17.98727660635">
        <ele>94</ele>
        <time>2018-03-03T17:24:27Z</time>
      </trkpt>
      <trkpt lat="62.633262018895" lon="17.98721206572">
        <ele>94</ele>
        <time>2018-03-03T17:24:28Z</time>
      </trkpt>
      <trkpt lat="62.633226898734" lon="17.987083235917">
        <ele>93.8</ele>
        <time>2018-03-03T17:24:29Z</time>
      </trkpt>
      <trkpt lat="62.633200160473" lon="17.986973265389">
        <ele>93.2</ele>
        <time>2018-03-03T17:24:30Z</time>
      </trkpt>
      <trkpt lat="62.633181301198" lon="17.986866396164">
        <ele>92.2</ele>
        <time>2018-03-03T17:24:31Z</time>
      </trkpt>
      <trkpt lat="62.633170656185" lon="17.986764807536">
        <ele>91.2</ele>
        <time>2018-03-03T17:24:32Z</time>
      </trkpt>
      <trkpt lat="62.633162777199" lon="17.986670259704">
        <ele>90.8</ele>
        <time>2018-03-03T17:24:33Z</time>
      </trkpt>
      <trkpt lat="62.633159089163" lon="17.986575628053">
        <ele>90.2</ele>
        <time>2018-03-03T17:24:34Z</time>
      </trkpt>
      <trkpt lat="62.633153138014" lon="17.986473536511">
        <ele>90</ele>
        <time>2018-03-03T17:24:35Z</time>
      </trkpt>
      <trkpt lat="62.633148527969" lon="17.986371277331">
        <ele>90</ele>
        <time>2018-03-03T17:24:36Z</time>
      </trkpt>
      <trkpt lat="62.633150036711" lon="17.986270275436">
        <ele>90</ele>
        <time>2018-03-03T17:24:37Z</time>
      </trkpt>
      <trkpt lat="62.633150204349" lon="17.986147983515">
        <ele>90.4</ele>
        <time>2018-03-03T17:24:38Z</time>
      </trkpt>
      <trkpt lat="62.633151713091" lon="17.986019991902">
        <ele>90.2</ele>
        <time>2018-03-03T17:24:39Z</time>
      </trkpt>
      <trkpt lat="62.633152802738" lon="17.985903399673">
        <ele>90</ele>
        <time>2018-03-03T17:24:40Z</time>
      </trkpt>
      <trkpt lat="62.633156239317" lon="17.985797955371">
        <ele>89.8</ele>
        <time>2018-03-03T17:24:41Z</time>
      </trkpt>
      <trkpt lat="62.633163615389" lon="17.985664683161">
        <ele>89.6</ele>
        <time>2018-03-03T17:24:42Z</time>
      </trkpt>
      <trkpt lat="62.63316185519" lon="17.985564854732">
        <ele>89</ele>
        <time>2018-03-03T17:24:43Z</time>
      </trkpt>
      <trkpt lat="62.633159927353" lon="17.985445664114">
        <ele>88.6</ele>
        <time>2018-03-03T17:24:44Z</time>
      </trkpt>
      <trkpt lat="62.633151629272" lon="17.985346590056">
        <ele>88.2</ele>
        <time>2018-03-03T17:24:45Z</time>
      </trkpt>
      <trkpt lat="62.633160933181" lon="17.985220861556">
        <ele>88.2</ele>
        <time>2018-03-03T17:24:46Z</time>
      </trkpt>
      <trkpt lat="62.633174930954" lon="17.985095803608">
        <ele>88.2</ele>
        <time>2018-03-03T17:24:47Z</time>
      </trkpt>
      <trkpt lat="62.633193454953" lon="17.984965884158">
        <ele>87.6</ele>
        <time>2018-03-03T17:24:48Z</time>
      </trkpt>
      <trkpt lat="62.633217511006" lon="17.984815261415">
        <ele>86.8</ele>
        <time>2018-03-03T17:24:49Z</time>
      </trkpt>
      <trkpt lat="62.633239052489" lon="17.984715516805">
        <ele>85.8</ele>
        <time>2018-03-03T17:24:50Z</time>
      </trkpt>
      <trkpt lat="62.633264030551" lon="17.984608731399">
        <ele>85</ele>
        <time>2018-03-03T17:24:51Z</time>
      </trkpt>
      <trkpt lat="62.633287918966" lon="17.984507813323">
        <ele>84.4</ele>
        <time>2018-03-03T17:24:52Z</time>
      </trkpt>
      <trkpt lat="62.63330518568" lon="17.984425503065">
        <ele>84.2</ele>
        <time>2018-03-03T17:24:53Z</time>
      </trkpt>
      <trkpt lat="62.633324966964" lon="17.984329949405">
        <ele>84.2</ele>
        <time>2018-03-03T17:24:54Z</time>
      </trkpt>
      <trkpt lat="62.633332091579" lon="17.984253925572">
        <ele>84.2</ele>
        <time>2018-03-03T17:24:55Z</time>
      </trkpt>
      <trkpt lat="62.633340641117" lon="17.984165412708">
        <ele>84.4</ele>
        <time>2018-03-03T17:24:56Z</time>
      </trkpt>
      <trkpt lat="62.633337539814" lon="17.984065835736">
        <ele>84.6</ele>
        <time>2018-03-03T17:24:57Z</time>
      </trkpt>
      <trkpt lat="62.633341646945" lon="17.98399425431">
        <ele>84.8</ele>
        <time>2018-03-03T17:24:58Z</time>
      </trkpt>
      <trkpt lat="62.633347346637" lon="17.983941196883">
        <ele>85</ele>
        <time>2018-03-03T17:24:59Z</time>
      </trkpt>
      <trkpt lat="62.633349525931" lon="17.983848073974">
        <ele>85.2</ele>
        <time>2018-03-03T17:25:00Z</time>
      </trkpt>
      <trkpt lat="62.633358746021" lon="17.983772301598">
        <ele>85.4</ele>
        <time>2018-03-03T17:25:01Z</time>
      </trkpt>
      <trkpt lat="62.63337224088" lon="17.983712454832">
        <ele>85.6</ele>
        <time>2018-03-03T17:25:02Z</time>
      </trkpt>
      <trkpt lat="62.633380371323" lon="17.983643807071">
        <ele>85.8</ele>
        <time>2018-03-03T17:25:03Z</time>
      </trkpt>
      <trkpt lat="62.63339654839" lon="17.983570549265">
        <ele>86</ele>
        <time>2018-03-03T17:25:04Z</time>
      </trkpt>
      <trkpt lat="62.633406858127" lon="17.983512546517">
        <ele>86</ele>
        <time>2018-03-03T17:25:05Z</time>
      </trkpt>
      <trkpt lat="62.63341331219" lon="17.983451442466">
        <ele>86.2</ele>
        <time>2018-03-03T17:25:06Z</time>
      </trkpt>
      <trkpt lat="62.633433512569" lon="17.983374496624">
        <ele>86.2</ele>
        <time>2018-03-03T17:25:07Z</time>
      </trkpt>
      <trkpt lat="62.633444073763" lon="17.983310626546">
        <ele>86.2</ele>
        <time>2018-03-03T17:25:08Z</time>
      </trkpt>
      <trkpt lat="62.633459245002" lon="17.983238793663">
        <ele>86</ele>
        <time>2018-03-03T17:25:09Z</time>
      </trkpt>
      <trkpt lat="62.633475505888" lon="17.983176683784">
        <ele>86</ele>
        <time>2018-03-03T17:25:10Z</time>
      </trkpt>
      <trkpt lat="62.633485983263" lon="17.983117423751">
        <ele>86</ele>
        <time>2018-03-03T17:25:11Z</time>
      </trkpt>
      <trkpt lat="62.633501238321" lon="17.983046429058">
        <ele>86</ele>
        <time>2018-03-03T17:25:12Z</time>
      </trkpt>
      <trkpt lat="62.63351138042" lon="17.982986582292">
        <ele>86.2</ele>
        <time>2018-03-03T17:25:13Z</time>
      </trkpt>
      <trkpt lat="62.633522444528" lon="17.982926819345">
        <ele>86.2</ele>
        <time>2018-03-03T17:25:14Z</time>
      </trkpt>
      <trkpt lat="62.633539795061" lon="17.982852136616">
        <ele>86.2</ele>
        <time>2018-03-03T17:25:15Z</time>
      </trkpt>
      <trkpt lat="62.633548847513" lon="17.982793714773">
        <ele>86.2</ele>
        <time>2018-03-03T17:25:16Z</time>
      </trkpt>
      <trkpt lat="62.633563683476" lon="17.982732862179">
        <ele>86.2</ele>
        <time>2018-03-03T17:25:17Z</time>
      </trkpt>
      <trkpt lat="62.633573155023" lon="17.982670584662">
        <ele>86.2</ele>
        <time>2018-03-03T17:25:18Z</time>
      </trkpt>
      <trkpt lat="62.633578267982" lon="17.982610989353">
        <ele>86.2</ele>
        <time>2018-03-03T17:25:19Z</time>
      </trkpt>
      <trkpt lat="62.633589164452" lon="17.982542425411">
        <ele>86.2</ele>
        <time>2018-03-03T17:25:20Z</time>
      </trkpt>
      <trkpt lat="62.633605509157" lon="17.982480064075">
        <ele>86.2</ele>
        <time>2018-03-03T17:25:21Z</time>
      </trkpt>
      <trkpt lat="62.633614058695" lon="17.982422899517">
        <ele>86.2</ele>
        <time>2018-03-03T17:25:22Z</time>
      </trkpt>
      <trkpt lat="62.633630068124" lon="17.982331620626">
        <ele>86.2</ele>
        <time>2018-03-03T17:25:23Z</time>
      </trkpt>
      <trkpt lat="62.633638533843" lon="17.982261045028">
        <ele>86.4</ele>
        <time>2018-03-03T17:25:24Z</time>
      </trkpt>
      <trkpt lat="62.633646999562" lon="17.982201030624">
        <ele>86.2</ele>
        <time>2018-03-03T17:25:25Z</time>
      </trkpt>
      <trkpt lat="62.633653956539" lon="17.982126347895">
        <ele>86.2</ele>
        <time>2018-03-03T17:25:26Z</time>
      </trkpt>
      <trkpt lat="62.633657979851" lon="17.982066920224">
        <ele>86.2</ele>
        <time>2018-03-03T17:25:27Z</time>
      </trkpt>
      <trkpt lat="62.633664601552" lon="17.982003804517">
        <ele>86.2</ele>
        <time>2018-03-03T17:25:28Z</time>
      </trkpt>
      <trkpt lat="62.633672145262" lon="17.981948735434">
        <ele>86.2</ele>
        <time>2018-03-03T17:25:29Z</time>
      </trkpt>
      <trkpt lat="62.633676671488" lon="17.981884949175">
        <ele>86.4</ele>
        <time>2018-03-03T17:25:30Z</time>
      </trkpt>
      <trkpt lat="62.633684215198" lon="17.981816720509">
        <ele>86.6</ele>
        <time>2018-03-03T17:25:31Z</time>
      </trkpt>
      <trkpt lat="62.633690417804" lon="17.981750084404">
        <ele>86.6</ele>
        <time>2018-03-03T17:25:32Z</time>
      </trkpt>
      <trkpt lat="62.633689495795" lon="17.981689650905">
        <ele>86.6</ele>
        <time>2018-03-03T17:25:33Z</time>
      </trkpt>
      <trkpt lat="62.633698883523" lon="17.981604071706">
        <ele>86.8</ele>
        <time>2018-03-03T17:25:34Z</time>
      </trkpt>
      <trkpt lat="62.633701733369" lon="17.981544811673">
        <ele>86.8</ele>
        <time>2018-03-03T17:25:35Z</time>
      </trkpt>
      <trkpt lat="62.633713216572" lon="17.98148555164">
        <ele>86.8</ele>
        <time>2018-03-03T17:25:36Z</time>
      </trkpt>
      <trkpt lat="62.633728723087" lon="17.981409108712">
        <ele>86.6</ele>
        <time>2018-03-03T17:25:37Z</time>
      </trkpt>
      <trkpt lat="62.633746241258" lon="17.98133635382">
        <ele>86.6</ele>
        <time>2018-03-03T17:25:38Z</time>
      </trkpt>
      <trkpt lat="62.633766525456" lon="17.98126007853">
        <ele>86.6</ele>
        <time>2018-03-03T17:25:39Z</time>
      </trkpt>
      <trkpt lat="62.633783289256" lon="17.98120056704">
        <ele>86.6</ele>
        <time>2018-03-03T17:25:40Z</time>
      </trkpt>
      <trkpt lat="62.63380055597" lon="17.981143989215">
        <ele>86.6</ele>
        <time>2018-03-03T17:25:41Z</time>
      </trkpt>
      <trkpt lat="62.633823103281" lon="17.981079951499">
        <ele>86.6</ele>
        <time>2018-03-03T17:25:42Z</time>
      </trkpt>
      <trkpt lat="62.633843387479" lon="17.981035611248">
        <ele>86.8</ele>
        <time>2018-03-03T17:25:43Z</time>
      </trkpt>
      <trkpt lat="62.633862833487" lon="17.980991438635">
        <ele>86.8</ele>
        <time>2018-03-03T17:25:44Z</time>
      </trkpt>
      <trkpt lat="62.633886302807" lon="17.980933268249">
        <ele>87</ele>
        <time>2018-03-03T17:25:45Z</time>
      </trkpt>
      <trkpt lat="62.633908011928" lon="17.980881887202">
        <ele>87</ele>
        <time>2018-03-03T17:25:46Z</time>
      </trkpt>
      <trkpt lat="62.633919327493" lon="17.980829332689">
        <ele>87.2</ele>
        <time>2018-03-03T17:25:47Z</time>
      </trkpt>
      <trkpt lat="62.633936091293" lon="17.980769569742">
        <ele>87.4</ele>
        <time>2018-03-03T17:25:48Z</time>
      </trkpt>
      <trkpt lat="62.633951765446" lon="17.980706118759">
        <ele>87.6</ele>
        <time>2018-03-03T17:25:49Z</time>
      </trkpt>
      <trkpt lat="62.633964338296" lon="17.980659431576">
        <ele>87.8</ele>
        <time>2018-03-03T17:25:50Z</time>
      </trkpt>
      <trkpt lat="62.633985963598" lon="17.980601428828">
        <ele>87.8</ele>
        <time>2018-03-03T17:25:51Z</time>
      </trkpt>
      <trkpt lat="62.634012198945" lon="17.980544851003">
        <ele>88</ele>
        <time>2018-03-03T17:25:52Z</time>
      </trkpt>
      <trkpt lat="62.634023765967" lon="17.980493805232">
        <ele>88</ele>
        <time>2018-03-03T17:25:53Z</time>
      </trkpt>
      <trkpt lat="62.634046061821" lon="17.980435215751">
        <ele>88</ele>
        <time>2018-03-03T17:25:54Z</time>
      </trkpt>
      <trkpt lat="62.63407129134" lon="17.980385343446">
        <ele>87.8</ele>
        <time>2018-03-03T17:25:55Z</time>
      </trkpt>
      <trkpt lat="62.634092832823" lon="17.980335638779">
        <ele>87.8</ele>
        <time>2018-03-03T17:25:56Z</time>
      </trkpt>
      <trkpt lat="62.634117307971" lon="17.980289622148">
        <ele>87.8</ele>
        <time>2018-03-03T17:25:57Z</time>
      </trkpt>
      <trkpt lat="62.634138681816" lon="17.980236983816">
        <ele>88</ele>
        <time>2018-03-03T17:25:58Z</time>
      </trkpt>
      <trkpt lat="62.63416433043" lon="17.980186105683">
        <ele>88</ele>
        <time>2018-03-03T17:25:59Z</time>
      </trkpt>
      <trkpt lat="62.634192996528" lon="17.980128773487">
        <ele>88</ele>
        <time>2018-03-03T17:26:00Z</time>
      </trkpt>
      <trkpt lat="62.634208335405" lon="17.980075296965">
        <ele>88</ele>
        <time>2018-03-03T17:26:01Z</time>
      </trkpt>
      <trkpt lat="62.634231720906" lon="17.980019389692">
        <ele>88</ele>
        <time>2018-03-03T17:26:02Z</time>
      </trkpt>
      <trkpt lat="62.634248903801" lon="17.979959626745">
        <ele>88</ele>
        <time>2018-03-03T17:26:03Z</time>
      </trkpt>
      <trkpt lat="62.634272037845" lon="17.979908413336">
        <ele>88</ele>
        <time>2018-03-03T17:26:04Z</time>
      </trkpt>
      <trkpt lat="62.634293830785" lon="17.979841525774">
        <ele>88</ele>
        <time>2018-03-03T17:26:05Z</time>
      </trkpt>
      <trkpt lat="62.63431855739" lon="17.979786121415">
        <ele>88</ele>
        <time>2018-03-03T17:26:06Z</time>
      </trkpt>
      <trkpt lat="62.634329621498" lon="17.979728956857">
        <ele>88</ele>
        <time>2018-03-03T17:26:07Z</time>
      </trkpt>
      <trkpt lat="62.634346636755" lon="17.979661817838">
        <ele>88</ele>
        <time>2018-03-03T17:26:08Z</time>
      </trkpt>
      <trkpt lat="62.634359209605" lon="17.979592331887">
        <ele>88</ele>
        <time>2018-03-03T17:26:09Z</time>
      </trkpt>
      <trkpt lat="62.634375386672" lon="17.97953759808">
        <ele>87.8</ele>
        <time>2018-03-03T17:26:10Z</time>
      </trkpt>
      <trkpt lat="62.634391060825" lon="17.979467693034">
        <ele>87.8</ele>
        <time>2018-03-03T17:26:11Z</time>
      </trkpt>
      <trkpt lat="62.634404639503" lon="17.979402062757">
        <ele>87.8</ele>
        <time>2018-03-03T17:26:12Z</time>
      </trkpt>
      <trkpt lat="62.634409501005" lon="17.979344730561">
        <ele>88</ele>
        <time>2018-03-03T17:26:13Z</time>
      </trkpt>
      <trkpt lat="62.634421319484" lon="17.979267784719">
        <ele>88</ele>
        <time>2018-03-03T17:26:14Z</time>
      </trkpt>
      <trkpt lat="62.634428444099" lon="17.979216403672">
        <ele>88</ele>
        <time>2018-03-03T17:26:15Z</time>
      </trkpt>
      <trkpt lat="62.634443782976" lon="17.979153287965">
        <ele>87.8</ele>
        <time>2018-03-03T17:26:16Z</time>
      </trkpt>
      <trkpt lat="62.634454260351" lon="17.979084556385">
        <ele>87.8</ele>
        <time>2018-03-03T17:26:17Z</time>
      </trkpt>
      <trkpt lat="62.634465911192" lon="17.97901372933">
        <ele>87.6</ele>
        <time>2018-03-03T17:26:18Z</time>
      </trkpt>
      <trkpt lat="62.63447865168" lon="17.97894332137">
        <ele>87.6</ele>
        <time>2018-03-03T17:26:19Z</time>
      </trkpt>
      <trkpt lat="62.634499354973" lon="17.978817341413">
        <ele>87.8</ele>
        <time>2018-03-03T17:26:21Z</time>
      </trkpt>
      <trkpt lat="62.634511089633" lon="17.978759254846">
        <ele>87.8</ele>
        <time>2018-03-03T17:26:22Z</time>
      </trkpt>
      <trkpt lat="62.634521231732" lon="17.978715752785">
        <ele>88</ele>
        <time>2018-03-03T17:26:23Z</time>
      </trkpt>
      <trkpt lat="62.634545539242" lon="17.978685577945">
        <ele>88</ele>
        <time>2018-03-03T17:26:24Z</time>
      </trkpt>
      <trkpt lat="62.634565655802" lon="17.978676441674">
        <ele>88</ele>
        <time>2018-03-03T17:26:25Z</time>
      </trkpt>
      <trkpt lat="62.634590717683" lon="17.978696809691">
        <ele>88</ele>
        <time>2018-03-03T17:26:26Z</time>
      </trkpt>
      <trkpt lat="62.634603122895" lon="17.978714998414">
        <ele>88.2</ele>
        <time>2018-03-03T17:26:27Z</time>
      </trkpt>
      <trkpt lat="62.634622485084" lon="17.97875137586">
        <ele>88.2</ele>
        <time>2018-03-03T17:26:28Z</time>
      </trkpt>
      <trkpt lat="62.634641428178" lon="17.978774426085">
        <ele>88.2</ele>
        <time>2018-03-03T17:26:29Z</time>
      </trkpt>
      <trkpt lat="62.634668250258" lon="17.978801248165">
        <ele>88</ele>
        <time>2018-03-03T17:26:30Z</time>
      </trkpt>
      <trkpt lat="62.634694737062" lon="17.978810803531">
        <ele>88</ele>
        <time>2018-03-03T17:26:31Z</time>
      </trkpt>
      <trkpt lat="62.63472675592" lon="17.978829411349">
        <ele>87.8</ele>
        <time>2018-03-03T17:26:32Z</time>
      </trkpt>
      <trkpt lat="62.634755673475" lon="17.978834775765">
        <ele>87.8</ele>
        <time>2018-03-03T17:26:33Z</time>
      </trkpt>
      <trkpt lat="62.634790290722" lon="17.978853299764">
        <ele>87.6</ele>
        <time>2018-03-03T17:26:34Z</time>
      </trkpt>
      <trkpt lat="62.634818034811" lon="17.978854389411">
        <ele>87.6</ele>
        <time>2018-03-03T17:26:35Z</time>
      </trkpt>
      <trkpt lat="62.634852065325" lon="17.978869057736">
        <ele>87.4</ele>
        <time>2018-03-03T17:26:36Z</time>
      </trkpt>
      <trkpt lat="62.634879474138" lon="17.978879702749">
        <ele>87.4</ele>
        <time>2018-03-03T17:26:37Z</time>
      </trkpt>
      <trkpt lat="62.634903362553" lon="17.97889219178">
        <ele>87.4</ele>
        <time>2018-03-03T17:26:38Z</time>
      </trkpt>
      <trkpt lat="62.63492624514" lon="17.97889554454">
        <ele>87.2</ele>
        <time>2018-03-03T17:26:39Z</time>
      </trkpt>
      <trkpt lat="62.634957006713" lon="17.978906524829">
        <ele>87</ele>
        <time>2018-03-03T17:26:40Z</time>
      </trkpt>
      <trkpt lat="62.634977123273" lon="17.978913062711">
        <ele>87</ele>
        <time>2018-03-03T17:26:41Z</time>
      </trkpt>
      <trkpt lat="62.63499916767" lon="17.978923288629">
        <ele>87</ele>
        <time>2018-03-03T17:26:42Z</time>
      </trkpt>
      <trkpt lat="62.635022217895" lon="17.978927479579">
        <ele>86.8</ele>
        <time>2018-03-03T17:26:43Z</time>
      </trkpt>
      <trkpt lat="62.635041747722" lon="17.978933766004">
        <ele>86.8</ele>
        <time>2018-03-03T17:26:44Z</time>
      </trkpt>
      <trkpt lat="62.635071503467" lon="17.978944913931">
        <ele>86.8</ele>
        <time>2018-03-03T17:26:45Z</time>
      </trkpt>
      <trkpt lat="62.635095140425" lon="17.978951787089">
        <ele>86.8</ele>
        <time>2018-03-03T17:26:46Z</time>
      </trkpt>
      <trkpt lat="62.635125985817" lon="17.978963270292">
        <ele>86.8</ele>
        <time>2018-03-03T17:26:47Z</time>
      </trkpt>
      <trkpt lat="62.635154903372" lon="17.978969556717">
        <ele>86.8</ele>
        <time>2018-03-03T17:26:48Z</time>
      </trkpt>
      <trkpt lat="62.635209050446" lon="17.978989757096">
        <ele>87</ele>
        <time>2018-03-03T17:26:49Z</time>
      </trkpt>
      <trkpt lat="62.635239812019" lon="17.978995037693">
        <ele>87</ele>
        <time>2018-03-03T17:26:50Z</time>
      </trkpt>
      <trkpt lat="62.635271830877" lon="17.97900199467">
        <ele>86.8</ele>
        <time>2018-03-03T17:26:51Z</time>
      </trkpt>
      <trkpt lat="62.635302424812" lon="17.979009706018">
        <ele>86.6</ele>
        <time>2018-03-03T17:26:52Z</time>
      </trkpt>
      <trkpt lat="62.635333270204" lon="17.979009119285">
        <ele>86</ele>
        <time>2018-03-03T17:26:53Z</time>
      </trkpt>
      <trkpt lat="62.635364450872" lon="17.979010628027">
        <ele>85.6</ele>
        <time>2018-03-03T17:26:54Z</time>
      </trkpt>
      <trkpt lat="62.635395966816" lon="17.97900953838">
        <ele>85.2</ele>
        <time>2018-03-03T17:26:55Z</time>
      </trkpt>
      <trkpt lat="62.635429578235" lon="17.979007694362">
        <ele>84.8</ele>
        <time>2018-03-03T17:26:56Z</time>
      </trkpt>
      <trkpt lat="62.635463105835" lon="17.979008029638">
        <ele>84.6</ele>
        <time>2018-03-03T17:26:57Z</time>
      </trkpt>
      <trkpt lat="62.635494957055" lon="17.979012472045">
        <ele>84.4</ele>
        <time>2018-03-03T17:26:58Z</time>
      </trkpt>
      <trkpt lat="62.635531334501" lon="17.979003922507">
        <ele>84.2</ele>
        <time>2018-03-03T17:26:59Z</time>
      </trkpt>
      <trkpt lat="62.635567292852" lon="17.978999815376">
        <ele>83.8</ele>
        <time>2018-03-03T17:27:00Z</time>
      </trkpt>
      <trkpt lat="62.635602999746" lon="17.978995624426">
        <ele>83.6</ele>
        <time>2018-03-03T17:27:01Z</time>
      </trkpt>
      <trkpt lat="62.635637197898" lon="17.978992020209">
        <ele>83.4</ele>
        <time>2018-03-03T17:27:02Z</time>
      </trkpt>
      <trkpt lat="62.635681705787" lon="17.978987410164">
        <ele>83.2</ele>
        <time>2018-03-03T17:27:03Z</time>
      </trkpt>
      <trkpt lat="62.635719089061" lon="17.978986320517">
        <ele>83.2</ele>
        <time>2018-03-03T17:27:04Z</time>
      </trkpt>
      <trkpt lat="62.635750688824" lon="17.978986236698">
        <ele>83.4</ele>
        <time>2018-03-03T17:27:05Z</time>
      </trkpt>
      <trkpt lat="62.635784216424" lon="17.978984476499">
        <ele>83.6</ele>
        <time>2018-03-03T17:27:06Z</time>
      </trkpt>
      <trkpt lat="62.635820174775" lon="17.978985566146">
        <ele>83.6</ele>
        <time>2018-03-03T17:27:07Z</time>
      </trkpt>
      <trkpt lat="62.63583903405" lon="17.97898774544">
        <ele>83.6</ele>
        <time>2018-03-03T17:27:08Z</time>
      </trkpt>
      <trkpt lat="62.635866861958" lon="17.978992271666">
        <ele>83.6</ele>
        <time>2018-03-03T17:27:09Z</time>
      </trkpt>
      <trkpt lat="62.635895360418" lon="17.978997971358">
        <ele>83.6</ele>
        <time>2018-03-03T17:27:10Z</time>
      </trkpt>
      <trkpt lat="62.635906424526" lon="17.979000737385">
        <ele>83.6</ele>
        <time>2018-03-03T17:27:11Z</time>
      </trkpt>
      <trkpt lat="62.635920589937" lon="17.979002665222">
        <ele>83.4</ele>
        <time>2018-03-03T17:27:12Z</time>
      </trkpt>
      <trkpt lat="62.63593961685" lon="17.979010125113">
        <ele>83.4</ele>
        <time>2018-03-03T17:27:13Z</time>
      </trkpt>
      <trkpt lat="62.635956632107" lon="17.979023619972">
        <ele>83.4</ele>
        <time>2018-03-03T17:27:14Z</time>
      </trkpt>
      <trkpt lat="62.635972892993" lon="17.979040216134">
        <ele>83.6</ele>
        <time>2018-03-03T17:27:15Z</time>
      </trkpt>
      <trkpt lat="62.635988902422" lon="17.979056309382">
        <ele>83.6</ele>
        <time>2018-03-03T17:27:16Z</time>
      </trkpt>
      <trkpt lat="62.636002145824" lon="17.979077264132">
        <ele>83.6</ele>
        <time>2018-03-03T17:27:17Z</time>
      </trkpt>
      <trkpt lat="62.636006085317" lon="17.979107858067">
        <ele>84</ele>
        <time>2018-03-03T17:27:18Z</time>
      </trkpt>
      <trkpt lat="62.636009102801" lon="17.979129986283">
        <ele>84</ele>
        <time>2018-03-03T17:27:19Z</time>
      </trkpt>
      <trkpt lat="62.636009521896" lon="17.979155802535">
        <ele>84.2</ele>
        <time>2018-03-03T17:27:20Z</time>
      </trkpt>
      <trkpt lat="62.636006169136" lon="17.979172314878">
        <ele>84.4</ele>
        <time>2018-03-03T17:27:21Z</time>
      </trkpt>
      <trkpt lat="62.636001139996" lon="17.979195700379">
        <ele>84.4</ele>
        <time>2018-03-03T17:27:23Z</time>
      </trkpt>
      <trkpt lat="62.636000050349" lon="17.979218080052">
        <ele>84.4</ele>
        <time>2018-03-03T17:27:24Z</time>
      </trkpt>
      <trkpt lat="62.635997535779" lon="17.979256636792">
        <ele>84.2</ele>
        <time>2018-03-03T17:27:25Z</time>
      </trkpt>
      <trkpt lat="62.635991752268" lon="17.979311202961">
        <ele>84</ele>
        <time>2018-03-03T17:27:26Z</time>
      </trkpt>
      <trkpt lat="62.63598404092" lon="17.979372307012">
        <ele>84</ele>
        <time>2018-03-03T17:27:27Z</time>
      </trkpt>
      <trkpt lat="62.635978341228" lon="17.979443636981">
        <ele>84</ele>
        <time>2018-03-03T17:27:28Z</time>
      </trkpt>
      <trkpt lat="62.635983118911" lon="17.97954765636">
        <ele>83.8</ele>
        <time>2018-03-03T17:27:29Z</time>
      </trkpt>
      <trkpt lat="62.635981274893" lon="17.979683107864">
        <ele>83.4</ele>
        <time>2018-03-03T17:27:30Z</time>
      </trkpt>
      <trkpt lat="62.635982532178" lon="17.97983180277">
        <ele>83</ele>
        <time>2018-03-03T17:27:31Z</time>
      </trkpt>
      <trkpt lat="62.635984795291" lon="17.979981168228">
        <ele>82.6</ele>
        <time>2018-03-03T17:27:32Z</time>
      </trkpt>
      <trkpt lat="62.636002313462" lon="17.980131539514">
        <ele>81.6</ele>
        <time>2018-03-03T17:27:33Z</time>
      </trkpt>
      <trkpt lat="62.636018490529" lon="17.980274031814">
        <ele>81</ele>
        <time>2018-03-03T17:27:34Z</time>
      </trkpt>
      <trkpt lat="62.636040618745" lon="17.980397664839">
        <ele>80.2</ele>
        <time>2018-03-03T17:27:35Z</time>
      </trkpt>
      <trkpt lat="62.636063333694" lon="17.980546024469">
        <ele>78.4</ele>
        <time>2018-03-03T17:27:36Z</time>
      </trkpt>
      <trkpt lat="62.636080265132" lon="17.980671920607">
        <ele>77.8</ele>
        <time>2018-03-03T17:27:37Z</time>
      </trkpt>
      <trkpt lat="62.636096693656" lon="17.980785160076">
        <ele>77.2</ele>
        <time>2018-03-03T17:27:39Z</time>
      </trkpt>
      <trkpt lat="62.636128125781" lon="17.980935531362">
        <ele>77</ele>
        <time>2018-03-03T17:27:40Z</time>
      </trkpt>
      <trkpt lat="62.636148493798" lon="17.98105472198">
        <ele>76.6</ele>
        <time>2018-03-03T17:27:41Z</time>
      </trkpt>
      <trkpt lat="62.636165844331" lon="17.981176343349">
        <ele>76.2</ele>
        <time>2018-03-03T17:27:42Z</time>
      </trkpt>
      <trkpt lat="62.636174393869" lon="17.98127851871">
        <ele>76</ele>
        <time>2018-03-03T17:27:43Z</time>
      </trkpt>
      <trkpt lat="62.636180428837" lon="17.981386393763">
        <ele>75.6</ele>
        <time>2018-03-03T17:27:44Z</time>
      </trkpt>
      <trkpt lat="62.636186799081" lon="17.981483623803">
        <ele>75.4</ele>
        <time>2018-03-03T17:27:45Z</time>
      </trkpt>
      <trkpt lat="62.636194510429" lon="17.981576830531">
        <ele>75.2</ele>
        <time>2018-03-03T17:27:46Z</time>
      </trkpt>
      <trkpt lat="62.636203898157" lon="17.981658973151">
        <ele>75.2</ele>
        <time>2018-03-03T17:27:47Z</time>
      </trkpt>
      <trkpt lat="62.63621621955" lon="17.981741283409">
        <ele>75.2</ele>
        <time>2018-03-03T17:27:48Z</time>
      </trkpt>
      <trkpt lat="62.636230301142" lon="17.981831053558">
        <ele>75.2</ele>
        <time>2018-03-03T17:27:49Z</time>
      </trkpt>
      <trkpt lat="62.636242035802" lon="17.981908586133">
        <ele>75.2</ele>
        <time>2018-03-03T17:27:50Z</time>
      </trkpt>
      <trkpt lat="62.636252764634" lon="17.98200187668">
        <ele>75.2</ele>
        <time>2018-03-03T17:27:51Z</time>
      </trkpt>
      <trkpt lat="62.636265840398" lon="17.98209491577">
        <ele>75.4</ele>
        <time>2018-03-03T17:27:52Z</time>
      </trkpt>
      <trkpt lat="62.636272881194" lon="17.982154678717">
        <ele>75.4</ele>
        <time>2018-03-03T17:27:53Z</time>
      </trkpt>
      <trkpt lat="62.636276820687" lon="17.982231624559">
        <ele>75.6</ele>
        <time>2018-03-03T17:27:54Z</time>
      </trkpt>
      <trkpt lat="62.636282520379" lon="17.982307564573">
        <ele>75.8</ele>
        <time>2018-03-03T17:27:55Z</time>
      </trkpt>
      <trkpt lat="62.636288722985" lon="17.982377637257">
        <ele>76</ele>
        <time>2018-03-03T17:27:56Z</time>
      </trkpt>
      <trkpt lat="62.63629249484" lon="17.982455840384">
        <ele>76.2</ele>
        <time>2018-03-03T17:27:57Z</time>
      </trkpt>
      <trkpt lat="62.63629249484" lon="17.982527170353">
        <ele>76.2</ele>
        <time>2018-03-03T17:27:58Z</time>
      </trkpt>
      <trkpt lat="62.636293752125" lon="17.982594393191">
        <ele>76.2</ele>
        <time>2018-03-03T17:27:59Z</time>
      </trkpt>
      <trkpt lat="62.636295428505" lon="17.982673769784">
        <ele>76.4</ele>
        <time>2018-03-03T17:28:00Z</time>
      </trkpt>
      <trkpt lat="62.636292578659" lon="17.982759684259">
        <ele>76.2</ele>
        <time>2018-03-03T17:28:01Z</time>
      </trkpt>
      <trkpt lat="62.636291740469" lon="17.982824643984">
        <ele>76.4</ele>
        <time>2018-03-03T17:28:02Z</time>
      </trkpt>
      <trkpt lat="62.63628998027" lon="17.982879880705">
        <ele>76.4</ele>
        <time>2018-03-03T17:28:03Z</time>
      </trkpt>
      <trkpt lat="62.63628830389" lon="17.98294232586">
        <ele>76.6</ele>
        <time>2018-03-03T17:28:04Z</time>
      </trkpt>
      <trkpt lat="62.636288220071" lon="17.982995634744">
        <ele>76.6</ele>
        <time>2018-03-03T17:28:05Z</time>
      </trkpt>
      <trkpt lat="62.636290231727" lon="17.983068305817">
        <ele>76.8</ele>
        <time>2018-03-03T17:28:06Z</time>
      </trkpt>
      <trkpt lat="62.636290231727" lon="17.983133684637">
        <ele>76.8</ele>
        <time>2018-03-03T17:28:07Z</time>
      </trkpt>
      <trkpt lat="62.636288806804" lon="17.983199985466">
        <ele>76.6</ele>
        <time>2018-03-03T17:28:08Z</time>
      </trkpt>
      <trkpt lat="62.636283442388" lon="17.983270980159">
        <ele>76.8</ele>
        <time>2018-03-03T17:28:09Z</time>
      </trkpt>
      <trkpt lat="62.636281430732" lon="17.983329737278">
        <ele>76.8</ele>
        <time>2018-03-03T17:28:10Z</time>
      </trkpt>
      <trkpt lat="62.636278413248" lon="17.983381034506">
        <ele>76.8</ele>
        <time>2018-03-03T17:28:11Z</time>
      </trkpt>
      <trkpt lat="62.636270282805" lon="17.98344021072">
        <ele>77</ele>
        <time>2018-03-03T17:28:12Z</time>
      </trkpt>
      <trkpt lat="62.636261062715" lon="17.983495112165">
        <ele>77</ele>
        <time>2018-03-03T17:28:13Z</time>
      </trkpt>
      <trkpt lat="62.636255111566" lon="17.983554875112">
        <ele>77.2</ele>
        <time>2018-03-03T17:28:14Z</time>
      </trkpt>
      <trkpt lat="62.636246729666" lon="17.983617655543">
        <ele>77.2</ele>
        <time>2018-03-03T17:28:15Z</time>
      </trkpt>
      <trkpt lat="62.636238096309" lon="17.983679262508">
        <ele>77.2</ele>
        <time>2018-03-03T17:28:16Z</time>
      </trkpt>
      <trkpt lat="62.63623130697" lon="17.983736175609">
        <ele>77.2</ele>
        <time>2018-03-03T17:28:17Z</time>
      </trkpt>
      <trkpt lat="62.636223847079" lon="17.983794597452">
        <ele>77.4</ele>
        <time>2018-03-03T17:28:18Z</time>
      </trkpt>
      <trkpt lat="62.636218398844" lon="17.983863748127">
        <ele>77.4</ele>
        <time>2018-03-03T17:28:19Z</time>
      </trkpt>
      <trkpt lat="62.63621957231" lon="17.983916051183">
        <ele>77.6</ele>
        <time>2018-03-03T17:28:20Z</time>
      </trkpt>
      <trkpt lat="62.63621454317" lon="17.983982687288">
        <ele>77.8</ele>
        <time>2018-03-03T17:28:21Z</time>
      </trkpt>
      <trkpt lat="62.636207502374" lon="17.984045300081">
        <ele>78</ele>
        <time>2018-03-03T17:28:22Z</time>
      </trkpt>
      <trkpt lat="62.636202305596" lon="17.984093328368">
        <ele>78</ele>
        <time>2018-03-03T17:28:23Z</time>
      </trkpt>
      <trkpt lat="62.636197527913" lon="17.984156779351">
        <ele>78</ele>
        <time>2018-03-03T17:28:24Z</time>
      </trkpt>
      <trkpt lat="62.636194845705" lon="17.98420799276">
        <ele>78</ele>
        <time>2018-03-03T17:28:25Z</time>
      </trkpt>
      <trkpt lat="62.636191995859" lon="17.984273203942">
        <ele>78</ele>
        <time>2018-03-03T17:28:26Z</time>
      </trkpt>
      <trkpt lat="62.636194929524" lon="17.984330200862">
        <ele>78.2</ele>
        <time>2018-03-03T17:28:27Z</time>
      </trkpt>
      <trkpt lat="62.636197024999" lon="17.984382001004">
        <ele>78.2</ele>
        <time>2018-03-03T17:28:28Z</time>
      </trkpt>
      <trkpt lat="62.636198114646" lon="17.984441680132">
        <ele>78.4</ele>
        <time>2018-03-03T17:28:29Z</time>
      </trkpt>
      <trkpt lat="62.636199623388" lon="17.984497419767">
        <ele>78.6</ele>
        <time>2018-03-03T17:28:30Z</time>
      </trkpt>
      <trkpt lat="62.636195683895" lon="17.984554668144">
        <ele>78.6</ele>
        <time>2018-03-03T17:28:31Z</time>
      </trkpt>
      <trkpt lat="62.636188978375" lon="17.984612419435">
        <ele>78.8</ele>
        <time>2018-03-03T17:28:32Z</time>
      </trkpt>
      <trkpt lat="62.636184452149" lon="17.984656592048">
        <ele>78.8</ele>
        <time>2018-03-03T17:28:33Z</time>
      </trkpt>
      <trkpt lat="62.636182189036" lon="17.984713588968">
        <ele>78.8</ele>
        <time>2018-03-03T17:28:34Z</time>
      </trkpt>
      <trkpt lat="62.636178501" lon="17.984766562576">
        <ele>79</ele>
        <time>2018-03-03T17:28:35Z</time>
      </trkpt>
      <trkpt lat="62.636174058593" lon="17.984817440709">
        <ele>79</ele>
        <time>2018-03-03T17:28:36Z</time>
      </trkpt>
      <trkpt lat="62.636170873471" lon="17.984873431801">
        <ele>79</ele>
        <time>2018-03-03T17:28:37Z</time>
      </trkpt>
      <trkpt lat="62.636170035281" lon="17.984925734857">
        <ele>79.2</ele>
        <time>2018-03-03T17:28:38Z</time>
      </trkpt>
      <trkpt lat="62.636167185435" lon="17.984977870275">
        <ele>79.4</ele>
        <time>2018-03-03T17:28:39Z</time>
      </trkpt>
      <trkpt lat="62.636165006141" lon="17.985021288517">
        <ele>79.4</ele>
        <time>2018-03-03T17:28:40Z</time>
      </trkpt>
      <trkpt lat="62.636157043336" lon="17.985070322632">
        <ele>79.4</ele>
        <time>2018-03-03T17:28:41Z</time>
      </trkpt>
      <trkpt lat="62.636158719716" lon="17.985144921542">
        <ele>79.4</ele>
        <time>2018-03-03T17:28:42Z</time>
      </trkpt>
      <trkpt lat="62.636157797707" lon="17.985200996453">
        <ele>79.6</ele>
        <time>2018-03-03T17:28:43Z</time>
      </trkpt>
      <trkpt lat="62.636158216802" lon="17.985244330876">
        <ele>79.8</ele>
        <time>2018-03-03T17:28:44Z</time>
      </trkpt>
      <trkpt lat="62.636151008368" lon="17.985299651416">
        <ele>79.8</ele>
        <time>2018-03-03T17:28:45Z</time>
      </trkpt>
      <trkpt lat="62.636144889581" lon="17.985361845114">
        <ele>80</ele>
        <time>2018-03-03T17:28:46Z</time>
      </trkpt>
      <trkpt lat="62.63613910607" lon="17.985403503157">
        <ele>80</ele>
        <time>2018-03-03T17:28:47Z</time>
      </trkpt>
      <trkpt lat="62.636132568188" lon="17.985463685199">
        <ele>80.2</ele>
        <time>2018-03-03T17:28:48Z</time>
      </trkpt>
      <trkpt lat="62.636124521564" lon="17.985525208345">
        <ele>80.2</ele>
        <time>2018-03-03T17:28:49Z</time>
      </trkpt>
      <trkpt lat="62.636122929003" lon="17.985578684867">
        <ele>80.4</ele>
        <time>2018-03-03T17:28:50Z</time>
      </trkpt>
      <trkpt lat="62.636109517963" lon="17.985643393135">
        <ele>80.4</ele>
        <time>2018-03-03T17:28:51Z</time>
      </trkpt>
      <trkpt lat="62.636094430543" lon="17.9856882363">
        <ele>80.6</ele>
        <time>2018-03-03T17:28:52Z</time>
      </trkpt>
      <trkpt lat="62.636086048643" lon="17.985727547411">
        <ele>80.8</ele>
        <time>2018-03-03T17:28:53Z</time>
      </trkpt>
      <trkpt lat="62.636060232391" lon="17.985778006449">
        <ele>80.8</ele>
        <time>2018-03-03T17:28:54Z</time>
      </trkpt>
      <trkpt lat="62.636045312609" lon="17.985824777451">
        <ele>81</ele>
        <time>2018-03-03T17:28:55Z</time>
      </trkpt>
      <trkpt lat="62.636022346203" lon="17.985854365558">
        <ele>81.2</ele>
        <time>2018-03-03T17:28:56Z</time>
      </trkpt>
      <trkpt lat="62.636002900195" lon="17.985894179583">
        <ele>81</ele>
        <time>2018-03-03T17:28:57Z</time>
      </trkpt>
      <trkpt lat="62.635979263237" lon="17.985907171528">
        <ele>81.2</ele>
        <time>2018-03-03T17:28:58Z</time>
      </trkpt>
      <trkpt lat="62.635955961555" lon="17.985934999436">
        <ele>81.2</ele>
        <time>2018-03-03T17:28:59Z</time>
      </trkpt>
      <trkpt lat="62.635934084796" lon="17.985958049661">
        <ele>81.4</ele>
        <time>2018-03-03T17:29:00Z</time>
      </trkpt>
      <trkpt lat="62.635914974064" lon="17.985982021895">
        <ele>81.4</ele>
        <time>2018-03-03T17:29:01Z</time>
      </trkpt>
      <trkpt lat="62.63588848726" lon="17.98600171936">
        <ele>81.6</ele>
        <time>2018-03-03T17:29:02Z</time>
      </trkpt>
      <trkpt lat="62.63586753251" lon="17.986031726562">
        <ele>81.6</ele>
        <time>2018-03-03T17:29:03Z</time>
      </trkpt>
      <trkpt lat="62.635835513652" lon="17.98605284895">
        <ele>81.6</ele>
        <time>2018-03-03T17:29:04Z</time>
      </trkpt>
      <trkpt lat="62.63581221197" lon="17.986081263591">
        <ele>81.8</ele>
        <time>2018-03-03T17:29:05Z</time>
      </trkpt>
      <trkpt lat="62.635786563356" lon="17.986111186974">
        <ele>81.8</ele>
        <time>2018-03-03T17:29:06Z</time>
      </trkpt>
      <trkpt lat="62.635764854235" lon="17.986155611044">
        <ele>81.8</ele>
        <time>2018-03-03T17:29:07Z</time>
      </trkpt>
      <trkpt lat="62.635746749331" lon="17.986186204979">
        <ele>81.8</ele>
        <time>2018-03-03T17:29:08Z</time>
      </trkpt>
      <trkpt lat="62.635722944735" lon="17.986224091167">
        <ele>81.8</ele>
        <time>2018-03-03T17:29:09Z</time>
      </trkpt>
      <trkpt lat="62.635707270582" lon="17.986263569916">
        <ele>82.2</ele>
        <time>2018-03-03T17:29:10Z</time>
      </trkpt>
      <trkpt lat="62.635687656936" lon="17.986300282638">
        <ele>82.4</ele>
        <time>2018-03-03T17:29:11Z</time>
      </trkpt>
      <trkpt lat="62.635666869824" lon="17.986339342292">
        <ele>82.6</ele>
        <time>2018-03-03T17:29:12Z</time>
      </trkpt>
      <trkpt lat="62.635645747436" lon="17.986382676715">
        <ele>83</ele>
        <time>2018-03-03T17:29:13Z</time>
      </trkpt>
      <trkpt lat="62.635624205953" lon="17.986440595644">
        <ele>83.4</ele>
        <time>2018-03-03T17:29:14Z</time>
      </trkpt>
      <trkpt lat="62.635597300054" lon="17.986482588963">
        <ele>83.4</ele>
        <time>2018-03-03T17:29:15Z</time>
      </trkpt>
      <trkpt lat="62.635583553738" lon="17.986532209811">
        <ele>83.4</ele>
        <time>2018-03-03T17:29:16Z</time>
      </trkpt>
      <trkpt lat="62.635566035567" lon="17.986574286949">
        <ele>83.4</ele>
        <time>2018-03-03T17:29:17Z</time>
      </trkpt>
      <trkpt lat="62.635555977287" lon="17.986630948593">
        <ele>83.4</ele>
        <time>2018-03-03T17:29:18Z</time>
      </trkpt>
      <trkpt lat="62.635540722229" lon="17.986666571668">
        <ele>83.4</ele>
        <time>2018-03-03T17:29:19Z</time>
      </trkpt>
      <trkpt lat="62.635527814103" lon="17.986698758164">
        <ele>83.6</ele>
        <time>2018-03-03T17:29:20Z</time>
      </trkpt>
      <trkpt lat="62.635509373923" lon="17.98673681199">
        <ele>83.6</ele>
        <time>2018-03-03T17:29:21Z</time>
      </trkpt>
      <trkpt lat="62.635491771933" lon="17.986780481689">
        <ele>83.8</ele>
        <time>2018-03-03T17:29:22Z</time>
      </trkpt>
      <trkpt lat="62.635478109436" lon="17.986809985977">
        <ele>84</ele>
        <time>2018-03-03T17:29:23Z</time>
      </trkpt>
      <trkpt lat="62.635455226849" lon="17.986870419476">
        <ele>84</ele>
        <time>2018-03-03T17:29:24Z</time>
      </trkpt>
      <trkpt lat="62.635443156913" lon="17.98691618465">
        <ele>84.2</ele>
        <time>2018-03-03T17:29:25Z</time>
      </trkpt>
      <trkpt lat="62.635421950706" lon="17.986965554041">
        <ele>84.4</ele>
        <time>2018-03-03T17:29:26Z</time>
      </trkpt>
      <trkpt lat="62.635406695648" lon="17.987008804645">
        <ele>84.4</ele>
        <time>2018-03-03T17:29:27Z</time>
      </trkpt>
      <trkpt lat="62.635389596572" lon="17.987050797964">
        <ele>84.6</ele>
        <time>2018-03-03T17:29:28Z</time>
      </trkpt>
      <trkpt lat="62.635371072573" lon="17.987090192894">
        <ele>84.6</ele>
        <time>2018-03-03T17:29:29Z</time>
      </trkpt>
      <trkpt lat="62.635358499723" lon="17.987134784602">
        <ele>84.6</ele>
        <time>2018-03-03T17:29:30Z</time>
      </trkpt>
      <trkpt lat="62.635335198041" lon="17.987167222555">
        <ele>84.8</ele>
        <time>2018-03-03T17:29:31Z</time>
      </trkpt>
      <trkpt lat="62.6353151653" lon="17.987213658281">
        <ele>85</ele>
        <time>2018-03-03T17:29:32Z</time>
      </trkpt>
      <trkpt lat="62.635301838079" lon="17.987241821465">
        <ele>85.2</ele>
        <time>2018-03-03T17:29:33Z</time>
      </trkpt>
      <trkpt lat="62.635284487546" lon="17.98727995911">
        <ele>85.2</ele>
        <time>2018-03-03T17:29:34Z</time>
      </trkpt>
      <trkpt lat="62.635268310479" lon="17.987317426203">
        <ele>85.4</ele>
        <time>2018-03-03T17:29:35Z</time>
      </trkpt>
      <trkpt lat="62.635245846987" lon="17.987359000427">
        <ele>85.4</ele>
        <time>2018-03-03T17:29:36Z</time>
      </trkpt>
      <trkpt lat="62.635231933033" lon="17.987399904099">
        <ele>85.6</ele>
        <time>2018-03-03T17:29:37Z</time>
      </trkpt>
      <trkpt lat="62.63521206793" lon="17.987423876333">
        <ele>85.6</ele>
        <time>2018-03-03T17:29:38Z</time>
      </trkpt>
      <trkpt lat="62.635196561415" lon="17.987473581">
        <ele>85.8</ele>
        <time>2018-03-03T17:29:39Z</time>
      </trkpt>
      <trkpt lat="62.635176528674" lon="17.987507862971">
        <ele>86</ele>
        <time>2018-03-03T17:29:40Z</time>
      </trkpt>
      <trkpt lat="62.635164458738" lon="17.987554969249">
        <ele>86</ele>
        <time>2018-03-03T17:29:41Z</time>
      </trkpt>
      <trkpt lat="62.635145431825" lon="17.987590005591">
        <ele>86</ele>
        <time>2018-03-03T17:29:42Z</time>
      </trkpt>
      <trkpt lat="62.635125399084" lon="17.987618755508">
        <ele>86</ele>
        <time>2018-03-03T17:29:43Z</time>
      </trkpt>
      <trkpt lat="62.635109138198" lon="17.987658150438">
        <ele>86.2</ele>
        <time>2018-03-03T17:29:44Z</time>
      </trkpt>
      <trkpt lat="62.635087429077" lon="17.987690085477">
        <ele>86.4</ele>
        <time>2018-03-03T17:29:45Z</time>
      </trkpt>
      <trkpt lat="62.635070665277" lon="17.987729815683">
        <ele>86.6</ele>
        <time>2018-03-03T17:29:46Z</time>
      </trkpt>
      <trkpt lat="62.635052979468" lon="17.987763259464">
        <ele>86.6</ele>
        <time>2018-03-03T17:29:47Z</time>
      </trkpt>
      <trkpt lat="62.635030432157" lon="17.98779712234">
        <ele>86.8</ele>
        <time>2018-03-03T17:29:48Z</time>
      </trkpt>
      <trkpt lat="62.635011991977" lon="17.987838277469">
        <ele>86.8</ele>
        <time>2018-03-03T17:29:49Z</time>
      </trkpt>
      <trkpt lat="62.634991791598" lon="17.987871385974">
        <ele>87</ele>
        <time>2018-03-03T17:29:50Z</time>
      </trkpt>
      <trkpt lat="62.634968070821" lon="17.987902231366">
        <ele>87</ele>
        <time>2018-03-03T17:29:51Z</time>
      </trkpt>
      <trkpt lat="62.634948792451" lon="17.987939027907">
        <ele>87</ele>
        <time>2018-03-03T17:29:52Z</time>
      </trkpt>
      <trkpt lat="62.634928843529" lon="17.987963503055">
        <ele>87.2</ele>
        <time>2018-03-03T17:29:53Z</time>
      </trkpt>
      <trkpt lat="62.634904368381" lon="17.987996779198">
        <ele>87.2</ele>
        <time>2018-03-03T17:29:54Z</time>
      </trkpt>
      <trkpt lat="62.634887185486" lon="17.988015135559">
        <ele>87.4</ele>
        <time>2018-03-03T17:29:55Z</time>
      </trkpt>
      <trkpt lat="62.634861955967" lon="17.988033659558">
        <ele>87.6</ele>
        <time>2018-03-03T17:29:56Z</time>
      </trkpt>
      <trkpt lat="62.634841671769" lon="17.988063499122">
        <ele>87.8</ele>
        <time>2018-03-03T17:29:57Z</time>
      </trkpt>
      <trkpt lat="62.634820214105" lon="17.988070875194">
        <ele>88</ele>
        <time>2018-03-03T17:29:58Z</time>
      </trkpt>
      <trkpt lat="62.634794900767" lon="17.988092919591">
        <ele>88.2</ele>
        <time>2018-03-03T17:29:59Z</time>
      </trkpt>
      <trkpt lat="62.634768330144" lon="17.988106917364">
        <ele>88.4</ele>
        <time>2018-03-03T17:30:00Z</time>
      </trkpt>
      <trkpt lat="62.634742178616" lon="17.98811563454">
        <ele>88.6</ele>
        <time>2018-03-03T17:30:01Z</time>
      </trkpt>
      <trkpt lat="62.634719631305" lon="17.988117143282">
        <ele>88.8</ele>
        <time>2018-03-03T17:30:02Z</time>
      </trkpt>
      <trkpt lat="62.634693060682" lon="17.988110521581">
        <ele>88.8</ele>
        <time>2018-03-03T17:30:03Z</time>
      </trkpt>
      <trkpt lat="62.634658778711" lon="17.988109934848">
        <ele>88.8</ele>
        <time>2018-03-03T17:30:04Z</time>
      </trkpt>
      <trkpt lat="62.634639835617" lon="17.988113036151">
        <ele>88.8</ele>
        <time>2018-03-03T17:30:05Z</time>
      </trkpt>
      <trkpt lat="62.63461024751" lon="17.988115047807">
        <ele>89</ele>
        <time>2018-03-03T17:30:06Z</time>
      </trkpt>
      <trkpt lat="62.634590885321" lon="17.988116640368">
        <ele>89</ele>
        <time>2018-03-03T17:30:07Z</time>
      </trkpt>
      <trkpt lat="62.634570182028" lon="17.988136421652">
        <ele>89.2</ele>
        <time>2018-03-03T17:30:08Z</time>
      </trkpt>
      <trkpt lat="62.634539923369" lon="17.988147904855">
        <ele>89.2</ele>
        <time>2018-03-03T17:30:09Z</time>
      </trkpt>
      <trkpt lat="62.63452391394" lon="17.988140193507">
        <ele>89.2</ele>
        <time>2018-03-03T17:30:10Z</time>
      </trkpt>
      <trkpt lat="62.634506898683" lon="17.988151257615">
        <ele>89.2</ele>
        <time>2018-03-03T17:30:11Z</time>
      </trkpt>
      <trkpt lat="62.634479154594" lon="17.988168524329">
        <ele>89.2</ele>
        <time>2018-03-03T17:30:12Z</time>
      </trkpt>
      <trkpt lat="62.634449147392" lon="17.988177492962">
        <ele>89.2</ele>
        <time>2018-03-03T17:30:13Z</time>
      </trkpt>
      <trkpt lat="62.634429952841" lon="17.988179839894">
        <ele>89.2</ele>
        <time>2018-03-03T17:30:14Z</time>
      </trkpt>
      <trkpt lat="62.634401705838" lon="17.988187970337">
        <ele>89.2</ele>
        <time>2018-03-03T17:30:15Z</time>
      </trkpt>
      <trkpt lat="62.634380751088" lon="17.988185874862">
        <ele>89.2</ele>
        <time>2018-03-03T17:30:16Z</time>
      </trkpt>
      <trkpt lat="62.634364993116" lon="17.988191993649">
        <ele>89.4</ele>
        <time>2018-03-03T17:30:17Z</time>
      </trkpt>
      <trkpt lat="62.634334483" lon="17.988194843495">
        <ele>89.6</ele>
        <time>2018-03-03T17:30:18Z</time>
      </trkpt>
      <trkpt lat="62.634305565445" lon="17.988201465196">
        <ele>89.6</ele>
        <time>2018-03-03T17:30:19Z</time>
      </trkpt>
      <trkpt lat="62.634284778333" lon="17.988205069413">
        <ele>89.8</ele>
        <time>2018-03-03T17:30:20Z</time>
      </trkpt>
      <trkpt lat="62.634252508018" lon="17.988196184599">
        <ele>89.8</ele>
        <time>2018-03-03T17:30:21Z</time>
      </trkpt>
      <trkpt lat="62.634229960707" lon="17.988195346409">
        <ele>90</ele>
        <time>2018-03-03T17:30:22Z</time>
      </trkpt>
      <trkpt lat="62.634206072292" lon="17.988192161287">
        <ele>90.2</ele>
        <time>2018-03-03T17:30:23Z</time>
      </trkpt>
      <trkpt lat="62.634168940475" lon="17.988197022789">
        <ele>90.2</ele>
        <time>2018-03-03T17:30:24Z</time>
      </trkpt>
      <trkpt lat="62.634149829743" lon="17.988193418572">
        <ele>90.2</ele>
        <time>2018-03-03T17:30:25Z</time>
      </trkpt>
      <trkpt lat="62.634117978523" lon="17.988196687513">
        <ele>90.4</ele>
        <time>2018-03-03T17:30:26Z</time>
      </trkpt>
      <trkpt lat="62.634090318253" lon="17.988181097179">
        <ele>90.4</ele>
        <time>2018-03-03T17:30:27Z</time>
      </trkpt>
      <trkpt lat="62.63406290944" lon="17.988169446338">
        <ele>90.4</ele>
        <time>2018-03-03T17:30:28Z</time>
      </trkpt>
      <trkpt lat="62.634040529767" lon="17.98815000033">
        <ele>90.4</ele>
        <time>2018-03-03T17:30:29Z</time>
      </trkpt>
      <trkpt lat="62.634009181461" lon="17.988125776639">
        <ele>90.4</ele>
        <time>2018-03-03T17:30:30Z</time>
      </trkpt>
      <trkpt lat="62.633980934458" lon="17.988121334232">
        <ele>90.6</ele>
        <time>2018-03-03T17:30:31Z</time>
      </trkpt>
      <trkpt lat="62.633950843437" lon="17.988096607627">
        <ele>90.8</ele>
        <time>2018-03-03T17:30:32Z</time>
      </trkpt>
      <trkpt lat="62.633931816524" lon="17.988075569058">
        <ele>90.8</ele>
        <time>2018-03-03T17:30:33Z</time>
      </trkpt>
      <trkpt lat="62.633904240073" lon="17.988049752806">
        <ele>91</ele>
        <time>2018-03-03T17:30:34Z</time>
      </trkpt>
      <trkpt lat="62.633876747441" lon="17.98802762459">
        <ele>91.2</ele>
        <time>2018-03-03T17:30:35Z</time>
      </trkpt>
      <trkpt lat="62.633843387479" lon="17.988014381188">
        <ele>91.2</ele>
        <time>2018-03-03T17:30:36Z</time>
      </trkpt>
      <trkpt lat="62.633814469924" lon="17.987993677895">
        <ele>91.2</ele>
        <time>2018-03-03T17:30:37Z</time>
      </trkpt>
      <trkpt lat="62.633790330052" lon="17.987993929352">
        <ele>91.4</ele>
        <time>2018-03-03T17:30:38Z</time>
      </trkpt>
      <trkpt lat="62.633760574307" lon="17.987951014024">
        <ele>91.4</ele>
        <time>2018-03-03T17:30:39Z</time>
      </trkpt>
      <trkpt lat="62.633728387811" lon="17.98792955636">
        <ele>91.8</ele>
        <time>2018-03-03T17:30:40Z</time>
      </trkpt>
      <trkpt lat="62.633703158292" lon="17.987893095095">
        <ele>92</ele>
        <time>2018-03-03T17:30:41Z</time>
      </trkpt>
      <trkpt lat="62.633671809986" lon="17.987867697938">
        <ele>92</ele>
        <time>2018-03-03T17:30:42Z</time>
      </trkpt>
      <trkpt lat="62.633648592123" lon="17.987845904998">
        <ele>92</ele>
        <time>2018-03-03T17:30:43Z</time>
      </trkpt>
      <trkpt lat="62.633619842206" lon="17.987809779009">
        <ele>92</ele>
        <time>2018-03-03T17:30:44Z</time>
      </trkpt>
      <trkpt lat="62.633598887456" lon="17.987782118739">
        <ele>92</ele>
        <time>2018-03-03T17:30:45Z</time>
      </trkpt>
      <trkpt lat="62.633578184163" lon="17.98776527112">
        <ele>92</ele>
        <time>2018-03-03T17:30:46Z</time>
      </trkpt>
      <trkpt lat="62.633557564689" lon="17.987732833167">
        <ele>92.4</ele>
        <time>2018-03-03T17:30:47Z</time>
      </trkpt>
      <trkpt lat="62.633536274663" lon="17.987715231177">
        <ele>92.6</ele>
        <time>2018-03-03T17:30:48Z</time>
      </trkpt>
      <trkpt lat="62.633509620221" lon="17.987675417152">
        <ele>93</ele>
        <time>2018-03-03T17:30:49Z</time>
      </trkpt>
      <trkpt lat="62.63348623472" lon="17.987640883724">
        <ele>93.2</ele>
        <time>2018-03-03T17:30:50Z</time>
      </trkpt>
      <trkpt lat="62.633461508115" lon="17.987610122151">
        <ele>93.4</ele>
        <time>2018-03-03T17:30:51Z</time>
      </trkpt>
      <trkpt lat="62.633438709347" lon="17.98756997285">
        <ele>93.4</ele>
        <time>2018-03-03T17:30:52Z</time>
      </trkpt>
      <trkpt lat="62.633419766253" lon="17.987542144942">
        <ele>93.4</ele>
        <time>2018-03-03T17:30:53Z</time>
      </trkpt>
      <trkpt lat="62.63340157753" lon="17.98751046136">
        <ele>93.4</ele>
        <time>2018-03-03T17:30:54Z</time>
      </trkpt>
      <trkpt lat="62.633385819558" lon="17.987474754466">
        <ele>93.4</ele>
        <time>2018-03-03T17:30:55Z</time>
      </trkpt>
      <trkpt lat="62.633373749622" lon="17.987439131391">
        <ele>93.6</ele>
        <time>2018-03-03T17:30:56Z</time>
      </trkpt>
      <trkpt lat="62.633359919487" lon="17.987406693438">
        <ele>93.6</ele>
        <time>2018-03-03T17:30:57Z</time>
      </trkpt>
      <trkpt lat="62.633342485135" lon="17.987362185549">
        <ele>93.8</ele>
        <time>2018-03-03T17:30:58Z</time>
      </trkpt>
      <trkpt lat="62.633321698023" lon="17.987337207487">
        <ele>94</ele>
        <time>2018-03-03T17:30:59Z</time>
      </trkpt>
      <trkpt lat="62.633299066893" lon="17.987276857807">
        <ele>94.2</ele>
        <time>2018-03-03T17:31:00Z</time>
      </trkpt>
      <trkpt lat="62.633267970044" lon="17.98720871296">
        <ele>94.4</ele>
        <time>2018-03-03T17:31:01Z</time>
      </trkpt>
      <trkpt lat="62.633241315602" lon="17.987103855391">
        <ele>94.4</ele>
        <time>2018-03-03T17:31:02Z</time>
      </trkpt>
      <trkpt lat="62.633222372508" lon="17.986996567071">
        <ele>94.4</ele>
        <time>2018-03-03T17:31:03Z</time>
      </trkpt>
      <trkpt lat="62.633201082482" lon="17.986878801376">
        <ele>93.6</ele>
        <time>2018-03-03T17:31:04Z</time>
      </trkpt>
      <trkpt lat="62.633188928727" lon="17.986778553852">
        <ele>92.6</ele>
        <time>2018-03-03T17:31:05Z</time>
      </trkpt>
      <trkpt lat="62.633178367533" lon="17.986667577496">
        <ele>91.6</ele>
        <time>2018-03-03T17:31:06Z</time>
      </trkpt>
      <trkpt lat="62.633168225434" lon="17.986568754895">
        <ele>91</ele>
        <time>2018-03-03T17:31:07Z</time>
      </trkpt>
      <trkpt lat="62.63316604614" lon="17.986476637814">
        <ele>90.4</ele>
        <time>2018-03-03T17:31:08Z</time>
      </trkpt>
      <trkpt lat="62.633161436095" lon="17.986364236535">
        <ele>90.4</ele>
        <time>2018-03-03T17:31:09Z</time>
      </trkpt>
      <trkpt lat="62.633162944837" lon="17.986257199672">
        <ele>90.6</ele>
        <time>2018-03-03T17:31:10Z</time>
      </trkpt>
      <trkpt lat="62.633165459407" lon="17.986156868329">
        <ele>90.6</ele>
        <time>2018-03-03T17:31:11Z</time>
      </trkpt>
      <trkpt lat="62.63316688433" lon="17.986047568353">
        <ele>90.4</ele>
        <time>2018-03-03T17:31:12Z</time>
      </trkpt>
      <trkpt lat="62.633168644529" lon="17.985934496522">
        <ele>90.2</ele>
        <time>2018-03-03T17:31:13Z</time>
      </trkpt>
      <trkpt lat="62.633169817995" lon="17.985811198773">
        <ele>89.8</ele>
        <time>2018-03-03T17:31:14Z</time>
      </trkpt>
      <trkpt lat="62.633169231262" lon="17.985700976788">
        <ele>89.2</ele>
        <time>2018-03-03T17:31:15Z</time>
      </trkpt>
      <trkpt lat="62.633186078881" lon="17.985594694296">
        <ele>88.6</ele>
        <time>2018-03-03T17:31:16Z</time>
      </trkpt>
      <trkpt lat="62.633185492148" lon="17.985493357125">
        <ele>88.6</ele>
        <time>2018-03-03T17:31:17Z</time>
      </trkpt>
      <trkpt lat="62.63317694261" lon="17.985413226161">
        <ele>88.6</ele>
        <time>2018-03-03T17:31:18Z</time>
      </trkpt>
      <trkpt lat="62.633179960094" lon="17.985278780485">
        <ele>88.6</ele>
        <time>2018-03-03T17:31:19Z</time>
      </trkpt>
      <trkpt lat="62.633190018374" lon="17.985144167171">
        <ele>88.8</ele>
        <time>2018-03-03T17:31:20Z</time>
      </trkpt>
      <trkpt lat="62.633207368907" lon="17.985008212753">
        <ele>89</ele>
        <time>2018-03-03T17:31:21Z</time>
      </trkpt>
      <trkpt lat="62.633227736924" lon="17.98488692666">
        <ele>88.6</ele>
        <time>2018-03-03T17:31:22Z</time>
      </trkpt>
      <trkpt lat="62.633247182932" lon="17.984781985272">
        <ele>88</ele>
        <time>2018-03-03T17:31:23Z</time>
      </trkpt>
      <trkpt lat="62.63327333446" lon="17.984653155469">
        <ele>87</ele>
        <time>2018-03-03T17:31:24Z</time>
      </trkpt>
      <trkpt lat="62.633295797952" lon="17.984552572669">
        <ele>85.8</ele>
        <time>2018-03-03T17:31:25Z</time>
      </trkpt>
      <trkpt lat="62.633315746874" lon="17.984458695389">
        <ele>85</ele>
        <time>2018-03-03T17:31:26Z</time>
      </trkpt>
      <trkpt lat="62.633328906457" lon="17.984375379303">
        <ele>84.8</ele>
        <time>2018-03-03T17:31:27Z</time>
      </trkpt>
      <trkpt lat="62.633336282529" lon="17.984292733769">
        <ele>84.8</ele>
        <time>2018-03-03T17:31:28Z</time>
      </trkpt>
      <trkpt lat="62.633344161515" lon="17.984209585321">
        <ele>85.2</ele>
        <time>2018-03-03T17:31:29Z</time>
      </trkpt>
      <trkpt lat="62.63335044794" lon="17.984126017778">
        <ele>85.4</ele>
        <time>2018-03-03T17:31:30Z</time>
      </trkpt>
      <trkpt lat="62.633346089352" lon="17.984045635357">
        <ele>85.8</ele>
        <time>2018-03-03T17:31:31Z</time>
      </trkpt>
      <trkpt lat="62.63335044794" lon="17.983968773334">
        <ele>86.2</ele>
        <time>2018-03-03T17:31:32Z</time>
      </trkpt>
      <trkpt lat="62.633354135976" lon="17.983901466677">
        <ele>86.4</ele>
        <time>2018-03-03T17:31:33Z</time>
      </trkpt>
      <trkpt lat="62.633346089352" lon="17.983819407876">
        <ele>86.4</ele>
        <time>2018-03-03T17:31:34Z</time>
      </trkpt>
      <trkpt lat="62.633349442112" lon="17.983766518087">
        <ele>86.4</ele>
        <time>2018-03-03T17:31:35Z</time>
      </trkpt>
      <trkpt lat="62.633363691342" lon="17.983669455685">
        <ele>86.6</ele>
        <time>2018-03-03T17:31:36Z</time>
      </trkpt>
      <trkpt lat="62.633381544789" lon="17.98358521759">
        <ele>86.4</ele>
        <time>2018-03-03T17:31:37Z</time>
      </trkpt>
      <trkpt lat="62.633396296933" lon="17.983512462698">
        <ele>86.6</ele>
        <time>2018-03-03T17:31:38Z</time>
      </trkpt>
      <trkpt lat="62.633407277222" lon="17.983434008114">
        <ele>86.6</ele>
        <time>2018-03-03T17:31:39Z</time>
      </trkpt>
      <trkpt lat="62.633424543936" lon="17.983371982054">
        <ele>86.6</ele>
        <time>2018-03-03T17:31:40Z</time>
      </trkpt>
      <trkpt lat="62.633442816478" lon="17.983320517188">
        <ele>86.6</ele>
        <time>2018-03-03T17:31:41Z</time>
      </trkpt>
      <trkpt lat="62.633464609418" lon="17.983264609915">
        <ele>86.6</ele>
        <time>2018-03-03T17:31:42Z</time>
      </trkpt>
      <trkpt lat="62.633481373218" lon="17.983207277719">
        <ele>86.8</ele>
        <time>2018-03-03T17:31:43Z</time>
      </trkpt>
      <trkpt lat="62.633492604964" lon="17.983142485632">
        <ele>86.8</ele>
        <time>2018-03-03T17:31:44Z</time>
      </trkpt>
      <trkpt lat="62.633504088167" lon="17.983080291934">
        <ele>87</ele>
        <time>2018-03-03T17:31:45Z</time>
      </trkpt>
      <trkpt lat="62.633518505035" lon="17.983016673313">
        <ele>87</ele>
        <time>2018-03-03T17:31:46Z</time>
      </trkpt>
      <trkpt lat="62.633531664618" lon="17.982954814891">
        <ele>87</ele>
        <time>2018-03-03T17:31:47Z</time>
      </trkpt>
      <trkpt lat="62.633539795061" lon="17.982892537374">
        <ele>87</ele>
        <time>2018-03-03T17:31:48Z</time>
      </trkpt>
      <trkpt lat="62.633564102571" lon="17.982807209632">
        <ele>86.8</ele>
        <time>2018-03-03T17:31:49Z</time>
      </trkpt>
      <trkpt lat="62.63357927381" lon="17.982734370921">
        <ele>86.8</ele>
        <time>2018-03-03T17:31:50Z</time>
      </trkpt>
      <trkpt lat="62.633586566063" lon="17.982672680137">
        <ele>86.8</ele>
        <time>2018-03-03T17:31:51Z</time>
      </trkpt>
      <trkpt lat="62.633602407854" lon="17.982594057915">
        <ele>86.8</ele>
        <time>2018-03-03T17:31:52Z</time>
      </trkpt>
      <trkpt lat="62.633619004016" lon="17.982532702407">
        <ele>86.8</ele>
        <time>2018-03-03T17:31:53Z</time>
      </trkpt>
      <trkpt lat="62.633630990133" lon="17.982463803189">
        <ele>86.8</ele>
        <time>2018-03-03T17:31:54Z</time>
      </trkpt>
      <trkpt lat="62.633644820268" lon="17.982390377745">
        <ele>86.8</ele>
        <time>2018-03-03T17:31:55Z</time>
      </trkpt>
      <trkpt lat="62.633644736449" lon="17.982314437731">
        <ele>86.8</ele>
        <time>2018-03-03T17:31:56Z</time>
      </trkpt>
      <trkpt lat="62.633655046186" lon="17.982253417499">
        <ele>86.8</ele>
        <time>2018-03-03T17:31:57Z</time>
      </trkpt>
      <trkpt lat="62.633665942656" lon="17.982179237684">
        <ele>86.8</ele>
        <time>2018-03-03T17:31:58Z</time>
      </trkpt>
      <trkpt lat="62.633669379235" lon="17.982114361778">
        <ele>86.8</ele>
        <time>2018-03-03T17:31:59Z</time>
      </trkpt>
      <trkpt lat="62.633675917117" lon="17.98204294799">
        <ele>87</ele>
        <time>2018-03-03T17:32:00Z</time>
      </trkpt>
      <trkpt lat="62.633682706456" lon="17.981979748464">
        <ele>86.8</ele>
        <time>2018-03-03T17:32:01Z</time>
      </trkpt>
      <trkpt lat="62.63368488575" lon="17.981917303309">
        <ele>86.8</ele>
        <time>2018-03-03T17:32:02Z</time>
      </trkpt>
      <trkpt lat="62.633688573786" lon="17.981860809303">
        <ele>87</ele>
        <time>2018-03-03T17:32:03Z</time>
      </trkpt>
      <trkpt lat="62.633692597098" lon="17.981778834321">
        <ele>87</ele>
        <time>2018-03-03T17:32:04Z</time>
      </trkpt>
      <trkpt lat="62.63369494403" lon="17.981730051663">
        <ele>87</ele>
        <time>2018-03-03T17:32:05Z</time>
      </trkpt>
      <trkpt lat="62.633697626238" lon="17.981649585423">
        <ele>87.2</ele>
        <time>2018-03-03T17:32:06Z</time>
      </trkpt>
      <trkpt lat="62.633706930147" lon="17.981577333445">
        <ele>87.2</ele>
        <time>2018-03-03T17:32:07Z</time>
      </trkpt>
      <trkpt lat="62.633710534364" lon="17.981527377321">
        <ele>87.4</ele>
        <time>2018-03-03T17:32:08Z</time>
      </trkpt>
      <trkpt lat="62.633721514653" lon="17.981447162538">
        <ele>87.4</ele>
        <time>2018-03-03T17:32:09Z</time>
      </trkpt>
      <trkpt lat="62.63373182439" lon="17.981372479809">
        <ele>87.2</ele>
        <time>2018-03-03T17:32:10Z</time>
      </trkpt>
      <trkpt lat="62.633737524082" lon="17.981321182581">
        <ele>87.4</ele>
        <time>2018-03-03T17:32:11Z</time>
      </trkpt>
      <trkpt lat="62.633757389185" lon="17.981249852612">
        <ele>87.4</ele>
        <time>2018-03-03T17:32:12Z</time>
      </trkpt>
      <trkpt lat="62.633773398614" lon="17.981185395801">
        <ele>87.4</ele>
        <time>2018-03-03T17:32:13Z</time>
      </trkpt>
      <trkpt lat="62.633787480206" lon="17.981117418592">
        <ele>87.6</ele>
        <time>2018-03-03T17:32:14Z</time>
      </trkpt>
      <trkpt lat="62.633804327825" lon="17.981065115536">
        <ele>87.6</ele>
        <time>2018-03-03T17:32:15Z</time>
      </trkpt>
      <trkpt lat="62.633824109109" lon="17.981017087249">
        <ele>87.6</ele>
        <time>2018-03-03T17:32:16Z</time>
      </trkpt>
      <trkpt lat="62.633840453814" lon="17.980975513025">
        <ele>87.8</ele>
        <time>2018-03-03T17:32:17Z</time>
      </trkpt>
      <trkpt lat="62.633856966157" lon="17.980932597697">
        <ele>87.8</ele>
        <time>2018-03-03T17:32:18Z</time>
      </trkpt>
      <trkpt lat="62.633873394681" lon="17.980887000161">
        <ele>88</ele>
        <time>2018-03-03T17:32:19Z</time>
      </trkpt>
      <trkpt lat="62.633894936164" lon="17.980838385141">
        <ele>88</ele>
        <time>2018-03-03T17:32:20Z</time>
      </trkpt>
      <trkpt lat="62.633902731331" lon="17.980788596655">
        <ele>88.2</ele>
        <time>2018-03-03T17:32:21Z</time>
      </trkpt>
      <trkpt lat="62.63391790257" lon="17.98074542987">
        <ele>88.2</ele>
        <time>2018-03-03T17:32:22Z</time>
      </trkpt>
      <trkpt lat="62.633936091293" lon="17.980693965004">
        <ele>88.2</ele>
        <time>2018-03-03T17:32:23Z</time>
      </trkpt>
      <trkpt lat="62.633950843437" lon="17.980643254509">
        <ele>88.2</ele>
        <time>2018-03-03T17:32:24Z</time>
      </trkpt>
      <trkpt lat="62.633969786531" lon="17.980587682512">
        <ele>88.2</ele>
        <time>2018-03-03T17:32:25Z</time>
      </trkpt>
      <trkpt lat="62.633989819272" lon="17.980535295637">
        <ele>88.4</ele>
        <time>2018-03-03T17:32:26Z</time>
      </trkpt>
      <trkpt lat="62.634001889208" lon="17.98048894373">
        <ele>88.6</ele>
        <time>2018-03-03T17:32:27Z</time>
      </trkpt>
      <trkpt lat="62.634022173406" lon="17.980437646502">
        <ele>88.6</ele>
        <time>2018-03-03T17:32:28Z</time>
      </trkpt>
      <trkpt lat="62.634040781224" lon="17.980386768369">
        <ele>88.6</ele>
        <time>2018-03-03T17:32:29Z</time>
      </trkpt>
      <trkpt lat="62.634055952463" lon="17.980339829729">
        <ele>88.6</ele>
        <time>2018-03-03T17:32:30Z</time>
      </trkpt>
      <trkpt lat="62.634080930525" lon="17.980281575524">
        <ele>88.6</ele>
        <time>2018-03-03T17:32:31Z</time>
      </trkpt>
      <trkpt lat="62.634101298542" lon="17.980230278296">
        <ele>88.4</ele>
        <time>2018-03-03T17:32:32Z</time>
      </trkpt>
      <trkpt lat="62.634122588568" lon="17.980194068488">
        <ele>88.4</ele>
        <time>2018-03-03T17:32:33Z</time>
      </trkpt>
      <trkpt lat="62.634152260494" lon="17.980143190355">
        <ele>88.6</ele>
        <time>2018-03-03T17:32:34Z</time>
      </trkpt>
      <trkpt lat="62.634165420077" lon="17.980094323878">
        <ele>88.6</ele>
        <time>2018-03-03T17:32:35Z</time>
      </trkpt>
      <trkpt lat="62.634187715931" lon="17.980050654179">
        <ele>88.6</ele>
        <time>2018-03-03T17:32:36Z</time>
      </trkpt>
      <trkpt lat="62.634206910482" lon="17.980006230109">
        <ele>88.6</ele>
        <time>2018-03-03T17:32:37Z</time>
      </trkpt>
      <trkpt lat="62.634222584635" lon="17.9799550167">
        <ele>88.6</ele>
        <time>2018-03-03T17:32:38Z</time>
      </trkpt>
      <trkpt lat="62.63424647305" lon="17.979890811346">
        <ele>88.6</ele>
        <time>2018-03-03T17:32:39Z</time>
      </trkpt>
      <trkpt lat="62.634264745592" lon="17.979826270716">
        <ele>88.6</ele>
        <time>2018-03-03T17:32:40Z</time>
      </trkpt>
      <trkpt lat="62.634283269591" lon="17.979784193578">
        <ele>88.6</ele>
        <time>2018-03-03T17:32:41Z</time>
      </trkpt>
      <trkpt lat="62.634303218513" lon="17.979714372351">
        <ele>88.6</ele>
        <time>2018-03-03T17:32:42Z</time>
      </trkpt>
      <trkpt lat="62.634321407236" lon="17.979653771214">
        <ele>88.6</ele>
        <time>2018-03-03T17:32:43Z</time>
      </trkpt>
      <trkpt lat="62.634331800792" lon="17.9795862131">
        <ele>88.6</ele>
        <time>2018-03-03T17:32:44Z</time>
      </trkpt>
      <trkpt lat="62.634348899868" lon="17.979511278914">
        <ele>88.6</ele>
        <time>2018-03-03T17:32:45Z</time>
      </trkpt>
      <trkpt lat="62.634345966203" lon="17.979447744112">
        <ele>88.6</ele>
        <time>2018-03-03T17:32:46Z</time>
      </trkpt>
      <trkpt lat="62.634357868501" lon="17.979385969509">
        <ele>88.6</ele>
        <time>2018-03-03T17:32:47Z</time>
      </trkpt>
      <trkpt lat="62.634362478546" lon="17.979319165766">
        <ele>88.6</ele>
        <time>2018-03-03T17:32:48Z</time>
      </trkpt>
      <trkpt lat="62.634375805767" lon="17.979259738095">
        <ele>88.6</ele>
        <time>2018-03-03T17:32:49Z</time>
      </trkpt>
      <trkpt lat="62.634394162128" lon="17.97921238036">
        <ele>88.8</ele>
        <time>2018-03-03T17:32:50Z</time>
      </trkpt>
      <trkpt lat="62.634401622019" lon="17.979161921322">
        <ele>88.8</ele>
        <time>2018-03-03T17:32:51Z</time>
      </trkpt>
      <trkpt lat="62.634417715267" lon="17.979091429543">
        <ele>88.8</ele>
        <time>2018-03-03T17:32:52Z</time>
      </trkpt>
      <trkpt lat="62.634421235665" lon="17.979041305781">
        <ele>89</ele>
        <time>2018-03-03T17:32:53Z</time>
      </trkpt>
      <trkpt lat="62.634438167103" lon="17.978968969984">
        <ele>88.8</ele>
        <time>2018-03-03T17:32:54Z</time>
      </trkpt>
      <trkpt lat="62.634459457129" lon="17.978842403294">
        <ele>88.8</ele>
        <time>2018-03-03T17:32:56Z</time>
      </trkpt>
      <trkpt lat="62.634471443246" lon="17.978789681143">
        <ele>88.6</ele>
        <time>2018-03-03T17:32:57Z</time>
      </trkpt>
      <trkpt lat="62.634482926449" lon="17.978738048639">
        <ele>88.6</ele>
        <time>2018-03-03T17:32:58Z</time>
      </trkpt>
      <trkpt lat="62.634490134883" lon="17.97870862817">
        <ele>88.6</ele>
        <time>2018-03-03T17:32:59Z</time>
      </trkpt>
      <trkpt lat="62.634513939479" lon="17.978654313458">
        <ele>88.6</ele>
        <time>2018-03-03T17:33:00Z</time>
      </trkpt>
      <trkpt lat="62.634534307496" lon="17.978639309857">
        <ele>88.4</ele>
        <time>2018-03-03T17:33:01Z</time>
      </trkpt>
      <trkpt lat="62.634560710481" lon="17.978652553259">
        <ele>88.6</ele>
        <time>2018-03-03T17:33:02Z</time>
      </trkpt>
      <trkpt lat="62.634579569756" lon="17.978676944588">
        <ele>88.6</ele>
        <time>2018-03-03T17:33:03Z</time>
      </trkpt>
      <trkpt lat="62.634595495366" lon="17.978705023953">
        <ele>88.6</ele>
        <time>2018-03-03T17:33:04Z</time>
      </trkpt>
      <trkpt lat="62.634611337157" lon="17.978736456078">
        <ele>88.6</ele>
        <time>2018-03-03T17:33:05Z</time>
      </trkpt>
      <trkpt lat="62.634632208088" lon="17.97875724319">
        <ele>88.6</ele>
        <time>2018-03-03T17:33:06Z</time>
      </trkpt>
      <trkpt lat="62.634657521426" lon="17.978781047786">
        <ele>88.6</ele>
        <time>2018-03-03T17:33:07Z</time>
      </trkpt>
      <trkpt lat="62.63468233185" lon="17.978803008364">
        <ele>88.4</ele>
        <time>2018-03-03T17:33:08Z</time>
      </trkpt>
      <trkpt lat="62.634710243577" lon="17.978818263422">
        <ele>88.4</ele>
        <time>2018-03-03T17:33:09Z</time>
      </trkpt>
      <trkpt lat="62.634744022634" lon="17.978833602299">
        <ele>88.4</ele>
        <time>2018-03-03T17:33:10Z</time>
      </trkpt>
      <trkpt lat="62.634769419791" lon="17.978840307819">
        <ele>88.2</ele>
        <time>2018-03-03T17:33:11Z</time>
      </trkpt>
      <trkpt lat="62.634804623771" lon="17.97885950237">
        <ele>88.2</ele>
        <time>2018-03-03T17:33:12Z</time>
      </trkpt>
      <trkpt lat="62.634835469163" lon="17.97886201694">
        <ele>88.2</ele>
        <time>2018-03-03T17:33:13Z</time>
      </trkpt>
      <trkpt lat="62.634872517161" lon="17.978876936722">
        <ele>87.8</ele>
        <time>2018-03-03T17:33:14Z</time>
      </trkpt>
      <trkpt lat="62.634899087784" lon="17.978887665554">
        <ele>87.6</ele>
        <time>2018-03-03T17:33:15Z</time>
      </trkpt>
      <trkpt lat="62.634924904036" lon="17.978898981119">
        <ele>87.6</ele>
        <time>2018-03-03T17:33:16Z</time>
      </trkpt>
      <trkpt lat="62.634950720288" lon="17.978907865933">
        <ele>87.6</ele>
        <time>2018-03-03T17:33:17Z</time>
      </trkpt>
      <trkpt lat="62.634970333934" lon="17.97891314653">
        <ele>87.6</ele>
        <time>2018-03-03T17:33:18Z</time>
      </trkpt>
      <trkpt lat="62.634999419127" lon="17.978923540086">
        <ele>87.6</ele>
        <time>2018-03-03T17:33:19Z</time>
      </trkpt>
      <trkpt lat="62.635022804628" lon="17.978931251434">
        <ele>87.6</ele>
        <time>2018-03-03T17:33:20Z</time>
      </trkpt>
      <trkpt lat="62.635049375251" lon="17.978941393533">
        <ele>87.6</ele>
        <time>2018-03-03T17:33:21Z</time>
      </trkpt>
      <trkpt lat="62.635073934218" lon="17.978946003578">
        <ele>87.6</ele>
        <time>2018-03-03T17:33:22Z</time>
      </trkpt>
      <trkpt lat="62.635088854" lon="17.978952960555">
        <ele>87.6</ele>
        <time>2018-03-03T17:33:23Z</time>
      </trkpt>
      <trkpt lat="62.63512824893" lon="17.978967712699">
        <ele>87.6</ele>
        <time>2018-03-03T17:33:24Z</time>
      </trkpt>
      <trkpt lat="62.635156831209" lon="17.978976932789">
        <ele>87.6</ele>
        <time>2018-03-03T17:33:25Z</time>
      </trkpt>
      <trkpt lat="62.635186586954" lon="17.978983470671">
        <ele>87.4</ele>
        <time>2018-03-03T17:33:26Z</time>
      </trkpt>
      <trkpt lat="62.635214414862" lon="17.978984644137">
        <ele>87</ele>
        <time>2018-03-03T17:33:27Z</time>
      </trkpt>
      <trkpt lat="62.635252971602" lon="17.978987326345">
        <ele>86.8</ele>
        <time>2018-03-03T17:33:28Z</time>
      </trkpt>
      <trkpt lat="62.635283397899" lon="17.978985314689">
        <ele>86.6</ele>
        <time>2018-03-03T17:33:29Z</time>
      </trkpt>
      <trkpt lat="62.635300664613" lon="17.97898858363">
        <ele>86.6</ele>
        <time>2018-03-03T17:33:30Z</time>
      </trkpt>
      <trkpt lat="62.635341819742" lon="17.978993528951">
        <ele>86.4</ele>
        <time>2018-03-03T17:33:31Z</time>
      </trkpt>
      <trkpt lat="62.635376604627" lon="17.978989924734">
        <ele>86.4</ele>
        <time>2018-03-03T17:33:32Z</time>
      </trkpt>
      <trkpt lat="62.635407617657" lon="17.978987996897">
        <ele>86</ele>
        <time>2018-03-03T17:33:33Z</time>
      </trkpt>
      <trkpt lat="62.635437960135" lon="17.978989505639">
        <ele>85.6</ele>
        <time>2018-03-03T17:33:34Z</time>
      </trkpt>
      <trkpt lat="62.635472074468" lon="17.978986571974">
        <ele>85.2</ele>
        <time>2018-03-03T17:33:35Z</time>
      </trkpt>
      <trkpt lat="62.635506859353" lon="17.978980620825">
        <ele>84.6</ele>
        <time>2018-03-03T17:33:36Z</time>
      </trkpt>
      <trkpt lat="62.635541225143" lon="17.978978609169">
        <ele>84.2</ele>
        <time>2018-03-03T17:33:37Z</time>
      </trkpt>
      <trkpt lat="62.635573411639" lon="17.978975088771">
        <ele>84</ele>
        <time>2018-03-03T17:33:38Z</time>
      </trkpt>
      <trkpt lat="62.635613644759" lon="17.97896846707">
        <ele>84</ele>
        <time>2018-03-03T17:33:39Z</time>
      </trkpt>
      <trkpt lat="62.635644657789" lon="17.97895840879">
        <ele>83.8</ele>
        <time>2018-03-03T17:33:40Z</time>
      </trkpt>
      <trkpt lat="62.635677598656" lon="17.978955642763">
        <ele>83.6</ele>
        <time>2018-03-03T17:33:41Z</time>
      </trkpt>
      <trkpt lat="62.635712886455" lon="17.978952038546">
        <ele>83.6</ele>
        <time>2018-03-03T17:33:42Z</time>
      </trkpt>
      <trkpt lat="62.635744737675" lon="17.978954469297">
        <ele>83.6</ele>
        <time>2018-03-03T17:33:43Z</time>
      </trkpt>
      <trkpt lat="62.63577952256" lon="17.978955810401">
        <ele>83.6</ele>
        <time>2018-03-03T17:33:44Z</time>
      </trkpt>
      <trkpt lat="62.635802488966" lon="17.978951619451">
        <ele>83.6</ele>
        <time>2018-03-03T17:33:45Z</time>
      </trkpt>
      <trkpt lat="62.63583400491" lon="17.978957319143">
        <ele>83.8</ele>
        <time>2018-03-03T17:33:46Z</time>
      </trkpt>
      <trkpt lat="62.635859402067" lon="17.97896427612">
        <ele>84</ele>
        <time>2018-03-03T17:33:47Z</time>
      </trkpt>
      <trkpt lat="62.635879015713" lon="17.978966203957">
        <ele>83.8</ele>
        <time>2018-03-03T17:33:48Z</time>
      </trkpt>
      <trkpt lat="62.635902904128" lon="17.978971316916">
        <ele>84</ele>
        <time>2018-03-03T17:33:49Z</time>
      </trkpt>
      <trkpt lat="62.635921679584" lon="17.978979614997">
        <ele>84</ele>
        <time>2018-03-03T17:33:50Z</time>
      </trkpt>
      <trkpt lat="62.635938611022" lon="17.978982297205">
        <ele>84</ele>
        <time>2018-03-03T17:33:51Z</time>
      </trkpt>
      <trkpt lat="62.635960152505" lon="17.979000821204">
        <ele>84</ele>
        <time>2018-03-03T17:33:52Z</time>
      </trkpt>
      <trkpt lat="62.635976581029" lon="17.979022278868">
        <ele>84.2</ele>
        <time>2018-03-03T17:33:53Z</time>
      </trkpt>
      <trkpt lat="62.635990411164" lon="17.979062092893">
        <ele>84.4</ele>
        <time>2018-03-03T17:33:54Z</time>
      </trkpt>
      <trkpt lat="62.6359940992" lon="17.979099979081">
        <ele>84.6</ele>
        <time>2018-03-03T17:33:55Z</time>
      </trkpt>
      <trkpt lat="62.635994266838" lon="17.979127639351">
        <ele>84.6</ele>
        <time>2018-03-03T17:33:56Z</time>
      </trkpt>
      <trkpt lat="62.635987477499" lon="17.979156053992">
        <ele>84.6</ele>
        <time>2018-03-03T17:33:57Z</time>
      </trkpt>
      <trkpt lat="62.635985382024" lon="17.979170303222">
        <ele>84.8</ele>
        <time>2018-03-03T17:33:59Z</time>
      </trkpt>
      <trkpt lat="62.635991500811" lon="17.979174410353">
        <ele>84.8</ele>
        <time>2018-03-03T17:34:00Z</time>
      </trkpt>
      <trkpt lat="62.635979682332" lon="17.979249847453">
        <ele>84.6</ele>
        <time>2018-03-03T17:34:02Z</time>
      </trkpt>
      <trkpt lat="62.635975072287" lon="17.979293600971">
        <ele>84.6</ele>
        <time>2018-03-03T17:34:03Z</time>
      </trkpt>
      <trkpt lat="62.635967444758" lon="17.979364008931">
        <ele>84.4</ele>
        <time>2018-03-03T17:34:04Z</time>
      </trkpt>
      <trkpt lat="62.635972641536" lon="17.979432069959">
        <ele>84.4</ele>
        <time>2018-03-03T17:34:05Z</time>
      </trkpt>
      <trkpt lat="62.635970546061" lon="17.979528210352">
        <ele>84.2</ele>
        <time>2018-03-03T17:34:06Z</time>
      </trkpt>
      <trkpt lat="62.635967444758" lon="17.979685454796">
        <ele>84</ele>
        <time>2018-03-03T17:34:07Z</time>
      </trkpt>
      <trkpt lat="62.635969121138" lon="17.979828701467">
        <ele>83.8</ele>
        <time>2018-03-03T17:34:08Z</time>
      </trkpt>
      <trkpt lat="62.63597565902" lon="17.979970271758">
        <ele>83.4</ele>
        <time>2018-03-03T17:34:09Z</time>
      </trkpt>
      <trkpt lat="62.63599242282" lon="17.980135562826">
        <ele>82.6</ele>
        <time>2018-03-03T17:34:10Z</time>
      </trkpt>
      <trkpt lat="62.636010695362" lon="17.980270092321">
        <ele>81.6</ele>
        <time>2018-03-03T17:34:11Z</time>
      </trkpt>
      <trkpt lat="62.636030560465" lon="17.980418116675">
        <ele>80.2</ele>
        <time>2018-03-03T17:34:12Z</time>
      </trkpt>
      <trkpt lat="62.636048833007" lon="17.980538145483">
        <ele>79</ele>
        <time>2018-03-03T17:34:13Z</time>
      </trkpt>
      <trkpt lat="62.636069452481" lon="17.980667394381">
        <ele>78</ele>
        <time>2018-03-03T17:34:14Z</time>
      </trkpt>
      <trkpt lat="62.636091496878" lon="17.980791195044">
        <ele>77.4</ele>
        <time>2018-03-03T17:34:15Z</time>
      </trkpt>
      <trkpt lat="62.636113289818" lon="17.980908122549">
        <ele>77</ele>
        <time>2018-03-03T17:34:16Z</time>
      </trkpt>
      <trkpt lat="62.636132735826" lon="17.981021529656">
        <ele>76.8</ele>
        <time>2018-03-03T17:34:17Z</time>
      </trkpt>
      <trkpt lat="62.636149667264" lon="17.981141977559">
        <ele>76.8</ele>
        <time>2018-03-03T17:34:18Z</time>
      </trkpt>
      <trkpt lat="62.636161234286" lon="17.981255133209">
        <ele>76.6</ele>
        <time>2018-03-03T17:34:19Z</time>
      </trkpt>
      <trkpt lat="62.636169700005" lon="17.981362253891">
        <ele>76.2</ele>
        <time>2018-03-03T17:34:20Z</time>
      </trkpt>
      <trkpt lat="62.636174393869" lon="17.981462501415">
        <ele>76.2</ele>
        <time>2018-03-03T17:34:21Z</time>
      </trkpt>
      <trkpt lat="62.636181518484" lon="17.981541207456">
        <ele>76</ele>
        <time>2018-03-03T17:34:22Z</time>
      </trkpt>
      <trkpt lat="62.636191828221" lon="17.981598120557">
        <ele>76</ele>
        <time>2018-03-03T17:34:23Z</time>
      </trkpt>
      <trkpt lat="62.636213956437" lon="17.981696440244">
        <ele>76.2</ele>
        <time>2018-03-03T17:34:24Z</time>
      </trkpt>
      <trkpt lat="62.6362287924" lon="17.981775900656">
        <ele>76.4</ele>
        <time>2018-03-03T17:34:25Z</time>
      </trkpt>
      <trkpt lat="62.636254441014" lon="17.981856953629">
        <ele>76.6</ele>
        <time>2018-03-03T17:34:26Z</time>
      </trkpt>
      <trkpt lat="62.636281849827" lon="17.98192727777">
        <ele>76.8</ele>
        <time>2018-03-03T17:34:27Z</time>
      </trkpt>
      <trkpt lat="62.636290231727" lon="17.982021741783">
        <ele>76.8</ele>
        <time>2018-03-03T17:34:28Z</time>
      </trkpt>
      <trkpt lat="62.636306324975" lon="17.982109667914">
        <ele>76.8</ele>
        <time>2018-03-03T17:34:29Z</time>
      </trkpt>
      <trkpt lat="62.636317724359" lon="17.982182338987">
        <ele>77</ele>
        <time>2018-03-03T17:34:30Z</time>
      </trkpt>
      <trkpt lat="62.636321580033" lon="17.982276719181">
        <ele>77</ele>
        <time>2018-03-03T17:34:31Z</time>
      </trkpt>
      <trkpt lat="62.636323926965" lon="17.982338242327">
        <ele>76.8</ele>
        <time>2018-03-03T17:34:32Z</time>
      </trkpt>
      <trkpt lat="62.636318311092" lon="17.982406387174">
        <ele>76.6</ele>
        <time>2018-03-03T17:34:33Z</time>
      </trkpt>
      <trkpt lat="62.636321077119" lon="17.982496576418">
        <ele>76.6</ele>
        <time>2018-03-03T17:34:34Z</time>
      </trkpt>
      <trkpt lat="62.636320825662" lon="17.982573270803">
        <ele>76.8</ele>
        <time>2018-03-03T17:34:35Z</time>
      </trkpt>
      <trkpt lat="62.636320741843" lon="17.982663376228">
        <ele>76.8</ele>
        <time>2018-03-03T17:34:36Z</time>
      </trkpt>
      <trkpt lat="62.636315880341" lon="17.98274451302">
        <ele>76.8</ele>
        <time>2018-03-03T17:34:37Z</time>
      </trkpt>
      <trkpt lat="62.636321328576" lon="17.982801258483">
        <ele>76.8</ele>
        <time>2018-03-03T17:34:38Z</time>
      </trkpt>
      <trkpt lat="62.636319065463" lon="17.982880970352">
        <ele>76.8</ele>
        <time>2018-03-03T17:34:39Z</time>
      </trkpt>
      <trkpt lat="62.636316047979" lon="17.982954479615">
        <ele>76.8</ele>
        <time>2018-03-03T17:34:40Z</time>
      </trkpt>
      <trkpt lat="62.636315880341" lon="17.983015583666">
        <ele>76.8</ele>
        <time>2018-03-03T17:34:41Z</time>
      </trkpt>
      <trkpt lat="62.636328285553" lon="17.983101414322">
        <ele>77</ele>
        <time>2018-03-03T17:34:42Z</time>
      </trkpt>
      <trkpt lat="62.636324429879" lon="17.983155142301">
        <ele>76.8</ele>
        <time>2018-03-03T17:34:43Z</time>
      </trkpt>
      <trkpt lat="62.636316131798" lon="17.983234602713">
        <ele>76.8</ele>
        <time>2018-03-03T17:34:44Z</time>
      </trkpt>
      <trkpt lat="62.636310432106" lon="17.983306687053">
        <ele>77</ele>
        <time>2018-03-03T17:34:45Z</time>
      </trkpt>
      <trkpt lat="62.636306408794" lon="17.983358571014">
        <ele>77</ele>
        <time>2018-03-03T17:34:46Z</time>
      </trkpt>
      <trkpt lat="62.636297104885" lon="17.98342177054">
        <ele>77.2</ele>
        <time>2018-03-03T17:34:47Z</time>
      </trkpt>
      <trkpt lat="62.636283861483" lon="17.983482204039">
        <ele>77</ele>
        <time>2018-03-03T17:34:48Z</time>
      </trkpt>
      <trkpt lat="62.636269360796" lon="17.983550348886">
        <ele>77.2</ele>
        <time>2018-03-03T17:34:49Z</time>
      </trkpt>
      <trkpt lat="62.63625980543" lon="17.983609441281">
        <ele>77.4</ele>
        <time>2018-03-03T17:34:50Z</time>
      </trkpt>
      <trkpt lat="62.636250250064" lon="17.983670126237">
        <ele>77.4</ele>
        <time>2018-03-03T17:34:51Z</time>
      </trkpt>
      <trkpt lat="62.636245891476" lon="17.983711616642">
        <ele>77.6</ele>
        <time>2018-03-03T17:34:52Z</time>
      </trkpt>
      <trkpt lat="62.636234324454" lon="17.983760734576">
        <ele>77.8</ele>
        <time>2018-03-03T17:34:53Z</time>
      </trkpt>
      <trkpt lat="62.636214124075" lon="17.983819156419">
        <ele>77.8</ele>
        <time>2018-03-03T17:34:54Z</time>
      </trkpt>
      <trkpt lat="62.636210938953" lon="17.983868358172">
        <ele>78</ele>
        <time>2018-03-03T17:34:55Z</time>
      </trkpt>
      <trkpt lat="62.636203143786" lon="17.983932982621">
        <ele>78</ele>
        <time>2018-03-03T17:34:56Z</time>
      </trkpt>
      <trkpt lat="62.636194761886" lon="17.983977658148">
        <ele>78.2</ele>
        <time>2018-03-03T17:34:57Z</time>
      </trkpt>
      <trkpt lat="62.636193839877" lon="17.984017975087">
        <ele>78.2</ele>
        <time>2018-03-03T17:34:58Z</time>
      </trkpt>
      <trkpt lat="62.636183446321" lon="17.984079246776">
        <ele>78.4</ele>
        <time>2018-03-03T17:34:59Z</time>
      </trkpt>
      <trkpt lat="62.636180428837" lon="17.984132639479">
        <ele>78.6</ele>
        <time>2018-03-03T17:35:00Z</time>
      </trkpt>
      <trkpt lat="62.636177578991" lon="17.984181757413">
        <ele>79</ele>
        <time>2018-03-03T17:35:01Z</time>
      </trkpt>
      <trkpt lat="62.636170202919" lon="17.984240765989">
        <ele>79.2</ele>
        <time>2018-03-03T17:35:02Z</time>
      </trkpt>
      <trkpt lat="62.636174561507" lon="17.98428091529">
        <ele>79.2</ele>
        <time>2018-03-03T17:35:03Z</time>
      </trkpt>
      <trkpt lat="62.63617347186" lon="17.984346629386">
        <ele>79.2</ele>
        <time>2018-03-03T17:35:04Z</time>
      </trkpt>
      <trkpt lat="62.636172130756" lon="17.984413684586">
        <ele>79.2</ele>
        <time>2018-03-03T17:35:05Z</time>
      </trkpt>
      <trkpt lat="62.636173890955" lon="17.98446783166">
        <ele>79.2</ele>
        <time>2018-03-03T17:35:06Z</time>
      </trkpt>
      <trkpt lat="62.636170202919" lon="17.984528013702">
        <ele>79.2</ele>
        <time>2018-03-03T17:35:07Z</time>
      </trkpt>
      <trkpt lat="62.636167185435" lon="17.984568163003">
        <ele>79.2</ele>
        <time>2018-03-03T17:35:08Z</time>
      </trkpt>
      <trkpt lat="62.636161150467" lon="17.984623818819">
        <ele>79.2</ele>
        <time>2018-03-03T17:35:09Z</time>
      </trkpt>
      <trkpt lat="62.63615503168" lon="17.984690538743">
        <ele>79.2</ele>
        <time>2018-03-03T17:35:10Z</time>
      </trkpt>
      <trkpt lat="62.636151762739" lon="17.984736555374">
        <ele>79.4</ele>
        <time>2018-03-03T17:35:11Z</time>
      </trkpt>
      <trkpt lat="62.636146482142" lon="17.984792546466">
        <ele>79.4</ele>
        <time>2018-03-03T17:35:12Z</time>
      </trkpt>
      <trkpt lat="62.636141955916" lon="17.984841748219">
        <ele>79.6</ele>
        <time>2018-03-03T17:35:13Z</time>
      </trkpt>
      <trkpt lat="62.63614329702" lon="17.984884076814">
        <ele>79.6</ele>
        <time>2018-03-03T17:35:14Z</time>
      </trkpt>
      <trkpt lat="62.636140950088" lon="17.984941660467">
        <ele>79.6</ele>
        <time>2018-03-03T17:35:15Z</time>
      </trkpt>
      <trkpt lat="62.636144889581" lon="17.984999495577">
        <ele>79.6</ele>
        <time>2018-03-03T17:35:16Z</time>
      </trkpt>
      <trkpt lat="62.6361449734" lon="17.985032520263">
        <ele>79.8</ele>
        <time>2018-03-03T17:35:17Z</time>
      </trkpt>
      <trkpt lat="62.636142123554" lon="17.985090942106">
        <ele>80</ele>
        <time>2018-03-03T17:35:18Z</time>
      </trkpt>
      <trkpt lat="62.63613323874" lon="17.985139976221">
        <ele>80.2</ele>
        <time>2018-03-03T17:35:19Z</time>
      </trkpt>
      <trkpt lat="62.636129383066" lon="17.985187585413">
        <ele>80.4</ele>
        <time>2018-03-03T17:35:20Z</time>
      </trkpt>
      <trkpt lat="62.636128461057" lon="17.985255143527">
        <ele>80.4</ele>
        <time>2018-03-03T17:35:21Z</time>
      </trkpt>
      <trkpt lat="62.636126114125" lon="17.985314655017">
        <ele>80.6</ele>
        <time>2018-03-03T17:35:22Z</time>
      </trkpt>
      <trkpt lat="62.636121168804" lon="17.985360252553">
        <ele>80.6</ele>
        <time>2018-03-03T17:35:23Z</time>
      </trkpt>
      <trkpt lat="62.636113876551" lon="17.985434097092">
        <ele>80.6</ele>
        <time>2018-03-03T17:35:24Z</time>
      </trkpt>
      <trkpt lat="62.636109937058" lon="17.985486735424">
        <ele>80.8</ele>
        <time>2018-03-03T17:35:25Z</time>
      </trkpt>
      <trkpt lat="62.636107171031" lon="17.985540128127">
        <ele>81</ele>
        <time>2018-03-03T17:35:26Z</time>
      </trkpt>
      <trkpt lat="62.636094179086" lon="17.985606764232">
        <ele>81</ele>
        <time>2018-03-03T17:35:27Z</time>
      </trkpt>
      <trkpt lat="62.636079175485" lon="17.985663509695">
        <ele>81</ele>
        <time>2018-03-03T17:35:28Z</time>
      </trkpt>
      <trkpt lat="62.636058891287" lon="17.985714387828">
        <ele>81</ele>
        <time>2018-03-03T17:35:29Z</time>
      </trkpt>
      <trkpt lat="62.636035421967" lon="17.985760404459">
        <ele>81.2</ele>
        <time>2018-03-03T17:35:30Z</time>
      </trkpt>
      <trkpt lat="62.636015221588" lon="17.985806588728">
        <ele>81.2</ele>
        <time>2018-03-03T17:35:31Z</time>
      </trkpt>
      <trkpt lat="62.635990662621" lon="17.985845648382">
        <ele>81.2</ele>
        <time>2018-03-03T17:35:32Z</time>
      </trkpt>
      <trkpt lat="62.635963169989" lon="17.985874398299">
        <ele>81.2</ele>
        <time>2018-03-03T17:35:33Z</time>
      </trkpt>
      <trkpt lat="62.635941712325" lon="17.98589862199">
        <ele>81.4</ele>
        <time>2018-03-03T17:35:34Z</time>
      </trkpt>
      <trkpt lat="62.635913968236" lon="17.985926114622">
        <ele>81.6</ele>
        <time>2018-03-03T17:35:35Z</time>
      </trkpt>
      <trkpt lat="62.635890079821" lon="17.98594639882">
        <ele>81.8</ele>
        <time>2018-03-03T17:35:36Z</time>
      </trkpt>
      <trkpt lat="62.635866107587" lon="17.985965425733">
        <ele>81.8</ele>
        <time>2018-03-03T17:35:37Z</time>
      </trkpt>
      <trkpt lat="62.635842973543" lon="17.985988140682">
        <ele>82</ele>
        <time>2018-03-03T17:35:38Z</time>
      </trkpt>
      <trkpt lat="62.635816654377" lon="17.986016303866">
        <ele>82.2</ele>
        <time>2018-03-03T17:35:39Z</time>
      </trkpt>
      <trkpt lat="62.635791089582" lon="17.986045137602">
        <ele>82.4</ele>
        <time>2018-03-03T17:35:40Z</time>
      </trkpt>
      <trkpt lat="62.635769296642" lon="17.986068606922">
        <ele>82.4</ele>
        <time>2018-03-03T17:35:41Z</time>
      </trkpt>
      <trkpt lat="62.635745072951" lon="17.986118311589">
        <ele>82.8</ele>
        <time>2018-03-03T17:35:42Z</time>
      </trkpt>
      <trkpt lat="62.635727890056" lon="17.986154521397">
        <ele>82.8</ele>
        <time>2018-03-03T17:35:43Z</time>
      </trkpt>
      <trkpt lat="62.635711293894" lon="17.986198358734">
        <ele>82.8</ele>
        <time>2018-03-03T17:35:44Z</time>
      </trkpt>
      <trkpt lat="62.635697631397" lon="17.986243537175">
        <ele>82.8</ele>
        <time>2018-03-03T17:35:45Z</time>
      </trkpt>
      <trkpt lat="62.635676006095" lon="17.986278824974">
        <ele>83</ele>
        <time>2018-03-03T17:35:46Z</time>
      </trkpt>
      <trkpt lat="62.635671060774" lon="17.986324003415">
        <ele>83</ele>
        <time>2018-03-03T17:35:47Z</time>
      </trkpt>
      <trkpt lat="62.635648513463" lon="17.986363565983">
        <ele>83.2</ele>
        <time>2018-03-03T17:35:48Z</time>
      </trkpt>
      <trkpt lat="62.635626217609" lon="17.986412264822">
        <ele>83.4</ele>
        <time>2018-03-03T17:35:49Z</time>
      </trkpt>
      <trkpt lat="62.635610878732" lon="17.98646356205">
        <ele>83.6</ele>
        <time>2018-03-03T17:35:50Z</time>
      </trkpt>
      <trkpt lat="62.635592354733" lon="17.986527432128">
        <ele>83.8</ele>
        <time>2018-03-03T17:35:51Z</time>
      </trkpt>
      <trkpt lat="62.635581122987" lon="17.986586859799">
        <ele>83.8</ele>
        <time>2018-03-03T17:35:52Z</time>
      </trkpt>
      <trkpt lat="62.635564023911" lon="17.98663455281">
        <ele>83.8</ele>
        <time>2018-03-03T17:35:53Z</time>
      </trkpt>
      <trkpt lat="62.635544326446" lon="17.986693477567">
        <ele>83.8</ele>
        <time>2018-03-03T17:35:54Z</time>
      </trkpt>
      <trkpt lat="62.63553393289" lon="17.986739494198">
        <ele>84</ele>
        <time>2018-03-03T17:35:55Z</time>
      </trkpt>
      <trkpt lat="62.635512307588" lon="17.9867862652">
        <ele>84</ele>
        <time>2018-03-03T17:35:56Z</time>
      </trkpt>
      <trkpt lat="62.635502584584" lon="17.986834461125">
        <ele>84</ele>
        <time>2018-03-03T17:35:57Z</time>
      </trkpt>
      <trkpt lat="62.63547945054" lon="17.986876035349">
        <ele>84.4</ele>
        <time>2018-03-03T17:35:58Z</time>
      </trkpt>
      <trkpt lat="62.635465033672" lon="17.986928422224">
        <ele>84.6</ele>
        <time>2018-03-03T17:35:59Z</time>
      </trkpt>
      <trkpt lat="62.635445336207" lon="17.986977875434">
        <ele>84.8</ele>
        <time>2018-03-03T17:36:00Z</time>
      </trkpt>
      <trkpt lat="62.635424549095" lon="17.987023305332">
        <ele>84.8</ele>
        <time>2018-03-03T17:36:01Z</time>
      </trkpt>
      <trkpt lat="62.635410299865" lon="17.987064460461">
        <ele>85</ele>
        <time>2018-03-03T17:36:02Z</time>
      </trkpt>
      <trkpt lat="62.635392362599" lon="17.987106202323">
        <ele>85.2</ele>
        <time>2018-03-03T17:36:03Z</time>
      </trkpt>
      <trkpt lat="62.635372665134" lon="17.987153308601">
        <ele>85.2</ele>
        <time>2018-03-03T17:36:04Z</time>
      </trkpt>
      <trkpt lat="62.63535204566" lon="17.987190943332">
        <ele>85.2</ele>
        <time>2018-03-03T17:36:05Z</time>
      </trkpt>
      <trkpt lat="62.635325894132" lon="17.987237546696">
        <ele>85.4</ele>
        <time>2018-03-03T17:36:06Z</time>
      </trkpt>
      <trkpt lat="62.635301586622" lon="17.987281048757">
        <ele>85.6</ele>
        <time>2018-03-03T17:36:07Z</time>
      </trkpt>
      <trkpt lat="62.635275602732" lon="17.987313319072">
        <ele>85.8</ele>
        <time>2018-03-03T17:36:08Z</time>
      </trkpt>
      <trkpt lat="62.635260180036" lon="17.98736545449">
        <ele>85.8</ele>
        <time>2018-03-03T17:36:09Z</time>
      </trkpt>
      <trkpt lat="62.635239225286" lon="17.987399652642">
        <ele>85.8</ele>
        <time>2018-03-03T17:36:10Z</time>
      </trkpt>
      <trkpt lat="62.635227322988" lon="17.987435443355">
        <ele>85.8</ele>
        <time>2018-03-03T17:36:11Z</time>
      </trkpt>
      <trkpt lat="62.63520200965" lon="17.987468719498">
        <ele>85.8</ele>
        <time>2018-03-03T17:36:12Z</time>
      </trkpt>
      <trkpt lat="62.635191029361" lon="17.987509204075">
        <ele>86</ele>
        <time>2018-03-03T17:36:13Z</time>
      </trkpt>
      <trkpt lat="62.635172170086" lon="17.987538289268">
        <ele>86</ele>
        <time>2018-03-03T17:36:14Z</time>
      </trkpt>
      <trkpt lat="62.635159597236" lon="17.98756913466">
        <ele>86</ele>
        <time>2018-03-03T17:36:15Z</time>
      </trkpt>
      <trkpt lat="62.635138726305" lon="17.987599812414">
        <ele>86</ele>
        <time>2018-03-03T17:36:16Z</time>
      </trkpt>
      <trkpt lat="62.635126488731" lon="17.987634429661">
        <ele>86.2</ele>
        <time>2018-03-03T17:36:17Z</time>
      </trkpt>
      <trkpt lat="62.63510477961" lon="17.987670723288">
        <ele>86.4</ele>
        <time>2018-03-03T17:36:18Z</time>
      </trkpt>
      <trkpt lat="62.635081226471" lon="17.987700646671">
        <ele>86.6</ele>
        <time>2018-03-03T17:36:19Z</time>
      </trkpt>
      <trkpt lat="62.635066474327" lon="17.98774599275">
        <ele>86.6</ele>
        <time>2018-03-03T17:36:20Z</time>
      </trkpt>
      <trkpt lat="62.635042837369" lon="17.987780609997">
        <ele>86.8</ele>
        <time>2018-03-03T17:36:21Z</time>
      </trkpt>
      <trkpt lat="62.63502096061" lon="17.987819585832">
        <ele>87</ele>
        <time>2018-03-03T17:36:22Z</time>
      </trkpt>
      <trkpt lat="62.63500587319" lon="17.987837271641">
        <ele>87.2</ele>
        <time>2018-03-03T17:36:23Z</time>
      </trkpt>
      <trkpt lat="62.634979386386" lon="17.987883623548">
        <ele>87.4</ele>
        <time>2018-03-03T17:36:24Z</time>
      </trkpt>
      <trkpt lat="62.634960024197" lon="17.987913798388">
        <ele>87.6</ele>
        <time>2018-03-03T17:36:25Z</time>
      </trkpt>
      <trkpt lat="62.634936638696" lon="17.987936345699">
        <ele>87.6</ele>
        <time>2018-03-03T17:36:26Z</time>
      </trkpt>
      <trkpt lat="62.634919120525" lon="17.987967442548">
        <ele>87.8</ele>
        <time>2018-03-03T17:36:27Z</time>
      </trkpt>
      <trkpt lat="62.634890286789" lon="17.987994516085">
        <ele>87.8</ele>
        <time>2018-03-03T17:36:28Z</time>
      </trkpt>
      <trkpt lat="62.63486170451" lon="17.988043382562">
        <ele>88</ele>
        <time>2018-03-03T17:36:29Z</time>
      </trkpt>
      <trkpt lat="62.634833960421" lon="17.988059308172">
        <ele>88.2</ele>
        <time>2018-03-03T17:36:30Z</time>
      </trkpt>
      <trkpt lat="62.634812502757" lon="17.988092668134">
        <ele>88.2</ele>
        <time>2018-03-03T17:36:31Z</time>
      </trkpt>
      <trkpt lat="62.634786435048" lon="17.988103564604">
        <ele>88.4</ele>
        <time>2018-03-03T17:36:32Z</time>
      </trkpt>
      <trkpt lat="62.634771096171" lon="17.988129799951">
        <ele>88.4</ele>
        <time>2018-03-03T17:36:33Z</time>
      </trkpt>
      <trkpt lat="62.634742178616" lon="17.988145390285">
        <ele>88.4</ele>
        <time>2018-03-03T17:36:34Z</time>
      </trkpt>
      <trkpt lat="62.634721140047" lon="17.988155951479">
        <ele>88.6</ele>
        <time>2018-03-03T17:36:35Z</time>
      </trkpt>
      <trkpt lat="62.634691803397" lon="17.988158214592">
        <ele>88.6</ele>
        <time>2018-03-03T17:36:36Z</time>
      </trkpt>
      <trkpt lat="62.63466389167" lon="17.988174056383">
        <ele>88.8</ele>
        <time>2018-03-03T17:36:37Z</time>
      </trkpt>
      <trkpt lat="62.634634806477" lon="17.988176570953">
        <ele>89</ele>
        <time>2018-03-03T17:36:38Z</time>
      </trkpt>
      <trkpt lat="62.63461192389" lon="17.988201213739">
        <ele>89</ele>
        <time>2018-03-03T17:36:39Z</time>
      </trkpt>
      <trkpt lat="62.634586023819" lon="17.988200878463">
        <ele>89.2</ele>
        <time>2018-03-03T17:36:40Z</time>
      </trkpt>
      <trkpt lat="62.634565991078" lon="17.988221162661">
        <ele>89.4</ele>
        <time>2018-03-03T17:36:41Z</time>
      </trkpt>
      <trkpt lat="62.6345356486" lon="17.988229544561">
        <ele>89.6</ele>
        <time>2018-03-03T17:36:42Z</time>
      </trkpt>
      <trkpt lat="62.634507904511" lon="17.988243542334">
        <ele>89.8</ele>
        <time>2018-03-03T17:36:43Z</time>
      </trkpt>
      <trkpt lat="62.634473371083" lon="17.988254019709">
        <ele>89.8</ele>
        <time>2018-03-03T17:36:44Z</time>
      </trkpt>
      <trkpt lat="62.634443615338" lon="17.988270364414">
        <ele>89.8</ele>
        <time>2018-03-03T17:36:45Z</time>
      </trkpt>
      <trkpt lat="62.634415200697" lon="17.988267263111">
        <ele>90</ele>
        <time>2018-03-03T17:36:46Z</time>
      </trkpt>
      <trkpt lat="62.63438896535" lon="17.988281428522">
        <ele>90</ele>
        <time>2018-03-03T17:36:47Z</time>
      </trkpt>
      <trkpt lat="62.634361975632" lon="17.988279668323">
        <ele>90.2</ele>
        <time>2018-03-03T17:36:48Z</time>
      </trkpt>
      <trkpt lat="62.63432945386" lon="17.988282853445">
        <ele>90.4</ele>
        <time>2018-03-03T17:36:49Z</time>
      </trkpt>
      <trkpt lat="62.634304140522" lon="17.988275812649">
        <ele>90.4</ele>
        <time>2018-03-03T17:36:50Z</time>
      </trkpt>
      <trkpt lat="62.634276731709" lon="17.98827572883">
        <ele>90.4</ele>
        <time>2018-03-03T17:36:51Z</time>
      </trkpt>
      <trkpt lat="62.634252005104" lon="17.988262820704">
        <ele>90.6</ele>
        <time>2018-03-03T17:36:52Z</time>
      </trkpt>
      <trkpt lat="62.634225434481" lon="17.988258797392">
        <ele>90.6</ele>
        <time>2018-03-03T17:36:53Z</time>
      </trkpt>
      <trkpt lat="62.634194672908" lon="17.988267179292">
        <ele>90.6</ele>
        <time>2018-03-03T17:36:54Z</time>
      </trkpt>
      <trkpt lat="62.634164749525" lon="17.98825142132">
        <ele>90.6</ele>
        <time>2018-03-03T17:36:55Z</time>
      </trkpt>
      <trkpt lat="62.634140442015" lon="17.988247817103">
        <ele>90.6</ele>
        <time>2018-03-03T17:36:56Z</time>
      </trkpt>
      <trkpt lat="62.634111943555" lon="17.988232059131">
        <ele>90.8</ele>
        <time>2018-03-03T17:36:57Z</time>
      </trkpt>
      <trkpt lat="62.634080846706" lon="17.98822208467">
        <ele>90.8</ele>
        <time>2018-03-03T17:36:58Z</time>
      </trkpt>
      <trkpt lat="62.634056455377" lon="17.98821286458">
        <ele>90.8</ele>
        <time>2018-03-03T17:36:59Z</time>
      </trkpt>
      <trkpt lat="62.634024939433" lon="17.988195514047">
        <ele>90.8</ele>
        <time>2018-03-03T17:37:00Z</time>
      </trkpt>
      <trkpt lat="62.633998452629" lon="17.988187635061">
        <ele>90.8</ele>
        <time>2018-03-03T17:37:01Z</time>
      </trkpt>
      <trkpt lat="62.633968361608" lon="17.988168524329">
        <ele>91</ele>
        <time>2018-03-03T17:37:02Z</time>
      </trkpt>
      <trkpt lat="62.633940868976" lon="17.988150503244">
        <ele>91</ele>
        <time>2018-03-03T17:37:03Z</time>
      </trkpt>
      <trkpt lat="62.633913627801" lon="17.988136337833">
        <ele>91.2</ele>
        <time>2018-03-03T17:37:04Z</time>
      </trkpt>
      <trkpt lat="62.63388940411" lon="17.988114125798">
        <ele>91.2</ele>
        <time>2018-03-03T17:37:05Z</time>
      </trkpt>
      <trkpt lat="62.633867192075" lon="17.98810809083">
        <ele>91.4</ele>
        <time>2018-03-03T17:37:06Z</time>
      </trkpt>
      <trkpt lat="62.633843555117" lon="17.988079005637">
        <ele>91.6</ele>
        <time>2018-03-03T17:37:07Z</time>
      </trkpt>
      <trkpt lat="62.633821343082" lon="17.988073557402">
        <ele>91.8</ele>
        <time>2018-03-03T17:37:08Z</time>
      </trkpt>
      <trkpt lat="62.633796784115" lon="17.988044136933">
        <ele>91.8</ele>
        <time>2018-03-03T17:37:09Z</time>
      </trkpt>
      <trkpt lat="62.633770297311" lon="17.988029803884">
        <ele>92</ele>
        <time>2018-03-03T17:37:10Z</time>
      </trkpt>
      <trkpt lat="62.633753114416" lon="17.988011196066">
        <ele>92</ele>
        <time>2018-03-03T17:37:11Z</time>
      </trkpt>
      <trkpt lat="62.633729645096" lon="17.987981105045">
        <ele>92</ele>
        <time>2018-03-03T17:37:12Z</time>
      </trkpt>
      <trkpt lat="62.633707600699" lon="17.987975237715">
        <ele>92</ele>
        <time>2018-03-03T17:37:13Z</time>
      </trkpt>
      <trkpt lat="62.633676755307" lon="17.987945230513">
        <ele>92</ele>
        <time>2018-03-03T17:37:14Z</time>
      </trkpt>
      <trkpt lat="62.63365051996" lon="17.987915390949">
        <ele>92</ele>
        <time>2018-03-03T17:37:15Z</time>
      </trkpt>
      <trkpt lat="62.633628224106" lon="17.987895274389">
        <ele>92.2</ele>
        <time>2018-03-03T17:37:16Z</time>
      </trkpt>
      <trkpt lat="62.633607856089" lon="17.987866189196">
        <ele>92.4</ele>
        <time>2018-03-03T17:37:17Z</time>
      </trkpt>
      <trkpt lat="62.633588242443" lon="17.987839199478">
        <ele>92.2</ele>
        <time>2018-03-03T17:37:18Z</time>
      </trkpt>
      <trkpt lat="62.63356753915" lon="17.987824363515">
        <ele>92.4</ele>
        <time>2018-03-03T17:37:19Z</time>
      </trkpt>
      <trkpt lat="62.633548847513" lon="17.987793937218">
        <ele>92.6</ele>
        <time>2018-03-03T17:37:20Z</time>
      </trkpt>
      <trkpt lat="62.63352395327" lon="17.987772731011">
        <ele>92.8</ele>
        <time>2018-03-03T17:37:21Z</time>
      </trkpt>
      <trkpt lat="62.633507692384" lon="17.987732078796">
        <ele>93</ele>
        <time>2018-03-03T17:37:22Z</time>
      </trkpt>
      <trkpt lat="62.633488833109" lon="17.98770492144">
        <ele>93</ele>
        <time>2018-03-03T17:37:23Z</time>
      </trkpt>
      <trkpt lat="62.633463100676" lon="17.987661922293">
        <ele>93.2</ele>
        <time>2018-03-03T17:37:24Z</time>
      </trkpt>
      <trkpt lat="62.633444492858" lon="17.987634764937">
        <ele>93.2</ele>
        <time>2018-03-03T17:37:25Z</time>
      </trkpt>
      <trkpt lat="62.633423705746" lon="17.987611547074">
        <ele>93.4</ele>
        <time>2018-03-03T17:37:26Z</time>
      </trkpt>
      <trkpt lat="62.633403589186" lon="17.987576762189">
        <ele>93.4</ele>
        <time>2018-03-03T17:37:27Z</time>
      </trkpt>
      <trkpt lat="62.633387915033" lon="17.987545581521">
        <ele>93.6</ele>
        <time>2018-03-03T17:37:28Z</time>
      </trkpt>
      <trkpt lat="62.63337475545" lon="17.987518256527">
        <ele>94</ele>
        <time>2018-03-03T17:37:29Z</time>
      </trkpt>
      <trkpt lat="62.633360087125" lon="17.987472575172">
        <ele>94.2</ele>
        <time>2018-03-03T17:37:30Z</time>
      </trkpt>
      <trkpt lat="62.633345334981" lon="17.987427815826">
        <ele>94.6</ele>
        <time>2018-03-03T17:37:31Z</time>
      </trkpt>
      <trkpt lat="62.633329325552" lon="17.987390264914">
        <ele>94.6</ele>
        <time>2018-03-03T17:37:32Z</time>
      </trkpt>
      <trkpt lat="62.633309795725" lon="17.98733527965">
        <ele>94.8</ele>
        <time>2018-03-03T17:37:33Z</time>
      </trkpt>
      <trkpt lat="62.633288757156" lon="17.987286413173">
        <ele>94.8</ele>
        <time>2018-03-03T17:37:34Z</time>
      </trkpt>
      <trkpt lat="62.633264365827" lon="17.987197900309">
        <ele>94.8</ele>
        <time>2018-03-03T17:37:35Z</time>
      </trkpt>
      <trkpt lat="62.633235532091" lon="17.987076781854">
        <ele>94.4</ele>
        <time>2018-03-03T17:37:36Z</time>
      </trkpt>
      <trkpt lat="62.633211978952" lon="17.986965302584">
        <ele>93.8</ele>
        <time>2018-03-03T17:37:37Z</time>
      </trkpt>
      <trkpt lat="62.633193119677" lon="17.986859355368">
        <ele>93.2</ele>
        <time>2018-03-03T17:37:38Z</time>
      </trkpt>
      <trkpt lat="62.633177445524" lon="17.986743768967">
        <ele>92.6</ele>
        <time>2018-03-03T17:37:39Z</time>
      </trkpt>
      <trkpt lat="62.633165962321" lon="17.986639330493">
        <ele>91.8</ele>
        <time>2018-03-03T17:37:40Z</time>
      </trkpt>
      <trkpt lat="62.63315934062" lon="17.986551739638">
        <ele>91.2</ele>
        <time>2018-03-03T17:37:41Z</time>
      </trkpt>
      <trkpt lat="62.633154143842" lon="17.986439505997">
        <ele>90.8</ele>
        <time>2018-03-03T17:37:42Z</time>
      </trkpt>
      <trkpt lat="62.633145845761" lon="17.986339342292">
        <ele>90.8</ele>
        <time>2018-03-03T17:37:43Z</time>
      </trkpt>
      <trkpt lat="62.6331274894" lon="17.986242950442">
        <ele>90.8</ele>
        <time>2018-03-03T17:37:44Z</time>
      </trkpt>
      <trkpt lat="62.633130758341" lon="17.98611990415">
        <ele>91</ele>
        <time>2018-03-03T17:37:45Z</time>
      </trkpt>
      <trkpt lat="62.633135955119" lon="17.986012951106">
        <ele>91</ele>
        <time>2018-03-03T17:37:46Z</time>
      </trkpt>
      <trkpt lat="62.633136960947" lon="17.985899795456">
        <ele>90.8</ele>
        <time>2018-03-03T17:37:47Z</time>
      </trkpt>
      <trkpt lat="62.633139978431" lon="17.985783035589">
        <ele>90.4</ele>
        <time>2018-03-03T17:37:48Z</time>
      </trkpt>
      <trkpt lat="62.633142241544" lon="17.985665353713">
        <ele>90</ele>
        <time>2018-03-03T17:37:49Z</time>
      </trkpt>
      <trkpt lat="62.633143666467" lon="17.985566112017">
        <ele>89.2</ele>
        <time>2018-03-03T17:37:50Z</time>
      </trkpt>
      <trkpt lat="62.633147354503" lon="17.985465193941">
        <ele>88.4</ele>
        <time>2018-03-03T17:37:51Z</time>
      </trkpt>
      <trkpt lat="62.63314509139" lon="17.985360839286">
        <ele>88.2</ele>
        <time>2018-03-03T17:37:52Z</time>
      </trkpt>
      <trkpt lat="62.633147019227" lon="17.985237876813">
        <ele>88.4</ele>
        <time>2018-03-03T17:37:53Z</time>
      </trkpt>
      <trkpt lat="62.633164956493" lon="17.985078788351">
        <ele>88.2</ele>
        <time>2018-03-03T17:37:54Z</time>
      </trkpt>
      <trkpt lat="62.633183731949" lon="17.984944258856">
        <ele>87.8</ele>
        <time>2018-03-03T17:37:55Z</time>
      </trkpt>
      <trkpt lat="62.63320125012" lon="17.98484250259">
        <ele>87.2</ele>
        <time>2018-03-03T17:37:56Z</time>
      </trkpt>
      <trkpt lat="62.633227904562" lon="17.984729430759">
        <ele>86.6</ele>
        <time>2018-03-03T17:37:57Z</time>
      </trkpt>
      <trkpt lat="62.633251206244" lon="17.984628428864">
        <ele>85.8</ele>
        <time>2018-03-03T17:37:58Z</time>
      </trkpt>
      <trkpt lat="62.633273753555" lon="17.98452818134">
        <ele>85.2</ele>
        <time>2018-03-03T17:37:59Z</time>
      </trkpt>
      <trkpt lat="62.633296300866" lon="17.984428688187">
        <ele>85</ele>
        <time>2018-03-03T17:38:00Z</time>
      </trkpt>
      <trkpt lat="62.633308789897" lon="17.984337996029">
        <ele>85</ele>
        <time>2018-03-03T17:38:01Z</time>
      </trkpt>
      <trkpt lat="62.633310801553" lon="17.984253087382">
        <ele>85</ele>
        <time>2018-03-03T17:38:02Z</time>
      </trkpt>
      <trkpt lat="62.633316585064" lon="17.984174632798">
        <ele>85</ele>
        <time>2018-03-03T17:38:03Z</time>
      </trkpt>
      <trkpt lat="62.633312226476" lon="17.984095088567">
        <ele>85.4</ele>
        <time>2018-03-03T17:38:04Z</time>
      </trkpt>
      <trkpt lat="62.633319267272" lon="17.9840202382">
        <ele>85.6</ele>
        <time>2018-03-03T17:38:05Z</time>
      </trkpt>
      <trkpt lat="62.633325553697" lon="17.983939520503">
        <ele>85.6</ele>
        <time>2018-03-03T17:38:06Z</time>
      </trkpt>
      <trkpt lat="62.633325218421" lon="17.983873471131">
        <ele>85.8</ele>
        <time>2018-03-03T17:38:07Z</time>
      </trkpt>
      <trkpt lat="62.633337288357" lon="17.983801805886">
        <ele>86.2</ele>
        <time>2018-03-03T17:38:08Z</time>
      </trkpt>
      <trkpt lat="62.633346173171" lon="17.983726787881">
        <ele>86.2</ele>
        <time>2018-03-03T17:38:09Z</time>
      </trkpt>
      <trkpt lat="62.633354219795" lon="17.983670210056">
        <ele>86.4</ele>
        <time>2018-03-03T17:38:10Z</time>
      </trkpt>
      <trkpt lat="62.633368636663" lon="17.983603238675">
        <ele>86.6</ele>
        <time>2018-03-03T17:38:11Z</time>
      </trkpt>
      <trkpt lat="62.633380287504" lon="17.983543894823">
        <ele>86.8</ele>
        <time>2018-03-03T17:38:12Z</time>
      </trkpt>
      <trkpt lat="62.63339738658" lon="17.983479186555">
        <ele>86.8</ele>
        <time>2018-03-03T17:38:13Z</time>
      </trkpt>
      <trkpt lat="62.633413563647" lon="17.983414562106">
        <ele>86.8</ele>
        <time>2018-03-03T17:38:14Z</time>
      </trkpt>
      <trkpt lat="62.633421023538" lon="17.98335220077">
        <ele>86.8</ele>
        <time>2018-03-03T17:38:15Z</time>
      </trkpt>
      <trkpt lat="62.633438876985" lon="17.983275674023">
        <ele>86.8</ele>
        <time>2018-03-03T17:38:16Z</time>
      </trkpt>
      <trkpt lat="62.633442229745" lon="17.983227981012">
        <ele>86.8</ele>
        <time>2018-03-03T17:38:17Z</time>
      </trkpt>
      <trkpt lat="62.633454215862" lon="17.983164278572">
        <ele>86.8</ele>
        <time>2018-03-03T17:38:18Z</time>
      </trkpt>
      <trkpt lat="62.633474835336" lon="17.983093116241">
        <ele>86.8</ele>
        <time>2018-03-03T17:38:19Z</time>
      </trkpt>
      <trkpt lat="62.633491766774" lon="17.983029749077">
        <ele>86.8</ele>
        <time>2018-03-03T17:38:20Z</time>
      </trkpt>
      <trkpt lat="62.633499897217" lon="17.982984319179">
        <ele>86.6</ele>
        <time>2018-03-03T17:38:21Z</time>
      </trkpt>
      <trkpt lat="62.63352395327" lon="17.982905026405">
        <ele>86.8</ele>
        <time>2018-03-03T17:38:22Z</time>
      </trkpt>
      <trkpt lat="62.633535185016" lon="17.982848616218">
        <ele>86.6</ele>
        <time>2018-03-03T17:38:23Z</time>
      </trkpt>
      <trkpt lat="62.633550356255" lon="17.982780219914">
        <ele>86.8</ele>
        <time>2018-03-03T17:38:24Z</time>
      </trkpt>
      <trkpt lat="62.633568544978" lon="17.982706375375">
        <ele>86.8</ele>
        <time>2018-03-03T17:38:25Z</time>
      </trkpt>
      <trkpt lat="62.633576675421" lon="17.982653401767">
        <ele>86.8</ele>
        <time>2018-03-03T17:38:26Z</time>
      </trkpt>
      <trkpt lat="62.633591427565" lon="17.982577294115">
        <ele>87</ele>
        <time>2018-03-03T17:38:27Z</time>
      </trkpt>
      <trkpt lat="62.633594947963" lon="17.982521638299">
        <ele>86.8</ele>
        <time>2018-03-03T17:38:28Z</time>
      </trkpt>
      <trkpt lat="62.633599809465" lon="17.982462378266">
        <ele>87</ele>
        <time>2018-03-03T17:38:29Z</time>
      </trkpt>
      <trkpt lat="62.633617411455" lon="17.982373027212">
        <ele>87.2</ele>
        <time>2018-03-03T17:38:30Z</time>
      </trkpt>
      <trkpt lat="62.633620848034" lon="17.982303960356">
        <ele>87.2</ele>
        <time>2018-03-03T17:38:31Z</time>
      </trkpt>
      <trkpt lat="62.633631576866" lon="17.982240677011">
        <ele>87.2</ele>
        <time>2018-03-03T17:38:32Z</time>
      </trkpt>
      <trkpt lat="62.633641216051" lon="17.982174124725">
        <ele>87.2</ele>
        <time>2018-03-03T17:38:33Z</time>
      </trkpt>
      <trkpt lat="62.633649178856" lon="17.982111260475">
        <ele>87.2</ele>
        <time>2018-03-03T17:38:34Z</time>
      </trkpt>
      <trkpt lat="62.63365722548" lon="17.982054095917">
        <ele>87.2</ele>
        <time>2018-03-03T17:38:35Z</time>
      </trkpt>
      <trkpt lat="62.633659069498" lon="17.982009504209">
        <ele>87</ele>
        <time>2018-03-03T17:38:36Z</time>
      </trkpt>
      <trkpt lat="62.63366057824" lon="17.981959380447">
        <ele>87.2</ele>
        <time>2018-03-03T17:38:37Z</time>
      </trkpt>
      <trkpt lat="62.633667535217" lon="17.981900371871">
        <ele>87.4</ele>
        <time>2018-03-03T17:38:38Z</time>
      </trkpt>
      <trkpt lat="62.633670217425" lon="17.981843291132">
        <ele>87.2</ele>
        <time>2018-03-03T17:38:39Z</time>
      </trkpt>
      <trkpt lat="62.633675330384" lon="17.981794340836">
        <ele>87.4</ele>
        <time>2018-03-03T17:38:40Z</time>
      </trkpt>
      <trkpt lat="62.633681616809" lon="17.981729967844">
        <ele>87.4</ele>
        <time>2018-03-03T17:38:41Z</time>
      </trkpt>
      <trkpt lat="62.633683963741" lon="17.981654530744">
        <ele>87.6</ele>
        <time>2018-03-03T17:38:42Z</time>
      </trkpt>
      <trkpt lat="62.63368823851" lon="17.981590157752">
        <ele>87.6</ele>
        <time>2018-03-03T17:38:43Z</time>
      </trkpt>
      <trkpt lat="62.633700308446" lon="17.981518492507">
        <ele>87.4</ele>
        <time>2018-03-03T17:38:44Z</time>
      </trkpt>
      <trkpt lat="62.633703493568" lon="17.981465183623">
        <ele>87.4</ele>
        <time>2018-03-03T17:38:45Z</time>
      </trkpt>
      <trkpt lat="62.633719083902" lon="17.981400391536">
        <ele>87.6</ele>
        <time>2018-03-03T17:38:46Z</time>
      </trkpt>
      <trkpt lat="62.633733416951" lon="17.981339371304">
        <ele>87.4</ele>
        <time>2018-03-03T17:38:47Z</time>
      </trkpt>
      <trkpt lat="62.633746157439" lon="17.981264185661">
        <ele>87.4</ele>
        <time>2018-03-03T17:38:48Z</time>
      </trkpt>
      <trkpt lat="62.633760071393" lon="17.981198303927">
        <ele>87.4</ele>
        <time>2018-03-03T17:38:49Z</time>
      </trkpt>
      <trkpt lat="62.633779349763" lon="17.981144995043">
        <ele>87.4</ele>
        <time>2018-03-03T17:38:50Z</time>
      </trkpt>
      <trkpt lat="62.63379887959" lon="17.98108992596">
        <ele>87.4</ele>
        <time>2018-03-03T17:38:51Z</time>
      </trkpt>
      <trkpt lat="62.633816397761" lon="17.981040891845">
        <ele>87.4</ele>
        <time>2018-03-03T17:38:52Z</time>
      </trkpt>
      <trkpt lat="62.633834418846" lon="17.980999066164">
        <ele>87.6</ele>
        <time>2018-03-03T17:38:53Z</time>
      </trkpt>
      <trkpt lat="62.633857720528" lon="17.980933435887">
        <ele>87.6</ele>
        <time>2018-03-03T17:38:54Z</time>
      </trkpt>
      <trkpt lat="62.633877753269" lon="17.980877360976">
        <ele>87.8</ele>
        <time>2018-03-03T17:38:55Z</time>
      </trkpt>
      <trkpt lat="62.63389191868" lon="17.980826231386">
        <ele>88</ele>
        <time>2018-03-03T17:38:56Z</time>
      </trkpt>
      <trkpt lat="62.633911867602" lon="17.980761187842">
        <ele>88.2</ele>
        <time>2018-03-03T17:38:57Z</time>
      </trkpt>
      <trkpt lat="62.633929553411" lon="17.980705532026">
        <ele>88.4</ele>
        <time>2018-03-03T17:38:58Z</time>
      </trkpt>
      <trkpt lat="62.633940617519" lon="17.980657084644">
        <ele>88.4</ele>
        <time>2018-03-03T17:38:59Z</time>
      </trkpt>
      <trkpt lat="62.633961739907" lon="17.980590532358">
        <ele>88.6</ele>
        <time>2018-03-03T17:39:00Z</time>
      </trkpt>
      <trkpt lat="62.63397909044" lon="17.980519453846">
        <ele>88.6</ele>
        <time>2018-03-03T17:39:01Z</time>
      </trkpt>
      <trkpt lat="62.633993674946" lon="17.980474945957">
        <ele>88.6</ele>
        <time>2018-03-03T17:39:02Z</time>
      </trkpt>
      <trkpt lat="62.634015384067" lon="17.980425995661">
        <ele>88.6</ele>
        <time>2018-03-03T17:39:03Z</time>
      </trkpt>
      <trkpt lat="62.634033908066" lon="17.980370256026">
        <ele>88.6</ele>
        <time>2018-03-03T17:39:04Z</time>
      </trkpt>
      <trkpt lat="62.6340494984" lon="17.980324826128">
        <ele>88.6</ele>
        <time>2018-03-03T17:39:05Z</time>
      </trkpt>
      <trkpt lat="62.634076823394" lon="17.980271517244">
        <ele>88.6</ele>
        <time>2018-03-03T17:39:06Z</time>
      </trkpt>
      <trkpt lat="62.634099873619" lon="17.980227344631">
        <ele>88.6</ele>
        <time>2018-03-03T17:39:07Z</time>
      </trkpt>
      <trkpt lat="62.634127869165" lon="17.980189123167">
        <ele>88.8</ele>
        <time>2018-03-03T17:39:08Z</time>
      </trkpt>
      <trkpt lat="62.634150835571" lon="17.980142687441">
        <ele>88.8</ele>
        <time>2018-03-03T17:39:09Z</time>
      </trkpt>
      <trkpt lat="62.634172125597" lon="17.980096419353">
        <ele>88.8</ele>
        <time>2018-03-03T17:39:10Z</time>
      </trkpt>
      <trkpt lat="62.634197606573" lon="17.980045625039">
        <ele>89</ele>
        <time>2018-03-03T17:39:11Z</time>
      </trkpt>
      <trkpt lat="62.634219148056" lon="17.979983012246">
        <ele>88.8</ele>
        <time>2018-03-03T17:39:12Z</time>
      </trkpt>
      <trkpt lat="62.634230463621" lon="17.979928697534">
        <ele>88.8</ele>
        <time>2018-03-03T17:39:13Z</time>
      </trkpt>
      <trkpt lat="62.634254435855" lon="17.979864659818">
        <ele>88.6</ele>
        <time>2018-03-03T17:39:14Z</time>
      </trkpt>
      <trkpt lat="62.634271954026" lon="17.979814452237">
        <ele>88.6</ele>
        <time>2018-03-03T17:39:15Z</time>
      </trkpt>
      <trkpt lat="62.634287963455" lon="17.979765753398">
        <ele>88.6</ele>
        <time>2018-03-03T17:39:16Z</time>
      </trkpt>
      <trkpt lat="62.634310594585" lon="17.979690567755">
        <ele>88.4</ele>
        <time>2018-03-03T17:39:17Z</time>
      </trkpt>
      <trkpt lat="62.634325682005" lon="17.979622003813">
        <ele>88.6</ele>
        <time>2018-03-03T17:39:18Z</time>
      </trkpt>
      <trkpt lat="62.634337081389" lon="17.979559893934">
        <ele>88.6</ele>
        <time>2018-03-03T17:39:19Z</time>
      </trkpt>
      <trkpt lat="62.634351665895" lon="17.979493257829">
        <ele>88.8</ele>
        <time>2018-03-03T17:39:20Z</time>
      </trkpt>
      <trkpt lat="62.634359544881" lon="17.979424777706">
        <ele>88.8</ele>
        <time>2018-03-03T17:39:21Z</time>
      </trkpt>
      <trkpt lat="62.634369854618" lon="17.979366104406">
        <ele>88.8</ele>
        <time>2018-03-03T17:39:22Z</time>
      </trkpt>
      <trkpt lat="62.634374213206" lon="17.97932302144">
        <ele>88.8</ele>
        <time>2018-03-03T17:39:23Z</time>
      </trkpt>
      <trkpt lat="62.634385025857" lon="17.979231742549">
        <ele>88.6</ele>
        <time>2018-03-03T17:39:24Z</time>
      </trkpt>
      <trkpt lat="62.634391144644" lon="17.979166028453">
        <ele>88.6</ele>
        <time>2018-03-03T17:39:25Z</time>
      </trkpt>
      <trkpt lat="62.634402627847" lon="17.979108696257">
        <ele>88.6</ele>
        <time>2018-03-03T17:39:26Z</time>
      </trkpt>
      <trkpt lat="62.634417799086" lon="17.97904390417">
        <ele>88.6</ele>
        <time>2018-03-03T17:39:27Z</time>
      </trkpt>
      <trkpt lat="62.634428276461" lon="17.978979112083">
        <ele>88.6</ele>
        <time>2018-03-03T17:39:28Z</time>
      </trkpt>
      <trkpt lat="62.63445099141" lon="17.978848186805">
        <ele>88.6</ele>
        <time>2018-03-03T17:39:30Z</time>
      </trkpt>
      <trkpt lat="62.634463061346" lon="17.978786831297">
        <ele>88.4</ele>
        <time>2018-03-03T17:39:31Z</time>
      </trkpt>
      <trkpt lat="62.634475801834" lon="17.978733270956">
        <ele>88.6</ele>
        <time>2018-03-03T17:39:32Z</time>
      </trkpt>
      <trkpt lat="62.634486865942" lon="17.978690774723">
        <ele>88.4</ele>
        <time>2018-03-03T17:39:33Z</time>
      </trkpt>
      <trkpt lat="62.634502288638" lon="17.978645428644">
        <ele>88.4</ele>
        <time>2018-03-03T17:39:34Z</time>
      </trkpt>
      <trkpt lat="62.634524416854" lon="17.978629083939">
        <ele>88.2</ele>
        <time>2018-03-03T17:39:35Z</time>
      </trkpt>
      <trkpt lat="62.63454905964" lon="17.978632771975">
        <ele>88.2</ele>
        <time>2018-03-03T17:39:36Z</time>
      </trkpt>
      <trkpt lat="62.634568254191" lon="17.978653642906">
        <ele>88.4</ele>
        <time>2018-03-03T17:39:37Z</time>
      </trkpt>
      <trkpt lat="62.634583844525" lon="17.978676022579">
        <ele>88.4</ele>
        <time>2018-03-03T17:39:38Z</time>
      </trkpt>
      <trkpt lat="62.634602200886" lon="17.97871784826">
        <ele>88.6</ele>
        <time>2018-03-03T17:39:39Z</time>
      </trkpt>
      <trkpt lat="62.634620976342" lon="17.978744921797">
        <ele>88.6</ele>
        <time>2018-03-03T17:39:40Z</time>
      </trkpt>
      <trkpt lat="62.634639081246" lon="17.978763194339">
        <ele>88.6</ele>
        <time>2018-03-03T17:39:41Z</time>
      </trkpt>
      <trkpt lat="62.634665819507" lon="17.978780796329">
        <ele>88.6</ele>
        <time>2018-03-03T17:39:42Z</time>
      </trkpt>
      <trkpt lat="62.634688618275" lon="17.978794542645">
        <ele>88.6</ele>
        <time>2018-03-03T17:39:43Z</time>
      </trkpt>
      <trkpt lat="62.63471585945" lon="17.978807953685">
        <ele>88.4</ele>
        <time>2018-03-03T17:39:44Z</time>
      </trkpt>
      <trkpt lat="62.634743687358" lon="17.978824130752">
        <ele>88.4</ele>
        <time>2018-03-03T17:39:45Z</time>
      </trkpt>
      <trkpt lat="62.634768833058" lon="17.978828656978">
        <ele>88.2</ele>
        <time>2018-03-03T17:39:46Z</time>
      </trkpt>
      <trkpt lat="62.63480219302" lon="17.978842990027">
        <ele>88.2</ele>
        <time>2018-03-03T17:39:47Z</time>
      </trkpt>
      <trkpt lat="62.634828344548" lon="17.97885112047">
        <ele>88</ele>
        <time>2018-03-03T17:39:48Z</time>
      </trkpt>
      <trkpt lat="62.634859692854" lon="17.978863944777">
        <ele>88</ele>
        <time>2018-03-03T17:39:49Z</time>
      </trkpt>
      <trkpt lat="62.634877881577" lon="17.978870566478">
        <ele>88</ele>
        <time>2018-03-03T17:39:50Z</time>
      </trkpt>
      <trkpt lat="62.634910068073" lon="17.978880876215">
        <ele>87.8</ele>
        <time>2018-03-03T17:39:51Z</time>
      </trkpt>
      <trkpt lat="62.63494133256" lon="17.978895041626">
        <ele>87.8</ele>
        <time>2018-03-03T17:39:52Z</time>
      </trkpt>
      <trkpt lat="62.634951307021" lon="17.978898729662">
        <ele>87.6</ele>
        <time>2018-03-03T17:39:53Z</time>
      </trkpt>
      <trkpt lat="62.634978632015" lon="17.978908033571">
        <ele>87.6</ele>
        <time>2018-03-03T17:39:54Z</time>
      </trkpt>
      <trkpt lat="62.635001346964" lon="17.978927731036">
        <ele>87.6</ele>
        <time>2018-03-03T17:39:55Z</time>
      </trkpt>
      <trkpt lat="62.635022134076" lon="17.978936029117">
        <ele>87.6</ele>
        <time>2018-03-03T17:39:56Z</time>
      </trkpt>
      <trkpt lat="62.635042585912" lon="17.978938040773">
        <ele>87.4</ele>
        <time>2018-03-03T17:39:57Z</time>
      </trkpt>
      <trkpt lat="62.635070832915" lon="17.978946925587">
        <ele>87.6</ele>
        <time>2018-03-03T17:39:58Z</time>
      </trkpt>
      <trkpt lat="62.635091452389" lon="17.978951870908">
        <ele>87.6</ele>
        <time>2018-03-03T17:39:59Z</time>
      </trkpt>
      <trkpt lat="62.635132188423" lon="17.978970562545">
        <ele>87.6</ele>
        <time>2018-03-03T17:40:00Z</time>
      </trkpt>
      <trkpt lat="62.635161189797" lon="17.978963018835">
        <ele>87.6</ele>
        <time>2018-03-03T17:40:01Z</time>
      </trkpt>
      <trkpt lat="62.635193963026" lon="17.978977351884">
        <ele>87.6</ele>
        <time>2018-03-03T17:40:02Z</time>
      </trkpt>
      <trkpt lat="62.635220952744" lon="17.978981291377">
        <ele>87.6</ele>
        <time>2018-03-03T17:40:03Z</time>
      </trkpt>
      <trkpt lat="62.635255821448" lon="17.978984811775">
        <ele>87.6</ele>
        <time>2018-03-03T17:40:04Z</time>
      </trkpt>
      <trkpt lat="62.635284487546" lon="17.978987158707">
        <ele>87.2</ele>
        <time>2018-03-03T17:40:05Z</time>
      </trkpt>
      <trkpt lat="62.635317009318" lon="17.978991349657">
        <ele>86.8</ele>
        <time>2018-03-03T17:40:06Z</time>
      </trkpt>
      <trkpt lat="62.635347267977" lon="17.978991182019">
        <ele>86.6</ele>
        <time>2018-03-03T17:40:07Z</time>
      </trkpt>
      <trkpt lat="62.635375431161" lon="17.978987158707">
        <ele>86.2</ele>
        <time>2018-03-03T17:40:08Z</time>
      </trkpt>
      <trkpt lat="62.635407869114" lon="17.978969137622">
        <ele>85.6</ele>
        <time>2018-03-03T17:40:09Z</time>
      </trkpt>
      <trkpt lat="62.635442821637" lon="17.978969137622">
        <ele>85.2</ele>
        <time>2018-03-03T17:40:10Z</time>
      </trkpt>
      <trkpt lat="62.635479953454" lon="17.978973077115">
        <ele>84.8</ele>
        <time>2018-03-03T17:40:11Z</time>
      </trkpt>
      <trkpt lat="62.63551465452" lon="17.978976429875">
        <ele>84.4</ele>
        <time>2018-03-03T17:40:12Z</time>
      </trkpt>
      <trkpt lat="62.635543655894" lon="17.978977016608">
        <ele>84</ele>
        <time>2018-03-03T17:40:13Z</time>
      </trkpt>
      <trkpt lat="62.635580368616" lon="17.978971736011">
        <ele>83.8</ele>
        <time>2018-03-03T17:40:14Z</time>
      </trkpt>
      <trkpt lat="62.635618925356" lon="17.978966036319">
        <ele>83.6</ele>
        <time>2018-03-03T17:40:15Z</time>
      </trkpt>
      <trkpt lat="62.635662511236" lon="17.978965701043">
        <ele>83.4</ele>
        <time>2018-03-03T17:40:16Z</time>
      </trkpt>
      <trkpt lat="62.6356923508" lon="17.978964443758">
        <ele>83.2</ele>
        <time>2018-03-03T17:40:17Z</time>
      </trkpt>
      <trkpt lat="62.635721603631" lon="17.978965030491">
        <ele>83.2</ele>
        <time>2018-03-03T17:40:18Z</time>
      </trkpt>
      <trkpt lat="62.635753035756" lon="17.97896259974">
        <ele>83.4</ele>
        <time>2018-03-03T17:40:19Z</time>
      </trkpt>
      <trkpt lat="62.635778097637" lon="17.978957822057">
        <ele>83.6</ele>
        <time>2018-03-03T17:40:20Z</time>
      </trkpt>
      <trkpt lat="62.635811709056" lon="17.978962348283">
        <ele>83.8</ele>
        <time>2018-03-03T17:40:21Z</time>
      </trkpt>
      <trkpt lat="62.635838950231" lon="17.978969389079">
        <ele>84</ele>
        <time>2018-03-03T17:40:22Z</time>
      </trkpt>
      <trkpt lat="62.635854372927" lon="17.978971987468">
        <ele>84.2</ele>
        <time>2018-03-03T17:40:23Z</time>
      </trkpt>
      <trkpt lat="62.63588345812" lon="17.978982381024">
        <ele>84</ele>
        <time>2018-03-03T17:40:24Z</time>
      </trkpt>
      <trkpt lat="62.635900389558" lon="17.978982548662">
        <ele>84</ele>
        <time>2018-03-03T17:40:25Z</time>
      </trkpt>
      <trkpt lat="62.635914890245" lon="17.978984141223">
        <ele>84</ele>
        <time>2018-03-03T17:40:26Z</time>
      </trkpt>
      <trkpt lat="62.635938946298" lon="17.978987577802">
        <ele>84</ele>
        <time>2018-03-03T17:40:27Z</time>
      </trkpt>
      <trkpt lat="62.635952860252" lon="17.978996462616">
        <ele>84</ele>
        <time>2018-03-03T17:40:28Z</time>
      </trkpt>
      <trkpt lat="62.635973395907" lon="17.979024541981">
        <ele>84.2</ele>
        <time>2018-03-03T17:40:29Z</time>
      </trkpt>
      <trkpt lat="62.635987728956" lon="17.979057901943">
        <ele>84.4</ele>
        <time>2018-03-03T17:40:30Z</time>
      </trkpt>
      <trkpt lat="62.635992674277" lon="17.979093189742">
        <ele>84.6</ele>
        <time>2018-03-03T17:40:31Z</time>
      </trkpt>
      <trkpt lat="62.635993847743" lon="17.979118167804">
        <ele>84.8</ele>
        <time>2018-03-03T17:40:32Z</time>
      </trkpt>
      <trkpt lat="62.635993512467" lon="17.979144654608">
        <ele>85</ele>
        <time>2018-03-03T17:40:33Z</time>
      </trkpt>
      <trkpt lat="62.635987477499" lon="17.979169297394">
        <ele>85</ele>
        <time>2018-03-03T17:40:34Z</time>
      </trkpt>
      <trkpt lat="62.635984124739" lon="17.979187067022">
        <ele>85</ele>
        <time>2018-03-03T17:40:36Z</time>
      </trkpt>
      <trkpt lat="62.635984208558" lon="17.979206345392">
        <ele>85</ele>
        <time>2018-03-03T17:40:37Z</time>
      </trkpt>
      <trkpt lat="62.635980436703" lon="17.979252278204">
        <ele>84.8</ele>
        <time>2018-03-03T17:40:38Z</time>
      </trkpt>
      <trkpt lat="62.635975072287" lon="17.979309442762">
        <ele>84.6</ele>
        <time>2018-03-03T17:40:39Z</time>
      </trkpt>
      <trkpt lat="62.63597817359" lon="17.979375408315">
        <ele>84.6</ele>
        <time>2018-03-03T17:40:40Z</time>
      </trkpt>
      <trkpt lat="62.63597398264" lon="17.979456461288">
        <ele>84.6</ele>
        <time>2018-03-03T17:40:41Z</time>
      </trkpt>
      <trkpt lat="62.635972892993" lon="17.979538603908">
        <ele>84.2</ele>
        <time>2018-03-03T17:40:42Z</time>
      </trkpt>
      <trkpt lat="62.635963505265" lon="17.979669529186">
        <ele>84.2</ele>
        <time>2018-03-03T17:40:43Z</time>
      </trkpt>
      <trkpt lat="62.635964091998" lon="17.979839765575">
        <ele>84</ele>
        <time>2018-03-03T17:40:44Z</time>
      </trkpt>
      <trkpt lat="62.635973228269" lon="17.979993908716">
        <ele>83.6</ele>
        <time>2018-03-03T17:40:45Z</time>
      </trkpt>
      <trkpt lat="62.635987980413" lon="17.98012516927">
        <ele>82.8</ele>
        <time>2018-03-03T17:40:46Z</time>
      </trkpt>
      <trkpt lat="62.636009689534" lon="17.980289538329">
        <ele>82</ele>
        <time>2018-03-03T17:40:47Z</time>
      </trkpt>
      <trkpt lat="62.63603014137" lon="17.980425073652">
        <ele>81.2</ele>
        <time>2018-03-03T17:40:48Z</time>
      </trkpt>
      <trkpt lat="62.636051012301" lon="17.980572427454">
        <ele>80.6</ele>
        <time>2018-03-03T17:40:49Z</time>
      </trkpt>
      <trkpt lat="62.636074900716" lon="17.980701508714">
        <ele>79.8</ele>
        <time>2018-03-03T17:40:50Z</time>
      </trkpt>
      <trkpt lat="62.636098118579" lon="17.980825644653">
        <ele>78.4</ele>
        <time>2018-03-03T17:40:51Z</time>
      </trkpt>
      <trkpt lat="62.636118486596" lon="17.980945589642">
        <ele>77.6</ele>
        <time>2018-03-03T17:40:52Z</time>
      </trkpt>
      <trkpt lat="62.636137932604" lon="17.981051201582">
        <ele>77.4</ele>
        <time>2018-03-03T17:40:53Z</time>
      </trkpt>
      <trkpt lat="62.636160144639" lon="17.98118464143">
        <ele>76.8</ele>
        <time>2018-03-03T17:40:54Z</time>
      </trkpt>
      <trkpt lat="62.636172717489" lon="17.981286649153">
        <ele>76.4</ele>
        <time>2018-03-03T17:40:55Z</time>
      </trkpt>
      <trkpt lat="62.63618017738" lon="17.981391422903">
        <ele>76.2</ele>
        <time>2018-03-03T17:40:56Z</time>
      </trkpt>
      <trkpt lat="62.636183949235" lon="17.981488569124">
        <ele>76</ele>
        <time>2018-03-03T17:40:57Z</time>
      </trkpt>
      <trkpt lat="62.636169783824" lon="17.981582865499">
        <ele>75.8</ele>
        <time>2018-03-03T17:40:58Z</time>
      </trkpt>
      <trkpt lat="62.636174393869" lon="17.98168755543">
        <ele>75.8</ele>
        <time>2018-03-03T17:40:59Z</time>
      </trkpt>
      <trkpt lat="62.636191492945" lon="17.981771290611">
        <ele>76</ele>
        <time>2018-03-03T17:41:00Z</time>
      </trkpt>
      <trkpt lat="62.636210436039" lon="17.981867179547">
        <ele>76</ele>
        <time>2018-03-03T17:41:01Z</time>
      </trkpt>
      <trkpt lat="62.636221332509" lon="17.981971031288">
        <ele>76.2</ele>
        <time>2018-03-03T17:41:02Z</time>
      </trkpt>
      <trkpt lat="62.636234240635" lon="17.982039008497">
        <ele>76.4</ele>
        <time>2018-03-03T17:41:03Z</time>
      </trkpt>
      <trkpt lat="62.636251339711" lon="17.982124755334">
        <ele>76.4</ele>
        <time>2018-03-03T17:41:04Z</time>
      </trkpt>
      <trkpt lat="62.636255279204" lon="17.982203461375">
        <ele>76.6</ele>
        <time>2018-03-03T17:41:05Z</time>
      </trkpt>
      <trkpt lat="62.636265086027" lon="17.982278898475">
        <ele>76.6</ele>
        <time>2018-03-03T17:41:06Z</time>
      </trkpt>
      <trkpt lat="62.63627405466" lon="17.982331452988">
        <ele>76.6</ele>
        <time>2018-03-03T17:41:07Z</time>
      </trkpt>
      <trkpt lat="62.636274473755" lon="17.982415355807">
        <ele>76.6</ele>
        <time>2018-03-03T17:41:08Z</time>
      </trkpt>
      <trkpt lat="62.636271959185" lon="17.982499007169">
        <ele>76.6</ele>
        <time>2018-03-03T17:41:09Z</time>
      </trkpt>
      <trkpt lat="62.636275647221" lon="17.982570923871">
        <ele>76.6</ele>
        <time>2018-03-03T17:41:10Z</time>
      </trkpt>
      <trkpt lat="62.636274725212" lon="17.982649126998">
        <ele>76.8</ele>
        <time>2018-03-03T17:41:11Z</time>
      </trkpt>
      <trkpt lat="62.636270198986" lon="17.982730850523">
        <ele>76.8</ele>
        <time>2018-03-03T17:41:12Z</time>
      </trkpt>
      <trkpt lat="62.636274222298" lon="17.982778794991">
        <ele>76.8</ele>
        <time>2018-03-03T17:41:13Z</time>
      </trkpt>
      <trkpt lat="62.636273719384" lon="17.982847526571">
        <ele>77</ele>
        <time>2018-03-03T17:41:14Z</time>
      </trkpt>
      <trkpt lat="62.636272965013" lon="17.982923550404">
        <ele>77</ele>
        <time>2018-03-03T17:41:15Z</time>
      </trkpt>
      <trkpt lat="62.636285705501" lon="17.983007956137">
        <ele>77</ele>
        <time>2018-03-03T17:41:16Z</time>
      </trkpt>
      <trkpt lat="62.636287046605" lon="17.983067299989">
        <ele>77</ele>
        <time>2018-03-03T17:41:17Z</time>
      </trkpt>
      <trkpt lat="62.636282939474" lon="17.983152460093">
        <ele>77</ele>
        <time>2018-03-03T17:41:18Z</time>
      </trkpt>
      <trkpt lat="62.636288722985" lon="17.983238793663">
        <ele>77.2</ele>
        <time>2018-03-03T17:41:19Z</time>
      </trkpt>
      <trkpt lat="62.636293835944" lon="17.983284475018">
        <ele>77.2</ele>
        <time>2018-03-03T17:41:20Z</time>
      </trkpt>
      <trkpt lat="62.636290483184" lon="17.983349099467">
        <ele>77.2</ele>
        <time>2018-03-03T17:41:21Z</time>
      </trkpt>
      <trkpt lat="62.636281849827" lon="17.98341925597">
        <ele>77.2</ele>
        <time>2018-03-03T17:41:22Z</time>
      </trkpt>
      <trkpt lat="62.636269528434" lon="17.983467284257">
        <ele>77.4</ele>
        <time>2018-03-03T17:41:23Z</time>
      </trkpt>
      <trkpt lat="62.636264750751" lon="17.983523526806">
        <ele>77.4</ele>
        <time>2018-03-03T17:41:24Z</time>
      </trkpt>
      <trkpt lat="62.636260308344" lon="17.983592258386">
        <ele>77.4</ele>
        <time>2018-03-03T17:41:25Z</time>
      </trkpt>
      <trkpt lat="62.63625142353" lon="17.983662498708">
        <ele>77.6</ele>
        <time>2018-03-03T17:41:26Z</time>
      </trkpt>
      <trkpt lat="62.636236922843" lon="17.983714801764">
        <ele>77.6</ele>
        <time>2018-03-03T17:41:27Z</time>
      </trkpt>
      <trkpt lat="62.636225858735" lon="17.983786802285">
        <ele>77.6</ele>
        <time>2018-03-03T17:41:28Z</time>
      </trkpt>
      <trkpt lat="62.636208592021" lon="17.98384840925">
        <ele>77.8</ele>
        <time>2018-03-03T17:41:29Z</time>
      </trkpt>
      <trkpt lat="62.63619777937" lon="17.983907166369">
        <ele>78</ele>
        <time>2018-03-03T17:41:30Z</time>
      </trkpt>
      <trkpt lat="62.636192247316" lon="17.983982687288">
        <ele>78.2</ele>
        <time>2018-03-03T17:41:31Z</time>
      </trkpt>
      <trkpt lat="62.636194175153" lon="17.984045467719">
        <ele>78.2</ele>
        <time>2018-03-03T17:41:32Z</time>
      </trkpt>
      <trkpt lat="62.636203898157" lon="17.984100285345">
        <ele>78.4</ele>
        <time>2018-03-03T17:41:33Z</time>
      </trkpt>
      <trkpt lat="62.636202640872" lon="17.984171196219">
        <ele>78.6</ele>
        <time>2018-03-03T17:41:34Z</time>
      </trkpt>
      <trkpt lat="62.636200377759" lon="17.984229031329">
        <ele>78.6</ele>
        <time>2018-03-03T17:41:35Z</time>
      </trkpt>
      <trkpt lat="62.636208424383" lon="17.984285441516">
        <ele>78.8</ele>
        <time>2018-03-03T17:41:36Z</time>
      </trkpt>
      <trkpt lat="62.636200377759" lon="17.984355011286">
        <ele>78.8</ele>
        <time>2018-03-03T17:41:37Z</time>
      </trkpt>
      <trkpt lat="62.636205993632" lon="17.984412175844">
        <ele>79</ele>
        <time>2018-03-03T17:41:38Z</time>
      </trkpt>
      <trkpt lat="62.636212196238" lon="17.98446196433">
        <ele>79</ele>
        <time>2018-03-03T17:41:39Z</time>
      </trkpt>
      <trkpt lat="62.636203981976" lon="17.984524409485">
        <ele>79.4</ele>
        <time>2018-03-03T17:41:40Z</time>
      </trkpt>
      <trkpt lat="62.636200126302" lon="17.984595823273">
        <ele>79.4</ele>
        <time>2018-03-03T17:41:41Z</time>
      </trkpt>
      <trkpt lat="62.636203814338" lon="17.984653406926">
        <ele>79.4</ele>
        <time>2018-03-03T17:41:42Z</time>
      </trkpt>
      <trkpt lat="62.636197192637" lon="17.98471509771">
        <ele>79.4</ele>
        <time>2018-03-03T17:41:43Z</time>
      </trkpt>
      <trkpt lat="62.636201551225" lon="17.984789026068">
        <ele>79.8</ele>
        <time>2018-03-03T17:41:44Z</time>
      </trkpt>
      <trkpt lat="62.636206496546" lon="17.984835294156">
        <ele>79.8</ele>
        <time>2018-03-03T17:41:45Z</time>
      </trkpt>
      <trkpt lat="62.636200713035" lon="17.984894805646">
        <ele>79.8</ele>
        <time>2018-03-03T17:41:46Z</time>
      </trkpt>
      <trkpt lat="62.636195013343" lon="17.984953227489">
        <ele>80</ele>
        <time>2018-03-03T17:41:47Z</time>
      </trkpt>
      <trkpt lat="62.636204987804" lon="17.985006201097">
        <ele>80.2</ele>
        <time>2018-03-03T17:41:48Z</time>
      </trkpt>
      <trkpt lat="62.636199623388" lon="17.985059342343">
        <ele>80.2</ele>
        <time>2018-03-03T17:41:49Z</time>
      </trkpt>
      <trkpt lat="62.636195935352" lon="17.985118350919">
        <ele>80.4</ele>
        <time>2018-03-03T17:41:50Z</time>
      </trkpt>
      <trkpt lat="62.636187469633" lon="17.9851685585">
        <ele>80.2</ele>
        <time>2018-03-03T17:41:51Z</time>
      </trkpt>
      <trkpt lat="62.636187385814" lon="17.985216502968">
        <ele>80.4</ele>
        <time>2018-03-03T17:41:52Z</time>
      </trkpt>
      <trkpt lat="62.636181937579" lon="17.985279786313">
        <ele>80.4</ele>
        <time>2018-03-03T17:41:53Z</time>
      </trkpt>
      <trkpt lat="62.636182943407" lon="17.98535212211">
        <ele>80.4</ele>
        <time>2018-03-03T17:41:54Z</time>
      </trkpt>
      <trkpt lat="62.63618269195" lon="17.985401323863">
        <ele>80.6</ele>
        <time>2018-03-03T17:41:55Z</time>
      </trkpt>
      <trkpt lat="62.636167855987" lon="17.985475587497">
        <ele>80.6</ele>
        <time>2018-03-03T17:41:56Z</time>
      </trkpt>
      <trkpt lat="62.636162826847" lon="17.985533925521">
        <ele>80.8</ele>
        <time>2018-03-03T17:41:57Z</time>
      </trkpt>
      <trkpt lat="62.636151511282" lon="17.985592515002">
        <ele>80.8</ele>
        <time>2018-03-03T17:41:58Z</time>
      </trkpt>
      <trkpt lat="62.636140279536" lon="17.985654373424">
        <ele>80.8</ele>
        <time>2018-03-03T17:41:59Z</time>
      </trkpt>
      <trkpt lat="62.636120414433" lon="17.985716567122">
        <ele>81</ele>
        <time>2018-03-03T17:42:00Z</time>
      </trkpt>
      <trkpt lat="62.636096609837" lon="17.98576618797">
        <ele>81.2</ele>
        <time>2018-03-03T17:42:01Z</time>
      </trkpt>
      <trkpt lat="62.636074146345" lon="17.985818407207">
        <ele>81.4</ele>
        <time>2018-03-03T17:42:02Z</time>
      </trkpt>
      <trkpt lat="62.636046737532" lon="17.985850258427">
        <ele>81.6</ele>
        <time>2018-03-03T17:42:03Z</time>
      </trkpt>
      <trkpt lat="62.636011617371" lon="17.98588437276">
        <ele>81.8</ele>
        <time>2018-03-03T17:42:04Z</time>
      </trkpt>
      <trkpt lat="62.63598487911" lon="17.985903399673">
        <ele>82</ele>
        <time>2018-03-03T17:42:05Z</time>
      </trkpt>
      <trkpt lat="62.635956632107" lon="17.985927288088">
        <ele>81.8</ele>
        <time>2018-03-03T17:42:06Z</time>
      </trkpt>
      <trkpt lat="62.635928301285" lon="17.985942962241">
        <ele>82</ele>
        <time>2018-03-03T17:42:07Z</time>
      </trkpt>
      <trkpt lat="62.635908268544" lon="17.985962911163">
        <ele>82</ele>
        <time>2018-03-03T17:42:08Z</time>
      </trkpt>
      <trkpt lat="62.635883374301" lon="17.98598244099">
        <ele>82.2</ele>
        <time>2018-03-03T17:42:09Z</time>
      </trkpt>
      <trkpt lat="62.635865185578" lon="17.985999707704">
        <ele>82.2</ele>
        <time>2018-03-03T17:42:10Z</time>
      </trkpt>
      <trkpt lat="62.635840458973" lon="17.986022255015">
        <ele>82.4</ele>
        <time>2018-03-03T17:42:11Z</time>
      </trkpt>
      <trkpt lat="62.6358180793" lon="17.986054776787">
        <ele>82.4</ele>
        <time>2018-03-03T17:42:12Z</time>
      </trkpt>
      <trkpt lat="62.635792430686" lon="17.986087130921">
        <ele>82.6</ele>
        <time>2018-03-03T17:42:13Z</time>
      </trkpt>
      <trkpt lat="62.635772733221" lon="17.986124765652">
        <ele>82.8</ele>
        <time>2018-03-03T17:42:14Z</time>
      </trkpt>
      <trkpt lat="62.635756807611" lon="17.986162065107">
        <ele>82.8</ele>
        <time>2018-03-03T17:42:15Z</time>
      </trkpt>
      <trkpt lat="62.635734511757" lon="17.986204309883">
        <ele>82.8</ele>
        <time>2018-03-03T17:42:16Z</time>
      </trkpt>
      <trkpt lat="62.635721938907" lon="17.986239094768">
        <ele>83</ele>
        <time>2018-03-03T17:42:17Z</time>
      </trkpt>
      <trkpt lat="62.635702911994" lon="17.986278992612">
        <ele>83.2</ele>
        <time>2018-03-03T17:42:18Z</time>
      </trkpt>
      <trkpt lat="62.635685729099" lon="17.986319058094">
        <ele>83.2</ele>
        <time>2018-03-03T17:42:19Z</time>
      </trkpt>
      <trkpt lat="62.63566804329" lon="17.986361805784">
        <ele>83.2</ele>
        <time>2018-03-03T17:42:20Z</time>
      </trkpt>
      <trkpt lat="62.635648681101" lon="17.986411091356">
        <ele>83.6</ele>
        <time>2018-03-03T17:42:21Z</time>
      </trkpt>
      <trkpt lat="62.635630827654" lon="17.986450737743">
        <ele>83.4</ele>
        <time>2018-03-03T17:42:22Z</time>
      </trkpt>
      <trkpt lat="62.635616494605" lon="17.986490635587">
        <ele>83.6</ele>
        <time>2018-03-03T17:42:23Z</time>
      </trkpt>
      <trkpt lat="62.635598641158" lon="17.986543525376">
        <ele>83.6</ele>
        <time>2018-03-03T17:42:24Z</time>
      </trkpt>
      <trkpt lat="62.635582128815" lon="17.9865934815">
        <ele>83.6</ele>
        <time>2018-03-03T17:42:25Z</time>
      </trkpt>
      <trkpt lat="62.635561257884" lon="17.986638827579">
        <ele>83.8</ele>
        <time>2018-03-03T17:42:26Z</time>
      </trkpt>
      <trkpt lat="62.635550026138" lon="17.986690040988">
        <ele>83.8</ele>
        <time>2018-03-03T17:42:27Z</time>
      </trkpt>
      <trkpt lat="62.635530747768" lon="17.986716108697">
        <ele>84</ele>
        <time>2018-03-03T17:42:28Z</time>
      </trkpt>
      <trkpt lat="62.635516163262" lon="17.986758269654">
        <ele>84.2</ele>
        <time>2018-03-03T17:42:29Z</time>
      </trkpt>
      <trkpt lat="62.635498477453" lon="17.986803280457">
        <ele>84.2</ele>
        <time>2018-03-03T17:42:30Z</time>
      </trkpt>
      <trkpt lat="62.635485066413" lon="17.986850470554">
        <ele>84.4</ele>
        <time>2018-03-03T17:42:31Z</time>
      </trkpt>
      <trkpt lat="62.635459753075" lon="17.986895146081">
        <ele>84.4</ele>
        <time>2018-03-03T17:42:32Z</time>
      </trkpt>
      <trkpt lat="62.635451874089" lon="17.986951891544">
        <ele>84.6</ele>
        <time>2018-03-03T17:42:33Z</time>
      </trkpt>
      <trkpt lat="62.635432930995" lon="17.986993633406">
        <ele>84.6</ele>
        <time>2018-03-03T17:42:34Z</time>
      </trkpt>
      <trkpt lat="62.635415831919" lon="17.987036129639">
        <ele>84.8</ele>
        <time>2018-03-03T17:42:35Z</time>
      </trkpt>
      <trkpt lat="62.635405186906" lon="17.98709052817">
        <ele>84.6</ele>
        <time>2018-03-03T17:42:36Z</time>
      </trkpt>
      <trkpt lat="62.635383477785" lon="17.987133778774">
        <ele>84.8</ele>
        <time>2018-03-03T17:42:37Z</time>
      </trkpt>
      <trkpt lat="62.635361349569" lon="17.987173676618">
        <ele>84.8</ele>
        <time>2018-03-03T17:42:38Z</time>
      </trkpt>
      <trkpt lat="62.635339305172" lon="17.987219190335">
        <ele>85.2</ele>
        <time>2018-03-03T17:42:39Z</time>
      </trkpt>
      <trkpt lat="62.635322289915" lon="17.987254729591">
        <ele>85.4</ele>
        <time>2018-03-03T17:42:40Z</time>
      </trkpt>
      <trkpt lat="62.635301418984" lon="17.987293789245">
        <ele>85.8</ele>
        <time>2018-03-03T17:42:41Z</time>
      </trkpt>
      <trkpt lat="62.635284236089" lon="17.987337207487">
        <ele>85.8</ele>
        <time>2018-03-03T17:42:42Z</time>
      </trkpt>
      <trkpt lat="62.635266466461" lon="17.987366963232">
        <ele>86</ele>
        <time>2018-03-03T17:42:43Z</time>
      </trkpt>
      <trkpt lat="62.63523889001" lon="17.987412057854">
        <ele>86</ele>
        <time>2018-03-03T17:42:44Z</time>
      </trkpt>
      <trkpt lat="62.635223132038" lon="17.987446004549">
        <ele>86.2</ele>
        <time>2018-03-03T17:42:45Z</time>
      </trkpt>
      <trkpt lat="62.635204105125" lon="17.987487914049">
        <ele>86.2</ele>
        <time>2018-03-03T17:42:46Z</time>
      </trkpt>
      <trkpt lat="62.635185162031" lon="17.987523453305">
        <ele>86.4</ele>
        <time>2018-03-03T17:42:47Z</time>
      </trkpt>
      <trkpt lat="62.63516261472" lon="17.98755991457">
        <ele>86.4</ele>
        <time>2018-03-03T17:42:48Z</time>
      </trkpt>
      <trkpt lat="62.635148784585" lon="17.987601237337">
        <ele>86.4</ele>
        <time>2018-03-03T17:42:49Z</time>
      </trkpt>
      <trkpt lat="62.635126824007" lon="17.987637111869">
        <ele>86.4</ele>
        <time>2018-03-03T17:42:50Z</time>
      </trkpt>
      <trkpt lat="62.635116011356" lon="17.987670807107">
        <ele>86.6</ele>
        <time>2018-03-03T17:42:51Z</time>
      </trkpt>
      <trkpt lat="62.635093631683" lon="17.987703831793">
        <ele>86.6</ele>
        <time>2018-03-03T17:42:52Z</time>
      </trkpt>
      <trkpt lat="62.635071000553" lon="17.9877334199">
        <ele>86.6</ele>
        <time>2018-03-03T17:42:53Z</time>
      </trkpt>
      <trkpt lat="62.635052728011" lon="17.987776083771">
        <ele>86.8</ele>
        <time>2018-03-03T17:42:54Z</time>
      </trkpt>
      <trkpt lat="62.635024816284" lon="17.987811539208">
        <ele>87</ele>
        <time>2018-03-03T17:42:55Z</time>
      </trkpt>
      <trkpt lat="62.635000592593" lon="17.987855292726">
        <ele>87</ele>
        <time>2018-03-03T17:42:56Z</time>
      </trkpt>
      <trkpt lat="62.634976201264" lon="17.987884210281">
        <ele>87.2</ele>
        <time>2018-03-03T17:42:57Z</time>
      </trkpt>
      <trkpt lat="62.6349547436" lon="17.987917067329">
        <ele>87.4</ele>
        <time>2018-03-03T17:42:58Z</time>
      </trkpt>
      <trkpt lat="62.634934459402" lon="17.987958138639">
        <ele>87.6</ele>
        <time>2018-03-03T17:42:59Z</time>
      </trkpt>
      <trkpt lat="62.634905709485" lon="17.987994264628">
        <ele>87.8</ele>
        <time>2018-03-03T17:43:00Z</time>
      </trkpt>
      <trkpt lat="62.634876540473" lon="17.988023601278">
        <ele>88</ele>
        <time>2018-03-03T17:43:01Z</time>
      </trkpt>
      <trkpt lat="62.634856507732" lon="17.988053273204">
        <ele>88.2</ele>
        <time>2018-03-03T17:43:02Z</time>
      </trkpt>
      <trkpt lat="62.634829769471" lon="17.988072467755">
        <ele>88.2</ele>
        <time>2018-03-03T17:43:03Z</time>
      </trkpt>
      <trkpt lat="62.634815268784" lon="17.988108007011">
        <ele>88.4</ele>
        <time>2018-03-03T17:43:04Z</time>
      </trkpt>
      <trkpt lat="62.634782244098" lon="17.988120244585">
        <ele>88.4</ele>
        <time>2018-03-03T17:43:05Z</time>
      </trkpt>
      <trkpt lat="62.634754332371" lon="17.988146144656">
        <ele>88.6</ele>
        <time>2018-03-03T17:43:06Z</time>
      </trkpt>
      <trkpt lat="62.634725498635" lon="17.988150922339">
        <ele>88.8</ele>
        <time>2018-03-03T17:43:07Z</time>
      </trkpt>
      <trkpt lat="62.634698760374" lon="17.988156370574">
        <ele>88.8</ele>
        <time>2018-03-03T17:43:08Z</time>
      </trkpt>
      <trkpt lat="62.634671351561" lon="17.988169697795">
        <ele>89.2</ele>
        <time>2018-03-03T17:43:09Z</time>
      </trkpt>
      <trkpt lat="62.634642182549" lon="17.988181683912">
        <ele>89.2</ele>
        <time>2018-03-03T17:43:10Z</time>
      </trkpt>
      <trkpt lat="62.634621311618" lon="17.98819777716">
        <ele>89.4</ele>
        <time>2018-03-03T17:43:11Z</time>
      </trkpt>
      <trkpt lat="62.634580156489" lon="17.988213618951">
        <ele>89.4</ele>
        <time>2018-03-03T17:43:12Z</time>
      </trkpt>
      <trkpt lat="62.634547550898" lon="17.988238932289">
        <ele>89.6</ele>
        <time>2018-03-03T17:43:13Z</time>
      </trkpt>
      <trkpt lat="62.634511257271" lon="17.988242285049">
        <ele>89.8</ele>
        <time>2018-03-03T17:43:14Z</time>
      </trkpt>
      <trkpt lat="62.634478819318" lon="17.988260725229">
        <ele>89.8</ele>
        <time>2018-03-03T17:43:15Z</time>
      </trkpt>
      <trkpt lat="62.634452751609" lon="17.988264497084">
        <ele>89.8</ele>
        <time>2018-03-03T17:43:16Z</time>
      </trkpt>
      <trkpt lat="62.634422744407" lon="17.988254354985">
        <ele>89.8</ele>
        <time>2018-03-03T17:43:17Z</time>
      </trkpt>
      <trkpt lat="62.634395000318" lon="17.988276399382">
        <ele>90</ele>
        <time>2018-03-03T17:43:18Z</time>
      </trkpt>
      <trkpt lat="62.634362730003" lon="17.988272459889">
        <ele>90</ele>
        <time>2018-03-03T17:43:19Z</time>
      </trkpt>
      <trkpt lat="62.634333560991" lon="17.988281931436">
        <ele>90.2</ele>
        <time>2018-03-03T17:43:20Z</time>
      </trkpt>
      <trkpt lat="62.634302547961" lon="17.988280338875">
        <ele>90</ele>
        <time>2018-03-03T17:43:21Z</time>
      </trkpt>
      <trkpt lat="62.634271534931" lon="17.988280590332">
        <ele>90.2</ele>
        <time>2018-03-03T17:43:22Z</time>
      </trkpt>
      <trkpt lat="62.63424563486" lon="17.98827572883">
        <ele>90.4</ele>
        <time>2018-03-03T17:43:23Z</time>
      </trkpt>
      <trkpt lat="62.634204982645" lon="17.988266005826">
        <ele>90.4</ele>
        <time>2018-03-03T17:43:24Z</time>
      </trkpt>
      <trkpt lat="62.634177825289" lon="17.988271034966">
        <ele>90.6</ele>
        <time>2018-03-03T17:43:25Z</time>
      </trkpt>
      <trkpt lat="62.63413667016" lon="17.988235411891">
        <ele>90.6</ele>
        <time>2018-03-03T17:43:26Z</time>
      </trkpt>
      <trkpt lat="62.634101047085" lon="17.988228371095">
        <ele>90.6</ele>
        <time>2018-03-03T17:43:27Z</time>
      </trkpt>
      <trkpt lat="62.634067687123" lon="17.98820029173">
        <ele>90.6</ele>
        <time>2018-03-03T17:43:28Z</time>
      </trkpt>
      <trkpt lat="62.63402938184" lon="17.988182522102">
        <ele>90.6</ele>
        <time>2018-03-03T17:43:29Z</time>
      </trkpt>
      <trkpt lat="62.633998117353" lon="17.988172044727">
        <ele>90.8</ele>
        <time>2018-03-03T17:43:30Z</time>
      </trkpt>
      <trkpt lat="62.633967271961" lon="17.988148575407">
        <ele>90.8</ele>
        <time>2018-03-03T17:43:31Z</time>
      </trkpt>
      <trkpt lat="62.633935085465" lon="17.988143797724">
        <ele>91</ele>
        <time>2018-03-03T17:43:32Z</time>
      </trkpt>
      <trkpt lat="62.633909185394" lon="17.988114880169">
        <ele>91</ele>
        <time>2018-03-03T17:43:33Z</time>
      </trkpt>
      <trkpt lat="62.633875071061" lon="17.988089566831">
        <ele>91.2</ele>
        <time>2018-03-03T17:43:34Z</time>
      </trkpt>
      <trkpt lat="62.633857133795" lon="17.98807791599">
        <ele>91.2</ele>
        <time>2018-03-03T17:43:35Z</time>
      </trkpt>
      <trkpt lat="62.633826120765" lon="17.98803768287">
        <ele>91.2</ele>
        <time>2018-03-03T17:43:36Z</time>
      </trkpt>
      <trkpt lat="62.63379720321" lon="17.988012453351">
        <ele>91.4</ele>
        <time>2018-03-03T17:43:37Z</time>
      </trkpt>
      <trkpt lat="62.633771722234" lon="17.987986720918">
        <ele>91.4</ele>
        <time>2018-03-03T17:43:38Z</time>
      </trkpt>
      <trkpt lat="62.63373852991" lon="17.987946823074">
        <ele>91.6</ele>
        <time>2018-03-03T17:43:39Z</time>
      </trkpt>
      <trkpt lat="62.633706343414" lon="17.987933495853">
        <ele>91.6</ele>
        <time>2018-03-03T17:43:40Z</time>
      </trkpt>
      <trkpt lat="62.633676168574" lon="17.987890412887">
        <ele>91.8</ele>
        <time>2018-03-03T17:43:41Z</time>
      </trkpt>
      <trkpt lat="62.633638366205" lon="17.987858813124">
        <ele>91.8</ele>
        <time>2018-03-03T17:43:42Z</time>
      </trkpt>
      <trkpt lat="62.63362118331" lon="17.987824279696">
        <ele>92</ele>
        <time>2018-03-03T17:43:43Z</time>
      </trkpt>
      <trkpt lat="62.633597294895" lon="17.987790584458">
        <ele>92</ele>
        <time>2018-03-03T17:43:44Z</time>
      </trkpt>
      <trkpt lat="62.633578519439" lon="17.987778263065">
        <ele>92.2</ele>
        <time>2018-03-03T17:43:45Z</time>
      </trkpt>
      <trkpt lat="62.633553709015" lon="17.987746411845">
        <ele>92.4</ele>
        <time>2018-03-03T17:43:46Z</time>
      </trkpt>
      <trkpt lat="62.633531161704" lon="17.987720679412">
        <ele>92.6</ele>
        <time>2018-03-03T17:43:47Z</time>
      </trkpt>
      <trkpt lat="62.633507943841" lon="17.987693941151">
        <ele>92.8</ele>
        <time>2018-03-03T17:43:48Z</time>
      </trkpt>
      <trkpt lat="62.633484390702" lon="17.987654043307">
        <ele>93.2</ele>
        <time>2018-03-03T17:43:49Z</time>
      </trkpt>
      <trkpt lat="62.633458071536" lon="17.987614313101">
        <ele>93.2</ele>
        <time>2018-03-03T17:43:50Z</time>
      </trkpt>
      <trkpt lat="62.633437032967" lon="17.987579779673">
        <ele>93.4</ele>
        <time>2018-03-03T17:43:51Z</time>
      </trkpt>
      <trkpt lat="62.633413647466" lon="17.98753979801">
        <ele>93.6</ele>
        <time>2018-03-03T17:43:52Z</time>
      </trkpt>
      <trkpt lat="62.633399565874" lon="17.987502833831">
        <ele>93.6</ele>
        <time>2018-03-03T17:43:53Z</time>
      </trkpt>
      <trkpt lat="62.633383807902" lon="17.98746771367">
        <ele>93.8</ele>
        <time>2018-03-03T17:43:54Z</time>
      </trkpt>
      <trkpt lat="62.63336804993" lon="17.987424379247">
        <ele>93.8</ele>
        <time>2018-03-03T17:43:55Z</time>
      </trkpt>
      <trkpt lat="62.633349190655" lon="17.98738221829">
        <ele>94</ele>
        <time>2018-03-03T17:43:56Z</time>
      </trkpt>
      <trkpt lat="62.633328990276" lon="17.987344248283">
        <ele>94</ele>
        <time>2018-03-03T17:43:57Z</time>
      </trkpt>
      <trkpt lat="62.633304012214" lon="17.987283730965">
        <ele>94.2</ele>
        <time>2018-03-03T17:43:58Z</time>
      </trkpt>
      <trkpt lat="62.633287164595" lon="17.987209718788">
        <ele>94.4</ele>
        <time>2018-03-03T17:43:59Z</time>
      </trkpt>
      <trkpt lat="62.633257660307" lon="17.987097401328">
        <ele>94.4</ele>
        <time>2018-03-03T17:44:00Z</time>
      </trkpt>
      <trkpt lat="62.633234190987" lon="17.986981982565">
        <ele>94.4</ele>
        <time>2018-03-03T17:44:01Z</time>
      </trkpt>
      <trkpt lat="62.633211643676" lon="17.986880226299">
        <ele>94.4</ele>
        <time>2018-03-03T17:44:02Z</time>
      </trkpt>
      <trkpt lat="62.633196807713" lon="17.986776374558">
        <ele>94</ele>
        <time>2018-03-03T17:44:03Z</time>
      </trkpt>
      <trkpt lat="62.633183731949" lon="17.986660369062">
        <ele>93.2</ele>
        <time>2018-03-03T17:44:04Z</time>
      </trkpt>
      <trkpt lat="62.63317442804" lon="17.986564396307">
        <ele>92.4</ele>
        <time>2018-03-03T17:44:05Z</time>
      </trkpt>
      <trkpt lat="62.633169482719" lon="17.986463310593">
        <ele>91.6</ele>
        <time>2018-03-03T17:44:06Z</time>
      </trkpt>
      <trkpt lat="62.633180798284" lon="17.986371025874">
        <ele>90.8</ele>
        <time>2018-03-03T17:44:07Z</time>
      </trkpt>
      <trkpt lat="62.6331777808" lon="17.986264659563">
        <ele>90.8</ele>
        <time>2018-03-03T17:44:08Z</time>
      </trkpt>
      <trkpt lat="62.633177445524" lon="17.986142702918">
        <ele>90.6</ele>
        <time>2018-03-03T17:44:09Z</time>
      </trkpt>
      <trkpt lat="62.6331777808" lon="17.986029044354">
        <ele>90.4</ele>
        <time>2018-03-03T17:44:10Z</time>
      </trkpt>
      <trkpt lat="62.633179205723" lon="17.985925108794">
        <ele>90.2</ele>
        <time>2018-03-03T17:44:11Z</time>
      </trkpt>
      <trkpt lat="62.633180379189" lon="17.985808600384">
        <ele>89.8</ele>
        <time>2018-03-03T17:44:12Z</time>
      </trkpt>
      <trkpt lat="62.633183229035" lon="17.98569913277">
        <ele>89.2</ele>
        <time>2018-03-03T17:44:13Z</time>
      </trkpt>
      <trkpt lat="62.633186665614" lon="17.985597627961">
        <ele>88.8</ele>
        <time>2018-03-03T17:44:14Z</time>
      </trkpt>
      <trkpt lat="62.633186665614" lon="17.985475838954">
        <ele>88.8</ele>
        <time>2018-03-03T17:44:15Z</time>
      </trkpt>
      <trkpt lat="62.633180379189" lon="17.985358240897">
        <ele>88.8</ele>
        <time>2018-03-03T17:44:16Z</time>
      </trkpt>
      <trkpt lat="62.633182558483" lon="17.985251204034">
        <ele>89</ele>
        <time>2018-03-03T17:44:17Z</time>
      </trkpt>
      <trkpt lat="62.633198400274" lon="17.985108292639">
        <ele>89</ele>
        <time>2018-03-03T17:44:18Z</time>
      </trkpt>
      <trkpt lat="62.63321801392" lon="17.984951132014">
        <ele>89</ele>
        <time>2018-03-03T17:44:19Z</time>
      </trkpt>
      <trkpt lat="62.633240393593" lon="17.984820793469">
        <ele>89</ele>
        <time>2018-03-03T17:44:20Z</time>
      </trkpt>
      <trkpt lat="62.633263862913" lon="17.984692131304">
        <ele>88.6</ele>
        <time>2018-03-03T17:44:21Z</time>
      </trkpt>
      <trkpt lat="62.633289762984" lon="17.98457847274">
        <ele>88</ele>
        <time>2018-03-03T17:44:22Z</time>
      </trkpt>
      <trkpt lat="62.633300910911" lon="17.984541173285">
        <ele>87.8</ele>
        <time>2018-03-03T17:44:23Z</time>
      </trkpt>
      <trkpt lat="62.633349106836" lon="17.984387784515">
        <ele>87.2</ele>
        <time>2018-03-03T17:44:24Z</time>
      </trkpt>
      <trkpt lat="62.633369391034" lon="17.984275550874">
        <ele>86.4</ele>
        <time>2018-03-03T17:44:25Z</time>
      </trkpt>
      <trkpt lat="62.633380455142" lon="17.984169352201">
        <ele>85.8</ele>
        <time>2018-03-03T17:44:26Z</time>
      </trkpt>
      <trkpt lat="62.633389507594" lon="17.984073547084">
        <ele>85.4</ele>
        <time>2018-03-03T17:44:27Z</time>
      </trkpt>
      <trkpt lat="62.633393363268" lon="17.983986878238">
        <ele>85.8</ele>
        <time>2018-03-03T17:44:28Z</time>
      </trkpt>
      <trkpt lat="62.633389675232" lon="17.983905825265">
        <ele>86</ele>
        <time>2018-03-03T17:44:29Z</time>
      </trkpt>
      <trkpt lat="62.633391351612" lon="17.98382326355">
        <ele>86.4</ele>
        <time>2018-03-03T17:44:30Z</time>
      </trkpt>
      <trkpt lat="62.633396967485" lon="17.98374531188">
        <ele>86.6</ele>
        <time>2018-03-03T17:44:31Z</time>
      </trkpt>
      <trkpt lat="62.63339487201" lon="17.983666270563">
        <ele>86.6</ele>
        <time>2018-03-03T17:44:32Z</time>
      </trkpt>
      <trkpt lat="62.633403337729" lon="17.983591587834">
        <ele>86.6</ele>
        <time>2018-03-03T17:44:33Z</time>
      </trkpt>
      <trkpt lat="62.633412222543" lon="17.983516988924">
        <ele>86.8</ele>
        <time>2018-03-03T17:44:34Z</time>
      </trkpt>
      <trkpt lat="62.633424795393" lon="17.983443228204">
        <ele>86.8</ele>
        <time>2018-03-03T17:44:35Z</time>
      </trkpt>
      <trkpt lat="62.633437787338" lon="17.983365444172">
        <ele>86.6</ele>
        <time>2018-03-03T17:44:36Z</time>
      </trkpt>
      <trkpt lat="62.633451617473" lon="17.983289085063">
        <ele>87</ele>
        <time>2018-03-03T17:44:37Z</time>
      </trkpt>
      <trkpt lat="62.633464777056" lon="17.983205768977">
        <ele>87</ele>
        <time>2018-03-03T17:44:38Z</time>
      </trkpt>
      <trkpt lat="62.633477769001" lon="17.983123291081">
        <ele>87</ele>
        <time>2018-03-03T17:44:39Z</time>
      </trkpt>
      <trkpt lat="62.633494113706" lon="17.983049111266">
        <ele>87</ele>
        <time>2018-03-03T17:44:40Z</time>
      </trkpt>
      <trkpt lat="62.633510793687" lon="17.982973925623">
        <ele>87</ele>
        <time>2018-03-03T17:44:41Z</time>
      </trkpt>
      <trkpt lat="62.63352814422" lon="17.982888514062">
        <ele>87</ele>
        <time>2018-03-03T17:44:42Z</time>
      </trkpt>
      <trkpt lat="62.633536777577" lon="17.982809221288">
        <ele>86.8</ele>
        <time>2018-03-03T17:44:43Z</time>
      </trkpt>
      <trkpt lat="62.633547338771" lon="17.982712158886">
        <ele>86.8</ele>
        <time>2018-03-03T17:44:44Z</time>
      </trkpt>
      <trkpt lat="62.633561839458" lon="17.98263303375">
        <ele>87</ele>
        <time>2018-03-03T17:44:45Z</time>
      </trkpt>
      <trkpt lat="62.633577848887" lon="17.982560362677">
        <ele>86.8</ele>
        <time>2018-03-03T17:44:46Z</time>
      </trkpt>
      <trkpt lat="62.633585895511" lon="17.982487607785">
        <ele>86.8</ele>
        <time>2018-03-03T17:44:47Z</time>
      </trkpt>
      <trkpt lat="62.633595869972" lon="17.982406554812">
        <ele>86.8</ele>
        <time>2018-03-03T17:44:48Z</time>
      </trkpt>
      <trkpt lat="62.633599222732" lon="17.982327513495">
        <ele>86.8</ele>
        <time>2018-03-03T17:44:49Z</time>
      </trkpt>
      <trkpt lat="62.633601318207" lon="17.98224662816">
        <ele>86.8</ele>
        <time>2018-03-03T17:44:50Z</time>
      </trkpt>
      <trkpt lat="62.633617914369" lon="17.982159959314">
        <ele>86.6</ele>
        <time>2018-03-03T17:44:51Z</time>
      </trkpt>
      <trkpt lat="62.633626883002" lon="17.982081253273">
        <ele>86.8</ele>
        <time>2018-03-03T17:44:52Z</time>
      </trkpt>
      <trkpt lat="62.633626463907" lon="17.982009001295">
        <ele>86.8</ele>
        <time>2018-03-03T17:44:53Z</time>
      </trkpt>
      <trkpt lat="62.633618165826" lon="17.981944712122">
        <ele>86.8</ele>
        <time>2018-03-03T17:44:54Z</time>
      </trkpt>
      <trkpt lat="62.633625709536" lon="17.981868269194">
        <ele>86.8</ele>
        <time>2018-03-03T17:44:55Z</time>
      </trkpt>
      <trkpt lat="62.633634929626" lon="17.98178813823">
        <ele>86.8</ele>
        <time>2018-03-03T17:44:56Z</time>
      </trkpt>
      <trkpt lat="62.633649095037" lon="17.981715048062">
        <ele>86.8</ele>
        <time>2018-03-03T17:44:57Z</time>
      </trkpt>
      <trkpt lat="62.633653537444" lon="17.981646651758">
        <ele>86.8</ele>
        <time>2018-03-03T17:44:58Z</time>
      </trkpt>
      <trkpt lat="62.633658231308" lon="17.98157439978">
        <ele>87</ele>
        <time>2018-03-03T17:44:59Z</time>
      </trkpt>
      <trkpt lat="62.633667619036" lon="17.981488401486">
        <ele>87</ele>
        <time>2018-03-03T17:45:00Z</time>
      </trkpt>
      <trkpt lat="62.633681113895" lon="17.98141095273">
        <ele>87</ele>
        <time>2018-03-03T17:45:01Z</time>
      </trkpt>
      <trkpt lat="62.633690250166" lon="17.981351189783">
        <ele>87</ele>
        <time>2018-03-03T17:45:02Z</time>
      </trkpt>
      <trkpt lat="62.633709696174" lon="17.981280278909">
        <ele>87.2</ele>
        <time>2018-03-03T17:45:03Z</time>
      </trkpt>
      <trkpt lat="62.633730650924" lon="17.981196879004">
        <ele>87.2</ele>
        <time>2018-03-03T17:45:04Z</time>
      </trkpt>
      <trkpt lat="62.633756383357" lon="17.981138038066">
        <ele>87.2</ele>
        <time>2018-03-03T17:45:05Z</time>
      </trkpt>
      <trkpt lat="62.633784295084" lon="17.981058493835">
        <ele>87.4</ele>
        <time>2018-03-03T17:45:06Z</time>
      </trkpt>
      <trkpt lat="62.633799550142" lon="17.981008537711">
        <ele>87.6</ele>
        <time>2018-03-03T17:45:07Z</time>
      </trkpt>
      <trkpt lat="62.633826958955" lon="17.980963778365">
        <ele>87.6</ele>
        <time>2018-03-03T17:45:08Z</time>
      </trkpt>
      <trkpt lat="62.633850763551" lon="17.980894460052">
        <ele>87.8</ele>
        <time>2018-03-03T17:45:09Z</time>
      </trkpt>
      <trkpt lat="62.63387934583" lon="17.980849616887">
        <ele>87.8</ele>
        <time>2018-03-03T17:45:10Z</time>
      </trkpt>
      <trkpt lat="62.633896864001" lon="17.980787507008">
        <ele>88</ele>
        <time>2018-03-03T17:45:11Z</time>
      </trkpt>
      <trkpt lat="62.633927541755" lon="17.98072698969">
        <ele>88</ele>
        <time>2018-03-03T17:45:12Z</time>
      </trkpt>
      <trkpt lat="62.633951513989" lon="17.980664209259">
        <ele>88.2</ele>
        <time>2018-03-03T17:45:13Z</time>
      </trkpt>
      <trkpt lat="62.633979006621" lon="17.980601596466">
        <ele>88.4</ele>
        <time>2018-03-03T17:45:14Z</time>
      </trkpt>
      <trkpt lat="62.633991830928" lon="17.980537810207">
        <ele>88.6</ele>
        <time>2018-03-03T17:45:15Z</time>
      </trkpt>
      <trkpt lat="62.634020580845" lon="17.980477963441">
        <ele>88.6</ele>
        <time>2018-03-03T17:45:16Z</time>
      </trkpt>
      <trkpt lat="62.634035919722" lon="17.980413087535">
        <ele>88.6</ele>
        <time>2018-03-03T17:45:17Z</time>
      </trkpt>
      <trkpt lat="62.634060897784" lon="17.980361706488">
        <ele>88.8</ele>
        <time>2018-03-03T17:45:18Z</time>
      </trkpt>
      <trkpt lat="62.63408051143" lon="17.980298255505">
        <ele>88.8</ele>
        <time>2018-03-03T17:45:19Z</time>
      </trkpt>
      <trkpt lat="62.634107249691" lon="17.980243102603">
        <ele>88.8</ele>
        <time>2018-03-03T17:45:20Z</time>
      </trkpt>
      <trkpt lat="62.634139268549" lon="17.980178561973">
        <ele>88.8</ele>
        <time>2018-03-03T17:45:21Z</time>
      </trkpt>
      <trkpt lat="62.634163324602" lon="17.980133383532">
        <ele>88.8</ele>
        <time>2018-03-03T17:45:22Z</time>
      </trkpt>
      <trkpt lat="62.634196684564" lon="17.980084349417">
        <ele>88.8</ele>
        <time>2018-03-03T17:45:23Z</time>
      </trkpt>
      <trkpt lat="62.634224009558" lon="17.980013354724">
        <ele>88.8</ele>
        <time>2018-03-03T17:45:24Z</time>
      </trkpt>
      <trkpt lat="62.634252843294" lon="17.979962895686">
        <ele>89</ele>
        <time>2018-03-03T17:45:25Z</time>
      </trkpt>
      <trkpt lat="62.634268936542" lon="17.979898187418">
        <ele>89</ele>
        <time>2018-03-03T17:45:26Z</time>
      </trkpt>
      <trkpt lat="62.634300703943" lon="17.979837418643">
        <ele>89</ele>
        <time>2018-03-03T17:45:27Z</time>
      </trkpt>
      <trkpt lat="62.634320569046" lon="17.979768687063">
        <ele>89</ele>
        <time>2018-03-03T17:45:28Z</time>
      </trkpt>
      <trkpt lat="62.634336746113" lon="17.979705152261">
        <ele>89</ele>
        <time>2018-03-03T17:45:29Z</time>
      </trkpt>
      <trkpt lat="62.634353006999" lon="17.979622674365">
        <ele>89</ele>
        <time>2018-03-03T17:45:30Z</time>
      </trkpt>
      <trkpt lat="62.634361724175" lon="17.979548159274">
        <ele>89</ele>
        <time>2018-03-03T17:45:31Z</time>
      </trkpt>
      <trkpt lat="62.63437387793" lon="17.979483618644">
        <ele>88.6</ele>
        <time>2018-03-03T17:45:32Z</time>
      </trkpt>
      <trkpt lat="62.634393072481" lon="17.979400637834">
        <ele>88.6</ele>
        <time>2018-03-03T17:45:33Z</time>
      </trkpt>
      <trkpt lat="62.63439818544" lon="17.979324865458">
        <ele>88.6</ele>
        <time>2018-03-03T17:45:34Z</time>
      </trkpt>
      <trkpt lat="62.634414530145" lon="17.979259067543">
        <ele>88.6</ele>
        <time>2018-03-03T17:45:35Z</time>
      </trkpt>
      <trkpt lat="62.63442584571" lon="17.979175080905">
        <ele>88.6</ele>
        <time>2018-03-03T17:45:36Z</time>
      </trkpt>
      <trkpt lat="62.63444009494" lon="17.979113390121">
        <ele>88.6</ele>
        <time>2018-03-03T17:45:37Z</time>
      </trkpt>
      <trkpt lat="62.634455685274" lon="17.979044658541">
        <ele>88.8</ele>
        <time>2018-03-03T17:45:38Z</time>
      </trkpt>
      <trkpt lat="62.634467419934" lon="17.97896846707">
        <ele>88.8</ele>
        <time>2018-03-03T17:45:39Z</time>
      </trkpt>
      <trkpt lat="62.634490051064" lon="17.978848019167">
        <ele>88.6</ele>
        <time>2018-03-03T17:45:41Z</time>
      </trkpt>
      <trkpt lat="62.634500947534" lon="17.978781885976">
        <ele>88.6</ele>
        <time>2018-03-03T17:45:42Z</time>
      </trkpt>
      <trkpt lat="62.634505976674" lon="17.978727235988">
        <ele>88.4</ele>
        <time>2018-03-03T17:45:43Z</time>
      </trkpt>
      <trkpt lat="62.634527434338" lon="17.978673340371">
        <ele>88.6</ele>
        <time>2018-03-03T17:45:44Z</time>
      </trkpt>
      <trkpt lat="62.634537576437" lon="17.978628078111">
        <ele>88.6</ele>
        <time>2018-03-03T17:45:45Z</time>
      </trkpt>
      <trkpt lat="62.634548053812" lon="17.978575523598">
        <ele>88.6</ele>
        <time>2018-03-03T17:45:46Z</time>
      </trkpt>
      <trkpt lat="62.634555429884" lon="17.978527662949">
        <ele>88.6</ele>
        <time>2018-03-03T17:45:47Z</time>
      </trkpt>
      <trkpt lat="62.63456582344" lon="17.978466642717">
        <ele>88.8</ele>
        <time>2018-03-03T17:45:48Z</time>
      </trkpt>
      <trkpt lat="62.634576971367" lon="17.978400509526">
        <ele>88.8</ele>
        <time>2018-03-03T17:45:49Z</time>
      </trkpt>
      <trkpt lat="62.634582754878" lon="17.978337729095">
        <ele>88.6</ele>
        <time>2018-03-03T17:45:50Z</time>
      </trkpt>
      <trkpt lat="62.634595495366" lon="17.978266147669">
        <ele>88.6</ele>
        <time>2018-03-03T17:45:51Z</time>
      </trkpt>
      <trkpt lat="62.634602117067" lon="17.978172773303">
        <ele>88.6</ele>
        <time>2018-03-03T17:45:52Z</time>
      </trkpt>
      <trkpt lat="62.634607816759" lon="17.978112842718">
        <ele>88.4</ele>
        <time>2018-03-03T17:45:53Z</time>
      </trkpt>
      <trkpt lat="62.634620808704" lon="17.978014103936">
        <ele>88.2</ele>
        <time>2018-03-03T17:45:54Z</time>
      </trkpt>
      <trkpt lat="62.634628100957" lon="17.977951407324">
        <ele>88</ele>
        <time>2018-03-03T17:45:55Z</time>
      </trkpt>
      <trkpt lat="62.634639248884" lon="17.977874377663">
        <ele>87.8</ele>
        <time>2018-03-03T17:45:56Z</time>
      </trkpt>
      <trkpt lat="62.634649726259" lon="17.977793073233">
        <ele>87.4</ele>
        <time>2018-03-03T17:45:57Z</time>
      </trkpt>
      <trkpt lat="62.63465550977" lon="17.977738758521">
        <ele>87.4</ele>
        <time>2018-03-03T17:45:58Z</time>
      </trkpt>
      <trkpt lat="62.634669004629" lon="17.977659298109">
        <ele>87.2</ele>
        <time>2018-03-03T17:45:59Z</time>
      </trkpt>
      <trkpt lat="62.634682750945" lon="17.977570114693">
        <ele>87</ele>
        <time>2018-03-03T17:46:00Z</time>
      </trkpt>
      <trkpt lat="62.63469071375" lon="17.977503730045">
        <ele>87</ele>
        <time>2018-03-03T17:46:01Z</time>
      </trkpt>
      <trkpt lat="62.6347032866" lon="17.977432735352">
        <ele>87</ele>
        <time>2018-03-03T17:46:02Z</time>
      </trkpt>
      <trkpt lat="62.634716278545" lon="17.977360651012">
        <ele>86.8</ele>
        <time>2018-03-03T17:46:03Z</time>
      </trkpt>
      <trkpt lat="62.634729102852" lon="17.97730382173">
        <ele>86.8</ele>
        <time>2018-03-03T17:46:04Z</time>
      </trkpt>
      <trkpt lat="62.63474016696" lon="17.977250512846">
        <ele>86.8</ele>
        <time>2018-03-03T17:46:05Z</time>
      </trkpt>
      <trkpt lat="62.634754248552" lon="17.977194689392">
        <ele>86.8</ele>
        <time>2018-03-03T17:46:06Z</time>
      </trkpt>
      <trkpt lat="62.634760032063" lon="17.977147247838">
        <ele>86.8</ele>
        <time>2018-03-03T17:46:07Z</time>
      </trkpt>
      <trkpt lat="62.634774700388" lon="17.977089915642">
        <ele>86.8</ele>
        <time>2018-03-03T17:46:08Z</time>
      </trkpt>
      <trkpt lat="62.63478878198" lon="17.97701632256">
        <ele>86.8</ele>
        <time>2018-03-03T17:46:09Z</time>
      </trkpt>
      <trkpt lat="62.634800851916" lon="17.976955469966">
        <ele>86.8</ele>
        <time>2018-03-03T17:46:10Z</time>
      </trkpt>
      <trkpt lat="62.634812167481" lon="17.976883553264">
        <ele>87</ele>
        <time>2018-03-03T17:46:11Z</time>
      </trkpt>
      <trkpt lat="62.63482398596" lon="17.976808619078">
        <ele>86.8</ele>
        <time>2018-03-03T17:46:12Z</time>
      </trkpt>
      <trkpt lat="62.63483069148" lon="17.976763608275">
        <ele>86.8</ele>
        <time>2018-03-03T17:46:13Z</time>
      </trkpt>
      <trkpt lat="62.634843683425" lon="17.976673335212">
        <ele>86.8</ele>
        <time>2018-03-03T17:46:14Z</time>
      </trkpt>
      <trkpt lat="62.63485332261" lon="17.976604184537">
        <ele>86.6</ele>
        <time>2018-03-03T17:46:15Z</time>
      </trkpt>
      <trkpt lat="62.634857597379" lon="17.976541404106">
        <ele>86.6</ele>
        <time>2018-03-03T17:46:16Z</time>
      </trkpt>
      <trkpt lat="62.634871176057" lon="17.976470325594">
        <ele>86.6</ele>
        <time>2018-03-03T17:46:17Z</time>
      </trkpt>
      <trkpt lat="62.634883245993" lon="17.976394217942">
        <ele>86.4</ele>
        <time>2018-03-03T17:46:18Z</time>
      </trkpt>
      <trkpt lat="62.634897998137" lon="17.976325151086">
        <ele>86.4</ele>
        <time>2018-03-03T17:46:19Z</time>
      </trkpt>
      <trkpt lat="62.634924904036" lon="17.976261783922">
        <ele>86.2</ele>
        <time>2018-03-03T17:46:20Z</time>
      </trkpt>
      <trkpt lat="62.634941500198" lon="17.97617897075">
        <ele>86.2</ele>
        <time>2018-03-03T17:46:21Z</time>
      </trkpt>
      <trkpt lat="62.634961700577" lon="17.976099845614">
        <ele>86</ele>
        <time>2018-03-03T17:46:22Z</time>
      </trkpt>
      <trkpt lat="62.634973267599" lon="17.976037819554">
        <ele>86</ele>
        <time>2018-03-03T17:46:23Z</time>
      </trkpt>
      <trkpt lat="62.634980895128" lon="17.975949222871">
        <ele>85.8</ele>
        <time>2018-03-03T17:46:24Z</time>
      </trkpt>
      <trkpt lat="62.635005035" lon="17.97585542941">
        <ele>85.6</ele>
        <time>2018-03-03T17:46:25Z</time>
      </trkpt>
      <trkpt lat="62.635021631162" lon="17.975775130808">
        <ele>85.4</ele>
        <time>2018-03-03T17:46:26Z</time>
      </trkpt>
      <trkpt lat="62.635035880392" lon="17.975689635428">
        <ele>85</ele>
        <time>2018-03-03T17:46:27Z</time>
      </trkpt>
      <trkpt lat="62.635043088826" lon="17.975595925786">
        <ele>84.6</ele>
        <time>2018-03-03T17:46:28Z</time>
      </trkpt>
      <trkpt lat="62.635059852626" lon="17.975510011311">
        <ele>84.6</ele>
        <time>2018-03-03T17:46:29Z</time>
      </trkpt>
      <trkpt lat="62.635068988897" lon="17.975439351894">
        <ele>84.4</ele>
        <time>2018-03-03T17:46:30Z</time>
      </trkpt>
      <trkpt lat="62.635081142652" lon="17.975342960044">
        <ele>84.2</ele>
        <time>2018-03-03T17:46:31Z</time>
      </trkpt>
      <trkpt lat="62.635084998326" lon="17.975293506834">
        <ele>84.2</ele>
        <time>2018-03-03T17:46:32Z</time>
      </trkpt>
      <trkpt lat="62.635092458217" lon="17.975193510767">
        <ele>84.4</ele>
        <time>2018-03-03T17:46:33Z</time>
      </trkpt>
      <trkpt lat="62.63509136857" lon="17.975101645143">
        <ele>84.4</ele>
        <time>2018-03-03T17:46:34Z</time>
      </trkpt>
      <trkpt lat="62.635082399937" lon="17.975028471156">
        <ele>84.4</ele>
        <time>2018-03-03T17:46:35Z</time>
      </trkpt>
      <trkpt lat="62.635062199558" lon="17.974933923324">
        <ele>84.2</ele>
        <time>2018-03-03T17:46:36Z</time>
      </trkpt>
      <trkpt lat="62.635038478781" lon="17.974843231166">
        <ele>83.8</ele>
        <time>2018-03-03T17:46:37Z</time>
      </trkpt>
      <trkpt lat="62.635018026945" lon="17.974770895369">
        <ele>83.2</ele>
        <time>2018-03-03T17:46:38Z</time>
      </trkpt>
      <trkpt lat="62.634987349191" lon="17.974653129674">
        <ele>82.6</ele>
        <time>2018-03-03T17:46:39Z</time>
      </trkpt>
      <trkpt lat="62.634956252342" lon="17.974551121951">
        <ele>82.2</ele>
        <time>2018-03-03T17:46:40Z</time>
      </trkpt>
      <trkpt lat="62.634956671437" lon="17.974448527495">
        <ele>81.8</ele>
        <time>2018-03-03T17:46:41Z</time>
      </trkpt>
      <trkpt lat="62.634931609556" lon="17.974305783738">
        <ele>81.6</ele>
        <time>2018-03-03T17:46:42Z</time>
      </trkpt>
      <trkpt lat="62.634903949286" lon="17.974227412973">
        <ele>81.6</ele>
        <time>2018-03-03T17:46:43Z</time>
      </trkpt>
      <trkpt lat="62.634882072527" lon="17.974113251495">
        <ele>81.6</ele>
        <time>2018-03-03T17:46:44Z</time>
      </trkpt>
      <trkpt lat="62.634863883804" lon="17.974043430268">
        <ele>81.2</ele>
        <time>2018-03-03T17:46:45Z</time>
      </trkpt>
      <trkpt lat="62.634840665941" lon="17.973956258508">
        <ele>81.2</ele>
        <time>2018-03-03T17:46:46Z</time>
      </trkpt>
      <trkpt lat="62.634819208277" lon="17.97388149196">
        <ele>81.4</ele>
        <time>2018-03-03T17:46:47Z</time>
      </trkpt>
      <trkpt lat="62.634792302378" lon="17.973812425104">
        <ele>81.2</ele>
        <time>2018-03-03T17:46:48Z</time>
      </trkpt>
      <trkpt lat="62.634773359284" lon="17.973728606104">
        <ele>81.2</ele>
        <time>2018-03-03T17:46:49Z</time>
      </trkpt>
      <trkpt lat="62.634754332371" lon="17.973651241167">
        <ele>81.2</ele>
        <time>2018-03-03T17:46:50Z</time>
      </trkpt>
      <trkpt lat="62.634738993494" lon="17.973581839035">
        <ele>81</ele>
        <time>2018-03-03T17:46:51Z</time>
      </trkpt>
      <trkpt lat="62.634725498635" lon="17.973481340054">
        <ele>80.8</ele>
        <time>2018-03-03T17:46:52Z</time>
      </trkpt>
      <trkpt lat="62.634709740663" lon="17.973403556022">
        <ele>80.8</ele>
        <time>2018-03-03T17:46:53Z</time>
      </trkpt>
      <trkpt lat="62.634699514745" lon="17.973300961566">
        <ele>80.6</ele>
        <time>2018-03-03T17:46:54Z</time>
      </trkpt>
      <trkpt lat="62.634701945496" lon="17.973202893336">
        <ele>80.6</ele>
        <time>2018-03-03T17:46:55Z</time>
      </trkpt>
      <trkpt lat="62.634699766202" lon="17.973105663296">
        <ele>80.6</ele>
        <time>2018-03-03T17:46:56Z</time>
      </trkpt>
      <trkpt lat="62.63470496298" lon="17.973022682486">
        <ele>80.6</ele>
        <time>2018-03-03T17:46:57Z</time>
      </trkpt>
      <trkpt lat="62.634722648789" lon="17.972929559577">
        <ele>80.6</ele>
        <time>2018-03-03T17:46:58Z</time>
      </trkpt>
      <trkpt lat="62.634736646562" lon="17.972833335365">
        <ele>80.4</ele>
        <time>2018-03-03T17:46:59Z</time>
      </trkpt>
      <trkpt lat="62.634756344027" lon="17.972747001795">
        <ele>80.4</ele>
        <time>2018-03-03T17:47:00Z</time>
      </trkpt>
      <trkpt lat="62.634781070632" lon="17.972660081492">
        <ele>80.2</ele>
        <time>2018-03-03T17:47:01Z</time>
      </trkpt>
      <trkpt lat="62.634809569092" lon="17.972578609424">
        <ele>80</ele>
        <time>2018-03-03T17:47:02Z</time>
      </trkpt>
      <trkpt lat="62.634827673996" lon="17.972485989429">
        <ele>79.8</ele>
        <time>2018-03-03T17:47:03Z</time>
      </trkpt>
      <trkpt lat="62.634858854664" lon="17.972399320583">
        <ele>79.6</ele>
        <time>2018-03-03T17:47:04Z</time>
      </trkpt>
      <trkpt lat="62.634887939857" lon="17.972314747212">
        <ele>79.6</ele>
        <time>2018-03-03T17:47:05Z</time>
      </trkpt>
      <trkpt lat="62.634919120525" lon="17.972232688411">
        <ele>79.6</ele>
        <time>2018-03-03T17:47:06Z</time>
      </trkpt>
      <trkpt lat="62.63493881799" lon="17.972159346786">
        <ele>79.4</ele>
        <time>2018-03-03T17:47:07Z</time>
      </trkpt>
      <trkpt lat="62.634967400269" lon="17.972078461451">
        <ele>79.4</ele>
        <time>2018-03-03T17:47:08Z</time>
      </trkpt>
      <trkpt lat="62.634987852105" lon="17.971991960243">
        <ele>79.4</ele>
        <time>2018-03-03T17:47:09Z</time>
      </trkpt>
      <trkpt lat="62.635019200411" lon="17.971890958348">
        <ele>79.2</ele>
        <time>2018-03-03T17:47:10Z</time>
      </trkpt>
      <trkpt lat="62.635042334455" lon="17.971794985593">
        <ele>79</ele>
        <time>2018-03-03T17:47:11Z</time>
      </trkpt>
      <trkpt lat="62.635064630309" lon="17.971665904333">
        <ele>78.6</ele>
        <time>2018-03-03T17:47:12Z</time>
      </trkpt>
      <trkpt lat="62.635077203159" lon="17.971560208574">
        <ele>78</ele>
        <time>2018-03-03T17:47:13Z</time>
      </trkpt>
      <trkpt lat="62.635095140425" lon="17.971431211133">
        <ele>77</ele>
        <time>2018-03-03T17:47:14Z</time>
      </trkpt>
      <trkpt lat="62.635108719103" lon="17.971323000804">
        <ele>76.2</ele>
        <time>2018-03-03T17:47:15Z</time>
      </trkpt>
      <trkpt lat="62.635123638885" lon="17.971212359724">
        <ele>75.6</ele>
        <time>2018-03-03T17:47:16Z</time>
      </trkpt>
      <trkpt lat="62.635138391029" lon="17.971115884055">
        <ele>75</ele>
        <time>2018-03-03T17:47:17Z</time>
      </trkpt>
      <trkpt lat="62.635154651915" lon="17.970994597962">
        <ele>74.8</ele>
        <time>2018-03-03T17:47:18Z</time>
      </trkpt>
      <trkpt lat="62.635170242249" lon="17.970863337408">
        <ele>74.6</ele>
        <time>2018-03-03T17:47:19Z</time>
      </trkpt>
      <trkpt lat="62.635183485651" lon="17.970746745179">
        <ele>74.4</ele>
        <time>2018-03-03T17:47:20Z</time>
      </trkpt>
      <trkpt lat="62.63519698051" lon="17.970634260081">
        <ele>74</ele>
        <time>2018-03-03T17:47:21Z</time>
      </trkpt>
      <trkpt lat="62.635214163405" lon="17.970521439707">
        <ele>73.6</ele>
        <time>2018-03-03T17:47:22Z</time>
      </trkpt>
      <trkpt lat="62.635223383495" lon="17.970448852453">
        <ele>73.4</ele>
        <time>2018-03-03T17:47:23Z</time>
      </trkpt>
      <trkpt lat="62.635242410408" lon="17.970299403176">
        <ele>73.2</ele>
        <time>2018-03-03T17:47:24Z</time>
      </trkpt>
      <trkpt lat="62.635257078733" lon="17.970187923906">
        <ele>73.2</ele>
        <time>2018-03-03T17:47:25Z</time>
      </trkpt>
      <trkpt lat="62.635275518913" lon="17.970077953378">
        <ele>73.2</ele>
        <time>2018-03-03T17:47:26Z</time>
      </trkpt>
      <trkpt lat="62.635298485319" lon="17.969965719737">
        <ele>73.2</ele>
        <time>2018-03-03T17:47:27Z</time>
      </trkpt>
      <trkpt lat="62.635323631019" lon="17.969871423362">
        <ele>73.2</ele>
        <time>2018-03-03T17:47:28Z</time>
      </trkpt>
      <trkpt lat="62.63535120747" lon="17.969770589105">
        <ele>72.8</ele>
        <time>2018-03-03T17:47:29Z</time>
      </trkpt>
      <trkpt lat="62.635381466129" lon="17.969652404315">
        <ele>72.4</ele>
        <time>2018-03-03T17:47:30Z</time>
      </trkpt>
      <trkpt lat="62.635408707304" lon="17.969546038004">
        <ele>72</ele>
        <time>2018-03-03T17:47:31Z</time>
      </trkpt>
      <trkpt lat="62.63543418828" lon="17.969453837104">
        <ele>71.6</ele>
        <time>2018-03-03T17:47:32Z</time>
      </trkpt>
      <trkpt lat="62.635462854378" lon="17.96934688406">
        <ele>71.4</ele>
        <time>2018-03-03T17:47:33Z</time>
      </trkpt>
      <trkpt lat="62.635496633435" lon="17.969220149732">
        <ele>70.8</ele>
        <time>2018-03-03T17:47:34Z</time>
      </trkpt>
      <trkpt lat="62.635523706972" lon="17.969120069846">
        <ele>70.4</ele>
        <time>2018-03-03T17:47:35Z</time>
      </trkpt>
      <trkpt lat="62.635559162409" lon="17.968994173708">
        <ele>70.2</ele>
        <time>2018-03-03T17:47:36Z</time>
      </trkpt>
      <trkpt lat="62.63559260619" lon="17.9688909087">
        <ele>69.8</ele>
        <time>2018-03-03T17:47:37Z</time>
      </trkpt>
      <trkpt lat="62.635623870677" lon="17.968801976741">
        <ele>69.4</ele>
        <time>2018-03-03T17:47:38Z</time>
      </trkpt>
      <trkpt lat="62.635666869824" lon="17.968697119172">
        <ele>69</ele>
        <time>2018-03-03T17:47:39Z</time>
      </trkpt>
      <trkpt lat="62.635709366057" lon="17.968603074254">
        <ele>68.2</ele>
        <time>2018-03-03T17:47:40Z</time>
      </trkpt>
      <trkpt lat="62.635749515358" lon="17.968534342674">
        <ele>67.8</ele>
        <time>2018-03-03T17:47:41Z</time>
      </trkpt>
      <trkpt lat="62.63580550645" lon="17.968468125664">
        <ele>67</ele>
        <time>2018-03-03T17:47:42Z</time>
      </trkpt>
      <trkpt lat="62.635851942176" lon="17.9684382861">
        <ele>66</ele>
        <time>2018-03-03T17:47:43Z</time>
      </trkpt>
      <trkpt lat="62.635913046227" lon="17.968407943622">
        <ele>65.2</ele>
        <time>2018-03-03T17:47:44Z</time>
      </trkpt>
      <trkpt lat="62.635964091998" lon="17.968398472075">
        <ele>64.4</ele>
        <time>2018-03-03T17:47:45Z</time>
      </trkpt>
      <trkpt lat="62.636010443905" lon="17.968401238102">
        <ele>63.6</ele>
        <time>2018-03-03T17:47:46Z</time>
      </trkpt>
      <trkpt lat="62.636044809695" lon="17.968414230047">
        <ele>63.4</ele>
        <time>2018-03-03T17:47:47Z</time>
      </trkpt>
      <trkpt lat="62.636079510761" lon="17.968427054354">
        <ele>63</ele>
        <time>2018-03-03T17:47:48Z</time>
      </trkpt>
      <trkpt lat="62.636108763592" lon="17.968438705195">
        <ele>62.8</ele>
        <time>2018-03-03T17:47:49Z</time>
      </trkpt>
    </trkseg>
  </trk>
</gpx>